     2              OBSERVATION DATA    GPS                 RINEX VERSION / TYPE
TRRINEXO V2.3.1 LH UCLA / SCEC 25-FEB-94 18:02              PGM / RUN BY / DATE
                                                            COMMENT
Original Marker Name: SNPN                                  COMMENT
Campaign Name: jpl 1993-1997                                COMMENT
4-Character Station Name: SNPN                              COMMENT
6-Character Antenna Code: TRMSST                            COMMENT
Vertical Measurement Point: TGP                             COMMENT
Vertical Offset to Rinex Ref. Point: 0.0629                 COMMENT
Radial Measurement Point: NGP                               COMMENT
Radial Offset to Rinex Ref. Point: 0.2334                   COMMENT
Antenna Height from Field Measurement: 1.4190 m             COMMENT
Original XYZ: -2554469.5013 -4608609.5499 3582090.6558      COMMENT
New XYZ position is based on association with SCEC monument COMMENT
E1E9H7D4+0012. Position of that monument is believed to be  COMMENT
valid to within 1 m horizontally; vertical accuracy         COMMENT
should be no worse than 3-times this value.                 COMMENT
                                                            COMMENT
Revised Rinex header created by UCSD GPS archive for        COMMENT
GSAC on 06-Dec-2001 (2001:340) 17:43:32 GMT                 COMMENT
For assistance contact dagnew@ucsd.edu or hjohnson@ucsd.edu COMMENT
                                                            COMMENT
SANTA PAULA NCMN 2                                          MARKER NAME
X MASS INST. OF TECHNOLOGY                                  OBSERVER / AGENCY
432 TRIMBLE 4000 SST 4.81                                   REC # / TYPE / VERS
97 TR 4000SST L1/L2 GEO                                     ANT # / TYPE
 -2554488.6366 -4608639.1570  3582109.4464                  APPROX POSITION XYZ
        1.3368        0.0000        0.0000                  ANTENNA: DELTA H/E/N
     1     2     0                                          WAVELENGTH FACT L1/2
     3    C1    L1    L2                                    # / TYPES OF OBSERV
    30                                                      INTERVAL
  1994     1    23    18    30    0.000000                  TIME OF FIRST OBS
  1994     1    24     2     1    0.000000                  TIME OF LAST OBS
     0                                                      # OF SATELLITES
                                                            END OF HEADER
 94  1 23 18 30  0.0000000  0  6 25  1 14 15 29 22
  21276695.336          -0.95317
  24620579.930          -0.60315
  21717210.422          -0.00817
  21412639.109          -0.83016
  22975414.445          -0.12116
  23780689.969          -0.30815
 94  1 23 18 30 30.0000000  0  6 25  1 14 15 29 22
  21287589.227       57259.520 7        -0.24019
  24636401.734       83122.445 5
  21704930.813      -64530.482 7        -0.21417
  21424494.055       62262.284 6        -0.02817
  22965889.852      -50037.971 6
  23765045.031      -82193.849 5
 94  1 23 18 31  0.0000000  0  6 25  1 14 15 29 22
  21298563.117      114916.379 7     44927.130 9
  24652210.953      166201.356 5        -0.14015
  21692684.617     -128883.155 7    -50145.147 8
  21436430.883      125003.479 6     48889.182 7
  22956379.313     -100027.267 6        -0.41415
  23749417.563     -164318.518 5        -0.39015
 94  1 23 18 31 30.0000000  0  6 25  1 14 15 29 22
  21309619.672      173016.665 7     90200.031 9
  24668016.359      249276.842 4     64733.854 4
  21680478.289     -193025.001 7   -100125.802 8
  21448463.000      188256.482 6     98177.194 7
  22946882.203     -149942.329 6    -38895.258 5
  23733806.008     -246352.192 5    -63922.678 4
 94  1 23 18 32  0.0000000  0  6 25  1 14 15 29 22
  21320756.352      231555.773 7    135814.863 9
  24683819.156      332342.969 4    129460.565 5
  21668311.008     -256969.199 7   -149952.438 8
  21460602.352      252016.523 7    147860.312 8
  22937395.172     -199791.468 6    -77738.746 5
  23718211.695     -328311.705 5   -127787.188 4
 94  1 23 18 32 30.0000000  0  6 25  1 14 15 29 22
  21331975.555      290501.510 7    181746.558 9
  24699632.219      415367.731 5    194155.042 5
  21656173.008     -320744.286 7   -199647.306 8
  21472824.070      316254.047 7    197915.482 7
  22927917.172     -249579.744 6   -116534.807 5
  23702627.953     -410212.013 5   -191605.581 5
 94  1 23 18 33  0.0000000  0  6 25  1 14 15 29 22
  21343271.773      349870.164 7    228007.798 9
  24715411.695      498340.025 4    258808.635 5
  21644075.141     -384337.352 7   -249200.339 7
  21485141.117      380974.810 7    248347.211 7
  22918461.383     -299274.135 6   -155257.693 6
  23687053.094     -492040.092 5   -255367.684 3
 94  1 23 18 33 30.0000000  0  6 25  1 14 15 29 22
  21354644.523      409621.970 7    274567.596 9
  24731189.883      581219.088 4    323389.583 4
  21632003.938     -447775.984 7   -298633.041 8
  21497541.281      446153.346 7    299135.640 8
  22909020.797     -348893.311 6   -193921.982 6
  23671497.078     -573815.984 5   -319089.132 4
 94  1 23 18 34  0.0000000  0  6 25  1 14 15 29 22
  21366083.742      469755.819 7    321425.092 9
  24746944.688      664008.539 4    387900.684 4
  21619964.289     -511035.854 7   -347926.434 8
  21510037.047      511794.045 7    350284.195 8
  22899594.820     -398431.537 6   -232523.197 5
  23655946.047     -655523.145 5   -382757.037 4
 94  1 23 18 34 30.0000000  0  6 25  1 14 15 29 22
  21377605.484      530284.858 7    368590.538 9
  24762681.680      746713.949 3    452346.308 5
  21607964.359     -574088.249 7   -397058.169 8
  21522610.906      577898.798 7    401794.351 7
  22890188.758     -447867.538 6   -271044.730 6
  23640412.195     -737150.098 5   -446362.455 5
 94  1 23 18 35  0.0000000  0  6 25  1 14 15 29 22
  21389203.672      591233.368 7    416082.834 9
  24778407.984      829372.245 4    516755.227 5
  21596010.523     -636901.488 7   -446003.547 8
  21535284.938      644485.947 6    453680.400 8
  22880805.359     -497174.386 6   -309465.637 6
  23624897.547     -818693.599 5   -509902.839 5
 94  1 23 18 35 30.0000000  0  6 25  1 14 15 29 22
  21400875.000      652580.720 7    463885.926 9
  24794133.609      911991.446 4    581133.678 4
  21584106.203     -699473.964 7   -494761.321 8
  21548048.695      711544.704 7    505933.935 7
  22871443.367     -546361.457 6   -347793.200 6
  23609397.695     -900152.732 5   -573377.487 5
 94  1 23 18 36  0.0000000  0  6 25  1 14 15 29 22
  21412625.359      714318.290 7    511993.081 9
  24809844.328      994578.672 4    645487.210 3
  21572244.953     -761792.560 7   -543321.266 8
  21560893.602      779068.958 7    558550.196 8
  22862107.664     -595425.272 6   -386024.727 6
  23593906.461     -981522.478 5   -636782.493 5
 94  1 23 18 36 30.0000000  0  6 25  1 14 15 29 22
  21424449.945      776442.506 7    560401.518 9
  24825560.164     1077134.363 5    709816.152 3
  21560431.180     -823873.047 7   -591695.673 8
  21573829.516      847054.109 7    611525.591 8
  22852794.102     -644364.082 6   -424158.850 6
  23578443.859    -1062801.283 5   -700116.609 4
 94  1 23 18 37  0.0000000  0  6 25  1 14 15 29 22
  21436337.500      838927.568 7    609091.142 9
  24841261.781     1159660.255 4    774121.914 4
  21548660.594     -885735.803 7   -639900.412 8
  21586854.313      915497.826 6    664858.317 8
  22843500.430     -693209.470 6   -462220.181 6
  23562996.844    -1143977.533 5   -763370.855 5
 94  1 23 18 37 30.0000000  0  6 25  1 14 15 29 22
  21448296.984      901768.273 7    658057.877 9
  24856955.641     1242154.900 4    838403.315 3
  21536928.219     -947389.859 7   -687942.533 8
  21599968.453      984399.638 6    718547.995 7
  22834218.984     -741976.241 6   -500220.251 6
  23547572.250    -1225024.816 5   -826524.611 5
 94  1 23 18 38  0.0000000  0  6 25  1 14 15 29 22
  21460325.578      964984.622 7    707317.332 9
  24872652.133     1324632.399 4    902671.377 3
  21525233.070    -1008844.012 7   -735828.886 8
  21613167.055     1053765.589 6    772599.346 7
  22824956.094     -790661.059 6   -538156.469 6
  23532172.047    -1305948.808 5   -889582.278 5
 94  1 23 18 38 30.0000000  0  6 25  1 14 15 29 22
  21472428.414     1028574.337 7    756867.719 9
  24888347.391     1407085.964 5    966920.765 3
  21513573.711    -1070114.957 7   -783572.481 8
  21626454.172     1123585.643 6    827004.542 7
  22815703.742     -839286.601 6   -576046.500 6
  23516795.781    -1386756.797 5   -952549.573 5
 94  1 23 18 39  0.0000000  0  6 25  1 14 15 29 22
  21484602.570     1092553.381 7    806721.478 9
  24904031.625     1489509.326 5   1031146.619 3
  21501952.602    -1131186.233 7   -831160.489 8
  21639825.070     1193859.621 6    881763.438 7
  22806461.383     -887846.772 6   -613885.594 6
  23501441.133    -1467447.930 5  -1015425.784 4
 94  1 23 18 39 30.0000000  0  6 25  1 14 15 29 22
  21496854.359     1156939.218 7    856892.223 9
  24919704.430     1571886.976 5   1095336.878 2
  21490370.805    -1192044.644 7   -878582.622 7
  21653281.852     1264580.302 6    936870.439 7
  22797239.234     -936318.327 6   -651655.643 6
  23486110.328    -1548032.118 5  -1078218.660 3
 94  1 23 18 40  0.0000000  0  6 25  1 14 15 29 22
  21509183.070     1221722.387 7    907372.574 9
  24935373.875     1654209.911 5   1159484.449 2
  21478832.539    -1252679.876 7   -925830.858 8
  21666825.555     1335744.693 6    992323.150 7
  22788034.398     -984694.661 6   -689351.496 6
  23470791.688    -1628510.236 5  -1140928.892 4
 94  1 23 18 40 30.0000000  0  6 25  1 14 15 29 22
  21521583.117     1286897.296 7    958158.170 9
  24951020.289     1736473.313 5   1223585.656 2
  21467340.492    -1313071.334 7   -972889.129 8
  21680456.188     1407358.793 6   1048126.297 7
  22778848.000    -1032962.166 6   -726962.549 6
  23455506.320    -1708861.170 5  -1203540.015 5
 94  1 23 18 41  0.0000000  0  6 25  1 14 15 29 22
  21534058.242     1352459.172 7   1009245.309 9
  24966669.539     1818675.108 5   1287638.876 3
  21455896.641    -1373204.304 7  -1019745.985 8
  21694173.141     1479426.157 6   1104282.644 7
  22769688.141    -1081098.443 6   -764471.350 6
  23440241.781    -1789077.906 5  -1266046.546 4
 94  1 23 18 41 30.0000000  0  6 25  1 14 15 29 22
  21546602.781     1418363.015 7   1060598.908 9
  24982293.938     1900796.696 5   1351629.587 1
  21444501.859    -1433100.527 7  -1066418.367 8
  21707963.063     1551924.696 6   1160774.965 7
  22760547.031    -1129122.662 6   -801892.832 6
  23424994.945    -1869177.947 5  -1328462.148 5
 94  1 23 18 42  0.0000000  0  6 25  1 14 15 29 22
  21559205.086     1484599.259 7   1112211.521 9
  24997910.789     1982854.091 5   1415570.320 1
  21433146.828    -1492761.051 7  -1112907.082 8
  21721843.047     1624856.253 6   1217604.703 7
  22751431.828    -1177041.813 6   -839232.446 6
  23409771.984    -1949156.250 5  -1390782.888 5
 94  1 23 18 42 30.0000000  0  5 25 14 15 29 22
  21571873.125     1551174.618 7   1164088.385 9
  21421840.813    -1552182.614 7  -1159209.605 8
  21735806.180     1698218.696 6   1274770.203 7
  22742330.484    -1224852.573 6   -876487.597 6
  23394578.352    -2029014.445 5  -1453010.026 5
 94  1 23 18 43  0.0000000  0  5 25 14 15 29 22
  21584612.234     1618107.494 7   1216243.829 9
  21410579.625    -1611350.534 7  -1205314.470 8
  21749845.086     1772023.137 6   1332280.103 7
  22733257.742    -1272544.345 6   -913650.028 6
  23379409.969    -2108732.986 5  -1515128.359 4
 94  1 23 18 43 30.0000000  0  5 25 14 15 29 22
  21597412.680     1685394.200 7   1268674.983 9
  21399367.406    -1670278.273 7  -1251232.185 8
  21763976.258     1846254.921 6   1390123.016 7
  22724196.203    -1320137.222 6   -950735.401 6
  23364262.969    -2188316.366 5  -1577141.353 5
 94  1 23 18 44  0.0000000  0  5 25 14 15 29 22
  21610293.289     1753063.252 7   1321404.071 9
  21388203.555    -1728944.046 7  -1296945.777 9
  21778180.391     1920922.847 6   1448305.762 7
  22715163.344    -1367631.187 6   -987743.696 6
  23349153.344    -2267739.910 5  -1639029.785 5
 94  1 23 18 44 30.0000000  0  5 25 14 15 29 22
  21623243.930     1821121.874 7   1374436.719 9
  21377092.570    -1787330.217 7  -1342441.491 8
  21792477.867     1996036.604 6   1506835.907 7
  22706145.164    -1415023.619 6  -1024672.870 6
  23334068.672    -2346980.413 5  -1700775.610 5
 94  1 23 18 45  0.0000000  0  5 25 14 15 29 22
  21636265.461     1889559.630 7   1427764.784 9
  21366032.508    -1845442.974 7  -1387724.164 8
  21806854.234     2071585.458 6   1565705.097 7
  22697142.008    -1462330.368 6  -1061535.278 6
  23319030.102    -2426032.477 5  -1762374.582 5
 94  1 23 18 45 30.0000000  0  5 25 14 15 29 22
  21649360.484     1958354.620 7   1481371.217 9
  21355026.203    -1903287.909 7  -1432798.140 8
  21821309.211     2147551.917 6   1624899.693 7
  22688155.219    -1509563.639 6  -1098340.415 6
  23304018.625    -2504911.852 5  -1823838.988 5
 94  1 23 18 46  0.0000000  0  5 25 14 15 29 22
  21662513.469     2027490.607 7   1535243.366 9
  21344069.977    -1960879.536 7  -1477674.742 8
  21835844.563     2223927.574 6   1684413.144 7
  22679177.078    -1556730.143 6  -1135093.531 6
  23289040.758    -2583627.800 5  -1885176.055 5
 94  1 23 18 46 30.0000000  0  5 25 14 15 29 22
  21675734.461     2096969.518 7   1589382.720 9
  21333157.656    -2018209.002 7  -1522347.045 8
  21850461.219     2300729.931 6   1744259.087 7
  22670221.625    -1603791.716 6  -1171764.876 6
  23274094.383    -2662167.194 5  -1946375.541 5
 94  1 23 18 47  0.0000000  0  5 25 14 15 29 22
  21689024.297     2166802.574 7   1643798.037 9
  21322298.727    -2075273.490 7  -1566812.884 8
  21865156.203     2377962.181 6   1804440.012 7
  22661292.461    -1650718.081 6  -1208330.851 6
  23259183.563    -2740529.698 5  -2007437.205 5
 94  1 23 18 47 30.0000000  0  5 25 14 15 29 22
  21702376.695     2236963.984 7   1698469.206 9
  21311488.406    -2132091.276 7  -1611086.488 8
  21879927.828     2455601.074 6   1864937.803 7
  22652385.109    -1697518.509 6  -1244798.711 6
  23244296.086    -2818737.995 5  -2068378.714 5
 94  1 23 18 48  0.0000000  0  5 25 14 15 29 22
  21715793.445     2307461.129 7   1753401.995 9
  21300724.664    -2188646.846 7  -1655155.774 8
  21894779.977     2533657.198 6   1925760.713 7
  22643502.984    -1744192.965 6  -1281168.400 6
  23229451.508    -2896768.489 5  -2129181.675 5
 94  1 23 18 48 30.0000000  0  5 25 14 15 29 22
  21729274.305     2378303.983 7   1808604.165 9
  21290015.625    -2244925.012 7  -1699008.892 8
  21909712.422     2612129.834 6   1986908.172 7
  22634648.703    -1790738.990 6  -1317438.017 6
  23214638.672    -2974603.211 5  -2189832.095 5
 94  1 23 18 49  0.0000000  0  5 25 14 15 29 22
  21742815.992     2449475.066 7   1864062.097 9
  21279358.109    -2300936.401 7  -1742654.123 8
  21924719.508     2690992.705 6   2048359.714 7
  22625805.523    -1837203.494 6  -1353644.108 6
  23199863.016    -3052247.162 5  -2250333.857 5
 94  1 23 18 49 30.0000000  0  5 25 14 15 29 22
  21756424.836     2520988.930 7   1919787.125 9
  21268755.414    -2356655.676 7  -1786071.740 8
  21939804.305     2770267.367 6   2110132.135 7
  22616975.828    -1883589.127 6  -1389788.733 6
  23185132.125    -3129670.330 5  -2310663.600 5
 94  1 23 18 50  0.0000000  0  5 25 14 15 29 22
  21770101.359     2592859.978 7   1975790.487 9
  21258207.805    -2412083.177 7  -1829262.005 8
  21954969.961     2849953.147 6   2172224.898 7
  22608164.102    -1929901.324 6  -1425876.150 6
  23170440.273    -3206872.850 5  -2370821.418 5
 94  1 23 18 50 30.0000000  0  5 25 14 15 29 22
  21783842.297     2665069.894 7   2032057.896 9
  21247708.539    -2467247.027 7  -1872246.825 8
  21970209.773     2930028.087 6   2234620.919 7
  22599368.203    -1976142.289 6  -1461908.063 6
  23155785.211    -3283875.594 5  -2430823.555 5
 94  1 23 18 51  0.0000000  0  5 25 14 15 29 22
  21797646.141     2737615.786 7   2088587.110 9
  21237264.008    -2522131.714 7  -1915014.115 8
  21985524.992     3010496.896 6   2297323.839 7
  22590582.578    -2022294.080 6  -1497870.485 6
  23141167.469    -3360684.579 5  -2490674.730 5
 94  1 23 18 51 30.0000000  0  5 25 14 15 29 22
  21811521.602     2810527.012 7   2145400.991 9
  21226881.289    -2576707.378 7  -1957540.612 8
  22000918.398     3091384.506 6   2360353.104 7
  22581827.078    -2068311.109 6  -1533727.902 6
  23126594.633    -3437283.182 5  -2550361.968 5
 94  1 23 18 52  0.0000000  0  5 25 14 15 29 22
  21825458.867     2883764.671 7   2202469.250 9
  21216547.266    -2631006.315 7  -1999851.476 8
  22016381.422     3172653.445 6   2423679.509 6
  22573090.477    -2114217.985 6  -1569499.478 6
  23112051.961    -3513702.171 5  -2609909.246 5
 94  1 23 18 52 30.0000000  0  5 25 14 15 29 22
  21839453.781     2957300.873 7   2259770.130 9
  21206267.789    -2685028.239 7  -2041946.475 8
  22031914.234     3254293.510 6   2487295.105 6
  22564377.125    -2160018.494 6  -1605188.186 6
  23097545.008    -3589938.083 5  -2669313.849 6
 94  1 23 18 53  0.0000000  0  5 25 14 15 29 22
  21853502.641     3031137.956 7   2317305.461 9
  21196043.094    -2738760.058 7  -2083815.424 8
  22047522.469     3336304.994 6   2551200.111 7
  22555681.078    -2205712.139 6  -1640793.623 6
  23083073.562    -3665979.892 5  -2728567.211 5
 94  1 23 18 53 30.0000000  0  5 25 14 15 29 22
  21867614.531     3105294.433 7   2375089.676 8
  21185875.914    -2792197.696 7  -2125455.128 8
  22063204.688     3418698.146 6   2615402.519 6
  22547004.313    -2251302.285 6  -1676318.398 6
  23068649.539    -3741794.556 5  -2787643.564 5
 94  1 23 18 54  0.0000000  0  5 25 14 15 29 22
  21881782.539     3179761.390 7   2433115.815 8
  21175759.258    -2845348.129 7  -2166871.044 8
  22078948.422     3501464.840 6   2679896.003 6
  22538349.547    -2296795.807 6  -1711767.895 6
  23054268.617    -3817377.684 5  -2846539.492 5
 94  1 23 18 54 30.0000000  0  5 25 14 15 29 22
  21896015.898     3254550.078 7   2491392.665 8
  21165705.313    -2898180.053 7  -2208038.777 8
  22094777.484     3584617.943 6   2744690.583 6
  22529715.680    -2342167.398 6  -1747122.397 6
  23039930.414    -3892701.316 5  -2905233.207 5
 94  1 23 18 55  0.0000000  0  5 25 14 15 29 22
  21910311.844     3329665.041 7   2549923.751 8
  21155712.297    -2950690.306 7  -2248955.844 8
  22110668.453     3668151.979 6   2809782.003 7
  22521103.484    -2387420.970 6  -1782384.923 6
  23025641.852    -3967772.375 5  -2963730.101 6
 94  1 23 18 55 30.0000000  0  5 25 14 15 29 22
  21924662.711     3405095.432 7   2608700.627 8
  21145780.633    -3002888.087 7  -2289629.434 8
  22126640.453     3752055.679 6   2875161.466 6
  22512506.773    -2432576.268 6  -1817570.880 6
  23011407.711    -4042610.609 6  -3022045.557 5
 94  1 23 18 56  0.0000000  0  5 25 14 15 29 22
  21939077.289     3480824.985 7   2667710.624 8
  21135907.234    -3054761.555 7  -2330050.317 8
  22142670.102     3836323.112 6   2940824.358 7
  22503937.961    -2477631.718 6  -1852679.025 6
  22997206.953    -4117230.182 5  -3080190.627 5
 94  1 23 18 56 30.0000000  0  5 25 14 15 29 22
  21953546.055     3556870.961 7   2726967.181 8
  21126104.352    -3106289.152 7  -2370201.683 8
  22158782.297     3920967.227 6   3006780.758 6
  22495383.828    -2522576.822 6  -1887701.181 6
  22983049.070    -4191618.265 6  -3138155.306 5
 94  1 23 18 57  0.0000000  0  5 25 14 15 29 22
  21968078.320     3633225.713 7   2786464.343 8
  21116360.719    -3157499.106 7  -2410105.539 8
  22174953.898     4005964.982 6   3073012.731 7
  22486842.836    -2567450.906 6  -1922668.004 6
  22968931.977    -4265804.275 6  -3195962.512 5
 94  1 23 18 57 30.0000000  0  5 25 14 15 29 22
  21982664.344     3709885.685 7   2846199.333 8
  21106674.820    -3208390.932 7  -2449761.499 9
  22191194.156     4091307.549 6   3139513.381 6
  22478315.469    -2612265.917 6  -1957588.799 6
  22954855.820    -4339786.698 6  -3253611.085 5
 94  1 23 18 58  0.0000000  0  5 25 14 15 29 22
  21997302.781     3786815.899 7   2906144.908 8
  21097042.406    -3259000.692 7  -2489197.676 8
  22207495.867     4176954.802 6   3206251.459 7
  22469796.273    -2657051.446 6  -1992486.608 6
  22940809.938    -4413579.596 6  -3311111.964 5
 94  1 23 18 58 30.0000000  0  5 25 14 15 29 22
  22012012.828     3864111.121 7   2966374.918 8
  21087482.461    -3309248.169 7  -2528351.559 9
  22223862.492     4262993.165 6   3273294.284 6
  22461292.969    -2701713.613 6  -2027288.305 6
  22926823.508    -4487077.126 6  -3368382.694 5
 94  1 23 18 59  0.0000000  0  5 25 14 15 29 22
  22026783.086     3941719.706 7   3026849.087 8
  21077980.016    -3359170.679 7  -2567252.208 8
  22240304.234     4349380.336 6   3340608.926 6
  22452814.844    -2746286.039 6  -2062020.061 6
  22912892.570    -4560305.244 6  -3425443.476 6
 94  1 23 18 59 30.0000000  0  5 25 14 15 29 22
  22041604.102     4019612.890 7   3087545.029 8
  21068541.969    -3408786.729 7  -2605914.070 9
  22256806.891     4436097.468 6   3408180.667 6
  22444345.133    -2790767.521 6  -2096680.946 6
  22899007.047    -4633266.600 6  -3482296.393 5
 94  1 23 19  0  0.0000000  0  5 25 14 15 29 22
  22056479.289     4097784.213 7   3148457.700 8
  21059156.078    -3458089.625 7  -2644331.908 8
  22273371.555     4523147.054 6   3476011.468 6
  22435903.289    -2835139.517 6  -2131256.533 6
  22885174.250    -4705947.722 6  -3538930.956 6
 94  1 23 19  0 30.0000000  0  5 25 14 15 29 22
  22071407.711     4176230.744 7   3209584.827 8
  21049838.211    -3507070.035 7  -2682498.462 9
  22289997.945     4610529.776 6   3544101.846 6
  22427482.945    -2879398.575 6  -2165744.100 6
  22871395.266    -4778358.858 6  -3595355.122 6
 94  1 23 19  1  0.0000000  0  5 25 14 15 29 22
  22086385.430     4254948.679 7   3270923.432 8
  21040578.016    -3555730.423 7  -2720415.649 8
  22306688.719     4698241.294 6   3612448.440 6
  22419079.430    -2923551.221 6  -2200148.763 6
  22857662.148    -4850512.992 6  -3651579.052 6
 94  1 23 19  1 30.0000000  0  5 25 14 15 29 22
  22101417.727     4333941.515 7   3332476.244 8
  21031379.008    -3604074.869 7  -2758086.648 9
  22323440.773     4786275.196 6   3681046.235 6
  22410695.969    -2967601.770 6  -2234473.859 6
  22843982.969    -4922418.782 6  -3707609.457 6
 94  1 23 19  2  0.0000000  0  5 25 14 15 29 22
  22116506.117     4413224.982 7   3394255.522 8
  21022238.859    -3652089.728 7  -2795500.828 9
  22340257.148     4874640.093 6   3749901.945 6
  22402338.344    -3011546.335 6  -2268716.380 6
  22830346.797    -4994072.254 6  -3763443.263 6
 94  1 23 19  2 30.0000000  0  5 25 14 15 29 22
  22131647.648     4492797.537 7   3456260.062 8
  21013163.875    -3699791.774 7  -2832671.265 8
  22357138.836     4963334.120 6   3819014.133 6
  22393991.953    -3055386.327 6  -2302877.401 6
  22816759.453    -5065473.038 6  -3819080.171 6
 94  1 23 19  3  0.0000000  0  5 25 14 15 29 22
  22146842.484     4572651.267 7   3518483.693 8
  21004145.008    -3747176.195 7  -2869594.191 9
  22374075.719     5052348.727 6   3888376.110 6
  22385672.352    -3099120.959 6  -2336956.345 6
  22803224.492    -5136610.408 6  -3874511.832 6
 94  1 23 19  3 30.0000000  0  5 25 14 15 29 22
  22162090.461     4652776.097 7   3580918.583 8
  20995192.977    -3794227.908 7  -2906257.876 9
  22391076.188     5141679.030 6   3957984.093 6
  22377369.289    -3142748.374 6  -2370951.733 6
  22789736.703    -5207468.660 6  -3929726.005 6
 94  1 23 19  4  0.0000000  0  5 25 14 15 29 22
  22177388.711     4733164.893 7   3643559.149 8
  20986304.703    -3840938.708 7  -2942655.899 8
  22408133.984     5231324.363 6   4027837.552 6
  22369084.766    -3186270.209 6  -2404864.857 6
  22776310.320    -5278033.319 6  -3984711.423 6
 94  1 23 19  4 30.0000000  0  5 25 14 15 29 22
  22192736.711     4813821.090 7   3706408.081 8
  20977487.094    -3887283.344 7  -2978768.609 8
  22425255.414     5321291.874 6   4097942.055 6
  22360826.617    -3229674.676 6  -2438686.519 6
  22762945.328    -5348280.578 6  -4039449.510 6
 94  1 23 19  5  0.0000000  0  5 25 14 15 29 22
  22208134.500     4894733.809 7   3769456.898 8
  20968737.086    -3933253.325 7  -3014589.374 8
  22442432.141     5411566.887 6   4168286.171 6
  22352588.539    -3272986.575 6  -2472436.054 6
  22749632.305    -5418220.362 6  -4093948.017 6
 94  1 23 19  5 30.0000000  0  5 25 14 15 29 22
  22223579.102     4975893.082 7   3832697.836 8
  20960058.305    -3978874.591 7  -3050138.424 8
  22459666.102     5502135.364 6   4238858.953 6
  22344353.383    -3316226.999 6  -2506129.894 6
  22736380.031    -5487870.306 6  -4148220.683 6
 94  1 23 19  6  0.0000000  0  5 25 14 15 29 22
  22239069.117     5057301.082 7   3896132.591 8
  20951440.234    -4024152.541 7  -3085419.946 9
  22476953.172     5592990.162 6   4309654.857 6
  22336140.523    -3359407.877 6  -2539777.336 7
  22723175.625    -5557238.300 6  -4202273.649 6
 94  1 23 19  6 30.0000000  0  5 25 14 15 29 22
  22254610.805     5138968.687 7   3959769.632 8
  20942889.984    -4069069.319 7  -3120420.040 9
  22494299.453     5684139.095 6   4380679.959 6
  22327937.500    -3402525.322 6  -2573375.363 6
  22710032.633    -5626319.987 6  -4256103.521 6
 94  1 23 19  7  0.0000000  0  5 25 14 15 29 22
  22270199.641     5220890.622 7   4023604.851 8
  20934410.258    -4113637.247 7  -3155148.294 9
  22511703.266     5775577.836 6   4451930.863 6
  22319741.406    -3445587.595 6  -2606930.386 6
  22696947.086    -5695111.447 6  -4309707.243 6
 94  1 23 19  7 30.0000000  0  5 25 14 15 29 22
  22285834.805     5303065.762 7   4087637.371 8
  20925997.297    -4157853.507 7  -3189602.527 8
  22529157.766     5867301.859 6   4523404.072 6
  22311557.930    -3488582.843 6  -2640433.197 6
  22683910.633    -5763605.473 6  -4363079.205 6
 94  1 23 19  8  0.0000000  0  6 25 18 14 15 29 22
  22301522.055     5385483.647 7   4151859.050 8
  24927015.016          -0.81414
  20917652.820    -4201715.230 7  -3223780.498 8
  22546664.078     5959305.747 6   4595095.360 6
  22303389.297    -3531508.146 6  -2673881.487 7
  22670934.195    -5831798.720 6  -4416216.799 6
 94  1 23 19  8 30.0000000  0  6 25 18 14 15 29 22
  22317253.281     5468151.321 7   4216275.370 8
  24913089.016      -73144.473 3
  20909374.172    -4245212.022 7  -3257674.105 9
  22564224.063     6051604.891 6   4667016.702 6
  22295241.859    -3574328.041 7  -2707247.645 7
  22658014.930    -5899671.293 6  -4469104.511 6
 94  1 23 19  9  0.0000000  0  6 25 18 14 15 29 22
  22333030.125     5551065.065 7   4280883.436 8
  24899184.219     -146256.949 3        -0.11211
  20901166.250    -4288338.058 7  -3291278.808 8
  22581848.688     6144199.054 6   4739167.947 6
  22287122.758    -3617011.141 7  -2740507.208 7
  22645164.305    -5967215.027 6  -4521735.984 6
 94  1 23 19  9 30.0000000  0  6 25 18 14 15 29 22
  22348852.516     5634210.637 7   4345672.141 8
  24885269.203     -219355.610 2    -56960.104 1
  20893031.391    -4331095.385 7
  22599522.883     6237068.417 6   4811533.617 6
  22279024.141    -3659556.846 7
  22632368.773    -6034462.223 6  -4574136.387 6
 94  1 23 19 10  0.0000000  0  6 25 18 14 15 29 22
  22364717.211     5717570.389 7   4410627.747 8
  24871356.938     -292454.554 3   -113920.380 1
  20884962.109    -4373490.813 7
  22617241.375     6330201.443 6   4884104.748 6
  22270951.133    -3701978.062 7
  22619622.695    -6101428.604 6  -4626317.964 6
 94  1 23 19 10 30.0000000  0  6 25 18 14 15 29 22
  22380623.680     5801175.759 7   4475774.734 8
  24857455.453     -365535.099 3   -170866.187 1
  20876971.602    -4415476.957 7  -3390348.076 9
  22635021.711     6423619.767 6   4956898.190 6
  22262909.016    -3744249.258 7  -2798521.292 7
  22606940.688    -6168079.166 6  -4678253.453 6
 94  1 23 19 11  0.0000000  0  6 25 18 14 15 29 22
  22396582.992     5885027.897 7   4541114.009 8
  24843557.375     -438598.935 3   -227799.066 1
  20869062.422    -4457050.871 7  -3422743.328 8
  22652849.391     6517309.212 6   5029902.880 6
  22254883.820    -3786396.833 7  -2831363.570 7
  22594318.563    -6234418.648 6  -4729946.543 6
 94  1 23 19 11 30.0000000  0  6 25 18 14 15 29 22
  22412587.898     5969145.247 7   4606659.948 7
  24829652.398     -511623.710 3   -284701.449 1
  20861226.078    -4498223.121 7  -3454825.596 9
  22670729.492     6611276.376 6   5103123.980 6
  22246885.563    -3828446.634 7  -2864129.626 7
  22581752.055    -6300427.193 6  -4781381.753 6
 94  1 23 19 12  0.0000000  0  6 25 18 14 15 29 22
  22428648.758     6053538.329 7   4672420.739 7
  24815766.258     -584609.045 3   -341573.113 1
  20853469.352    -4539000.431 7  -3486600.104 9
  22688668.961     6705526.474 6   5176565.565 6
  22238896.820    -3870409.352 7  -2896827.858 7
  22569267.359    -6366065.083 6  -4832528.130 6
 94  1 23 19 12 30.0000000  0  6 25 18 14 15 29 22
  22444762.648     6138211.381 7   4738399.688 7
  24801885.625     -657565.492 3   -398422.272 1
  20845783.469    -4579392.864 7  -3518074.721 9
  22706650.891     6800051.319 6   5250221.210 6
  22230925.906    -3912300.089 7  -2929469.990 7
  22556849.867    -6431318.945 6  -4883375.270 6
 94  1 23 19 13  0.0000000  0  6 25 18 14 15 29 22
  22460920.898     6223141.857 7   4804579.233 7
  24788001.727     -730506.865 2   -455259.663 1
  20838160.578    -4619437.922 7  -3549278.646 8
  22724689.914     6894837.078 6   5324080.179 6
  22222965.336    -3954136.338 7  -2962069.664 7
  22544503.055    -6496195.549 6  -4933928.441 6
 94  1 23 19 13 30.0000000  0  6 25 18 14 15 29 22
  22477130.727     6308314.677 7   4870947.622 7
  24774125.352     -803440.522 3
  20830605.234    -4659137.551 7  -3580213.413 8
  22742778.422     6989884.021 6   5398142.662 6
  22215018.250    -3995906.393 6  -2994617.739 7
  22532228.547    -6560690.428 6  -4984184.147 6
 94  1 23 19 14  0.0000000  0  6 25 18 14 15 29 22
  22493382.516     6393716.995 7   4937494.837 7
  24760245.570     -876374.692 2        -0.26811
  20823124.578    -4698461.766 7  -3610855.641 9
  22760912.867     7085191.466 6   5472408.149 6
  22207086.445    -4037585.859 7  -3027095.239 7
  22520025.977    -6624808.584 6  -5034146.309 6
 94  1 23 19 14 30.0000000  0  6 25 18 14 15 29 22
  22509676.242     6479331.332 7   5004207.265 8
  24746369.953     -949298.083 2    -56823.563 1
  20815712.375    -4737402.348 7  -3641198.943 8
  22779098.602     7180748.769 6   5546868.320 6
  22199174.000    -4079157.575 7  -3059488.766 7
  22507896.008    -6688574.122 6  -5083833.695 6
 94  1 23 19 15  0.0000000  0  6 25 18 14 15 29 22
  22526004.453     6565146.437 7   5071076.128 7
  24732505.648    -1022194.879 3   -113626.246 1
  20808375.844    -4775957.618 7  -3671242.002 8
  22797329.094     7276550.545 6   5621518.992 6
  22191286.664    -4120602.484 7  -3091783.489 7
  22495823.680    -6752007.357 6  -5133262.147 6
 94  1 23 19 15 30.0000000  0  6 25 18 14 15 29 22
  22542372.156     6651170.473 7   5138107.803 7
  24718630.531    -1095055.964 3   -170401.051 1
  20801115.563    -4814106.973 7  -3700968.755 8
  22815605.883     7372592.719 6   5696356.975 6
  22183426.305    -4161914.336 7  -3123974.530 7
  22483814.703    -6815113.235 6  -5182435.506 6
 94  1 23 19 16  0.0000000  0  6 25 18 14 15 29 22
  22558789.344     6737420.183 7   5205315.335 7
  24704779.492    -1167866.565 3   -227136.508 1
  20793941.242    -4851832.192 7  -3730365.022 8
  22833925.859     7468876.671 6   5771383.372 6
  22175588.750    -4203094.843 7  -3156063.222 7
  22471868.531    -6877871.823 6  -5231338.251 6
 94  1 23 19 16 30.0000000  0  6 25 18 14 15 29 22
  22575246.773     6823916.084 7   5272714.697 7
  24690933.141    -1240610.899 3   -283820.398 1
  20786839.906    -4889117.546 7  -3759418.527 8
  22852300.148     7565418.063 6   5846610.364 6
  22167781.969    -4244137.421 7  -3188044.435 7
  22460000.055    -6940258.993 6  -5279951.575 6
 94  1 23 19 17  0.0000000  0  6 25 18 14 15 29 22
  22591748.625     6910626.124 7   5340280.923 7
  24677094.813    -1313328.266 3   -340483.316 1
  20779827.406    -4925986.467 7  -3788147.557 8
  22870710.586     7662187.453 6   5922015.018 6
  22159986.484    -4285093.976 7  -3219958.610 7
  22448194.352    -7002288.517 6  -5328286.217 6
 94  1 23 19 17 30.0000000  0  6 25 18 14 15 29 22
  22608288.352     6997548.512 7   5408012.611 7
  24663261.180    -1386026.643 3   -397131.404 2
  20772895.719    -4962421.566 7  -3816538.530 8
  22889169.984     7759186.511 6   5997598.632 6
  22152203.492    -4325978.558 7  -3251816.712 7
  22436462.203    -7063940.035 6  -5376326.310 6
 94  1 23 19 18  0.0000000  0  6 25 18 14 15 29 22
  22624865.688     7084667.097 7   5475897.179 7
  24649434.836    -1458710.455 4   -453768.108 1
  20766044.289    -4998417.930 7  -3844587.637 8
  22907673.805     7856414.031 6   6073360.258 6
  22144440.508    -4366795.955 7  -3283622.464 7
  22424802.680    -7125218.142 6  -5424075.435 6
 94  1 23 19 18 30.0010000  0  6 25 18 14 15 29 22
  22641482.013     7171979.795 7   5543933.012 7
  24635597.880    -1531395.984 3   -510406.165 1
  20759273.028    -5033993.524 7  -3872308.864 8
  22926218.466     7953867.664 6   6149298.107 6
  22136687.185    -4407548.123 7  -3315377.380 7
  22413205.583    -7186140.166 6  -5471547.088 6
 94  1 23 19 19  0.0010000  0  6 25 18 14 15 29 22
  22658130.161     7259479.784 6   5612114.778 7
  24621768.497    -1604078.305 4   -567041.829 2
  20752583.122    -5069157.335 7  -3899709.223 9
  22944804.130     8051526.463 6   6225395.807 5
  22128941.763    -4448236.202 7  -3347082.364 7
  22401682.450    -7246716.431 6  -5518749.319 6
 94  1 23 19 19 30.0010000  0  6 25 18 14 15 29 22
  22674822.747     7347186.413 6   5680457.565 7
  24607940.528    -1676746.070 4   -623666.090 1
  20745972.263    -5103906.936 7  -3926786.821 8
  22963423.747     8149401.422 6   6301661.943 5
  22121214.513    -4488829.762 7  -3378713.687 7
  22390215.349    -7306944.781 6  -5565680.448 6
 94  1 23 19 20  0.0010000  0  6 25 18 14 15 29 22
  22691548.091     7435083.602 6   5748948.833 7
  24594110.544    -1749411.323 3   -680288.405 1
  20739428.981    -5138277.231 7  -3953568.856 8
  22982090.286     8247472.893 6   6378081.205 5
  22113507.567    -4529324.709 7  -3410268.177 7
  22378828.685    -7366826.245 6  -5612341.281 6
 94  1 23 19 20 30.0010000  0  6 25 18 14 15 29 22
  22708307.513     7523168.721 6   5817586.551 7
  24580278.356    -1822077.129 3   -736911.155 1
  20732961.864    -5172284.847 7  -3980068.289 8
  23000787.481     8345727.254 6   6454642.987 6
  22105822.052    -4569715.235 7  -3441741.293 7
  22367497.294    -7426343.531 6  -5658718.345 6
 94  1 23 19 21  0.0010000  0  6 25 18 14 15 29 22
  22725107.286     7611438.685 6   5886368.303 7
  24566457.317    -1894729.321 3   -793523.288 2
  20726558.747    -5205905.009 7  -4006265.805 8
  23019521.841     8444170.840 6   6531352.216 6
  22098164.685    -4609983.636 7  -3473119.247 7
  22356246.388    -7485473.446 6  -5704793.548 6
 94  1 23 19 21 30.0010000  0  6 25 18 14 15 29 22
  22741948.364     7699944.348 6   5955333.721 7
  24552649.880    -1967306.053 4   -850076.632 1
  20720251.739    -5239063.450 7  -4032103.535 8
  23038305.200     8542873.150 6   6608263.034 5
  22090535.528    -4650057.481 7  -3504345.599 7
  22345086.419    -7544124.172 6  -5750495.358 6
 94  1 23 19 22  0.0010000  0  6 25 18 14 15 29 22
  22758823.692     7788617.193 6   6024429.406 7
  24538837.169    -2039878.750 3   -906626.850 2
  20714015.911    -5271819.853 7  -4057627.990 8
  23057118.841     8641762.033 6   6685319.236 6
  22082932.810    -4690027.927 7  -3535491.388 7
  22334004.020    -7602351.183 6  -5795867.002 6
 94  1 23 19 22 30.0010000  0  6 25 18 14 15 29 22
  22775734.388     7877470.926 6   6093666.026 7
  24525031.786    -2112442.297 3   -963169.926 2
  20707864.528    -5304149.333 7  -4082819.782 8
  23075974.802     8740839.192 6   6762522.150 5
  22075342.028    -4729911.657 7  -3566569.604 7
  22323004.364    -7660166.781 6  -5840918.077 6
 94  1 23 19 23  0.0010000  0  6 25 18 14 15 29 22
  22792670.466     7966493.194 6   6163033.991 7
  24511227.786    -2184995.782 3  -1019705.150 2
  20701792.083    -5336054.037 7  -4107680.581 8
  23094863.927     8840099.527 6   6839867.789 5
  22067768.966    -4769723.806 7  -3597592.044 7
  22312073.817    -7717587.435 6  -5885661.387 6
 94  1 23 19 23 30.0010000  0  6 25 18 14 15 29 22
  22809646.474     8055689.019 6   6232537.188 7
  24497417.263    -2257534.429 3  -1076228.812 2
  20695802.544    -5367539.749 7  -4132214.889 8
  23113784.739     8939542.692 6   6917355.910 5
  22060197.481    -4809475.203 7  -3628567.142 7
  22301228.169    -7774615.887 6  -5930099.078 6
 94  1 23 19 24  0.0010000  0  6 25 18 14 15 29 22
  22826655.474     8145080.107 6   6302192.531 7
  24483621.130    -2330052.255 4  -1132736.238 4
  20689890.138    -5398602.554 7  -4156419.667 8
  23132743.981     9039169.001 6   6994986.735 5
  22052650.942    -4849165.810 7  -3659494.862 7
  22290447.466    -7831259.897 6  -5974237.212 6
 94  1 23 19 24 30.0010000  0  6 25 18 14 15 29 22
  22843703.192     8234660.501 6   6371995.387 7
  24469821.856    -2402560.188 4  -1189235.946 3
  20684057.177    -5429246.407 7  -4180297.984 8
  23151738.325     9138973.004 6   7072756.019 5
  22045110.786    -4888783.929 7  -3690366.100 7
  22279738.989    -7887530.059 6  -6018084.035 6
 94  1 23 19 25  0.0010000  0  6 25 18 14 15 29 22
  22860787.083     8324423.043 6   6441940.171 7
  24456023.935    -2475057.029 3  -1245727.008 2
  20678305.239    -5459464.977 7  -4203844.912 8
  23170761.528     9238955.791 6   7150664.615 5
  22037588.622    -4928311.396 7  -3721166.701 7
  22269103.552    -7943422.615 6  -6061636.610 6
 94  1 23 19 25 30.0010000  0  6 25 18 14 15 29 22
  22877905.974     8414408.047 6   6512058.291 7
  24442241.153    -2547521.133 5  -1302192.543 2
  20672648.997    -5489206.416 7  -4227020.057 8
  23189828.958     9339153.810 6   7228740.920 5
  22030094.083    -4967699.902 7  -3751859.016 7
  22258545.794    -7998893.260 6  -6104860.433 7
 94  1 23 19 26  0.0010000  0  6 25 18 14 15 29 22
  22895067.310     8504582.579 6   6582324.090 7
  24428448.513    -2619996.566 5  -1358666.905 2
  20667076.450    -5518500.480 7  -4249846.592 8
  23208930.247     9439527.163 6   7306953.845 5
  22022616.606    -5006970.537 7  -3782459.489 7
  22248068.106    -8053966.407 6  -6147774.519 7
 94  1 23 19 26 30.0010000  0  6 25 18 14 15 29 22
  22912258.810     8594912.720 6   6652711.146 7
  24414648.075    -2692481.321 4  -1415148.484 3
  20661583.130    -5547359.513 7  -4272334.150 8
  23228059.458     9540058.664 5   7385290.022 5
  22015165.560    -5046120.555 7  -3812965.966 7
  22237663.411    -8108645.332 6  -6190381.405 7
 94  1 23 19 27  0.0010000  0  6 25 18 14 15 29 22
  22929472.185     8685381.054 6   6723205.873 7
  24400859.231    -2764952.398 5  -1471619.412 3
  20656173.614    -5575775.238 7  -4294476.270 8
  23247222.325     9640749.502 6   7463750.347 5
  22007739.614    -5085153.162 7  -3843380.957 7
  22227337.513    -8162909.706 6  -6232665.272 7
 94  1 23 19 27 30.0010000  0  6 25 18 14 15 29 22
  22946722.036     8776026.231 6   6793838.411 7
  24387081.552    -2837372.233 4  -1528050.410 2
  20650857.896    -5603726.675 7  -4316256.605 8
  23266417.341     9741631.880 6   7542359.917 5
  22000340.130    -5124047.173 7  -3873687.937 7
  22217096.841    -8216702.611 6  -6274581.769 7
 94  1 23 19 28  0.0010000  0  6 25 18 14 15 29 22
  22963996.950     8866810.138 6   6864579.042 7
  24373305.810    -2909760.324 5  -1584456.621 2
  20645617.981    -5631266.164 7  -4337715.945 8
  23285644.052     9842659.495 6   7621082.668 5
  21992952.880    -5162854.254 7  -3903927.187 7
  22206946.052    -8270061.500 6  -6316160.062 7
 94  1 23 19 28 30.0010000  0  6 25 18 14 15 29 22
  22981297.474     8957714.562 6   6935413.596 7
  24359534.981    -2982113.499 5  -1640835.651 1
  20640453.567    -5658387.030 7  -4358849.082 8
  23304896.896     9943828.292 6   7699915.420 5
  21985584.653    -5201591.097 7  -3934111.711 7
  22196874.122    -8322988.783 6  -6357402.039 7
 94  1 23 19 29  0.0010000  0  6 25 18 14 15 29 22
  22998619.669     9048754.923 6   7006354.067 6
  24345770.060    -3054461.839 5  -1697210.879 1
  20635372.341    -5685085.529 7  -4379653.107 8
  23324171.606    10045131.431 5   7778852.876 5
  21978222.919    -5240278.873 7  -3964257.996 7
  22186886.075    -8375486.390 6  -6398309.201 7
 94  1 23 19 29 30.0010000  0  6 25 18 14 15 29 22
  23015978.685     9139969.836 6   7077430.562 7
  24332002.731    -3126796.850 4  -1753575.764 1
  20630377.575    -5711336.520 7  -4400108.421 8
  23343477.153    10146584.094 5   7857906.829 5
  21970875.231    -5278884.945 7  -3994340.624 7
  22176980.903    -8427539.833 6  -6438870.256 7
 94  1 23 19 30  0.0010000  0  6 25 18 14 15 29 22
  23033371.419     9231371.859 6   7148652.849 7
  24318246.911    -3199103.561 4  -1809918.598 2
  20625477.083    -5737102.238 7  -4420185.594 8
  23362817.052    10248202.349 5   7937089.811 5
  21963550.263    -5317378.149 7  -4024335.310 7
  22167153.825    -8479137.330 6  -6479076.039 7
 94  1 23 19 30 30.0010000  0  6 25 18 14 15 29 22
  23050796.083     9322942.464 6   7220006.518 7
  24304482.575    -3271416.744 5  -1866266.480 2
  20620665.263    -5762389.881 7  -4439890.241 8
  23382179.247    10349961.760 5   8016382.788 5
  21956244.942    -5355777.045 7  -4054256.501 7
  22157421.278    -8530304.236 6  -6518946.292 7
 94  1 23 19 31  0.0010000  0  6 25 18 14 15 29 22
  23068253.372     9414672.525 6   7291484.420 7
  24290719.138    -3343741.689 5  -1922623.528 1
  20615940.341    -5787223.655 7  -4459241.221 8
  23401567.099    10451841.055 5   8095769.162 5
  21948950.388    -5394090.565 7  -4084111.174 7
  22147767.185    -8581058.093 6  -6558494.696 7
 94  1 23 19 31 30.0010000  0  6 25 18 14 15 29 22
  23085742.044     9506588.842 6   7363107.469 6
  24276965.325    -3416023.712 4
  20611304.895    -5811578.063 7  -4478218.675 8
  23420983.646    10553873.489 5   8175274.870 5
  21941683.778    -5432273.707 7  -4113864.249 8
  22138191.231    -8631368.831 6  -6597697.798 7
 94  1 23 19 32  0.0010000  0  6 25 18 14 15 29 22
  23103260.396     9598644.975 6   7434839.480 6
  24263216.771    -3488284.469 4
  20606755.349    -5835487.663 7  -4496849.524 8
  23440423.075    10656023.667 5   8254872.344 5
  21934438.302    -5470362.636 7  -4143543.911 7
  22128695.278    -8681272.253 6  -6636583.527 7
 94  1 23 19 32 30.0010000  0  6 25 18 14 15 29 22
  23120812.075     9690877.208 6   7506708.704 6
  24249477.505    -3560473.385 3        -0.20611
  20602295.396    -5858914.631 7  -4515104.297 8
  23459889.903    10758326.729 5   8334588.945 5
  21927215.981    -5508315.407 7  -4173117.484 8
  22119284.849    -8730725.843 6  -6675118.750 7
 94  1 23 19 33  0.0010000  0  6 25 18 14 15 29 22
  23138389.919     9783241.237 6   7578680.635 6
  24235744.888    -3632624.469 3    -56221.781 1
  20597924.192    -5881892.163 7  -4533008.859 8
  23479378.224    10860744.549 5   8414394.964 5
  21920011.435    -5546168.709 7  -4202613.550 8
  22109954.700    -8779754.180 6  -6713322.607 7
 94  1 23 19 33 30.0010000  0  6 25 18 14 15 29 22
  23155985.755     9875716.078 6   7650738.916 6
  24222019.450    -3704763.533 3   -112433.972 1
  20593640.583    -5904411.101 7  -4550556.075 8
  23498890.669    10963264.630 5   8494280.661 5
  21912824.466    -5583932.121 7  -4232039.568 8
  22100703.630    -8828361.348 6  -6751198.282 7
 94  1 23 19 34  0.0010000  0  6 25 18 14 15 29 22
  23173606.513     9968301.372 6   7722883.274 6
  24208297.356    -3776892.240 3   -168638.047 1
  20589446.036    -5926450.553 7  -4567729.666 8
  23518417.036    11065892.243 5   8574250.150 5
  21905658.950    -5621601.879 7  -4261392.604 8
  22091541.661    -8876515.243 6  -6788720.765 7
 94  1 23 19 34 30.0010000  0  6 25 18 14 15 29 22
  23191246.458    10061012.936 6   7795126.010 6
  24194569.935    -3849023.593 4   -224844.249 2
  20585343.138    -5948010.682 7  -4584529.753 8
  23537968.536    11168629.972 5   8654305.449 5
  21898509.255    -5659179.446 7  -4290673.812 8
  22082463.685    -8924194.587 6  -6825873.481 7
 94  1 23 19 35  0.0010000  0  6 25 18 14 15 29 22
  23208911.192    10153835.502 6   7867455.245 6
  24180836.239    -3921172.096 4   -281063.816 2
  20581326.606    -5969111.056 7  -4600971.594 8
  23557535.724    11271468.527 5   8734439.310 5
  21891372.091    -5696681.546 7  -4319896.205 8
  22073485.380    -8971398.949 6  -6862656.079 7
 94  1 23 19 35 30.0010000  0  6 25 18 14 15 29 22
  23226594.903    10246767.501 6   7939869.757 6
  24167108.380    -3993327.103 5   -337288.445 4
  20577398.364    -5989763.720 7  -4617064.568 8
  23577126.005    11374410.678 5   8814653.889 5
  21884251.192    -5734094.928 7  -4349049.474 8
  22064593.419    -9018124.777 6  -6899065.801 7
 94  1 23 19 36  0.0010000  0  6 25 18 14 15 29 22
  23244305.317    10339834.919 6   8012389.781 6
  24153379.036    -4065471.014 5   -393504.472 4
  20573547.700    -6009982.602 7  -4632819.539 8
  23596737.849    11477468.497 5   8894958.605 5
  21877153.271    -5771416.519 7  -4378131.213 8
  22055792.763    -9064366.303 6  -6935098.152 7
 94  1 23 19 36 30.0010000  0  6 25 18 14 15 29 22
  23262040.661    10433029.675 6   8085009.022 6
  24139656.435    -4137589.030 5   -449700.289 4
  20569785.395    -6029754.198 7  -4648225.961 8
  23616373.130    11580644.738 5   8975355.584 4
  21870065.216    -5808641.569 7  -4407137.730 8
  22047085.833    -9110134.182 6  -6970761.423 7
 94  1 23 19 37  0.0010000  0  6 25 18 14 15 29 22
  23279788.489    10526307.651 6   8157693.114 6
  24125937.177    -4209694.149 5   -505886.071 5
  20566105.888    -6049081.105 7  -4663285.881 8
  23636023.614    11683911.515 5   9055823.112 5
  21862999.325    -5845792.101 7  -4436086.172 8
  22038455.981    -9155463.751 6  -7006083.165 7
 94  1 23 19 37 30.0010000  0  6 25 18 14 15 29 22
  23297557.263    10619680.094 6   8230450.820 6
  24112221.755    -4281777.105 5   -562054.592 4
  20562520.794    -6067943.401 7  -4677983.769 8
  23655691.114    11787266.739 5   9136359.574 4
  21855942.216    -5882857.542 7  -4464968.315 8
  22029913.849    -9200364.583 6  -7041070.822 7
 94  1 23 19 38  0.0010000  0  6 25 18 14 15 29 22
  23315343.849    10713127.386 6   8303266.857 6
  24098500.255    -4353864.318 5   -618226.431 5
  20559018.481    -6086338.062 7  -4692317.265 8
  23675373.427    11890681.941 5   9216942.748 5
  21848902.786    -5919861.719 7  -4493802.720 8
  22021449.880    -9244847.370 6  -7075732.730 7
 94  1 23 19 38 30.0010000  0  6 25 18 14 15 29 22
  23333140.724    10806674.836 6   8376160.931 6
  24084788.786    -4425905.194 5   -674362.175 5
  20555617.028    -6104202.602 7  -4706237.673 8
  23695068.021    11994191.162 5   9297599.208 5
  21841882.989    -5956745.427 7  -4522543.252 8
  22013076.997    -9288856.061 6  -7110025.208 7
 94  1 23 19 39  0.0010000  0  6 25 18 14 15 29 22
  23350961.716    10900324.003 6   8449134.264 6
  24071087.317    -4497914.050 5   -730472.994 5
  20552315.677    -6121572.055 7  -4719772.306 8
  23714775.856    12097766.956 5   9378307.522 5
  21834886.114    -5993519.582 7  -4551198.412 8
  22004786.536    -9332406.234 7  -7143960.401 7
 94  1 23 19 39 30.0010000  0  6 25 18 14 15 29 22
  23368809.497    10994108.059 6   8522212.702 6
  24057394.606    -4569881.879 5   -786551.837 5
  20549105.380    -6138440.379 7  -4732916.442 8
  23734504.474    12201427.158 5   9459081.630 5
  21827909.075    -6030162.992 7  -4579751.680 8
  21996594.411    -9375463.687 7  -7177511.647 7
 94  1 23 19 40  0.0010000  0  6 25 18 14 15 29 22
  23386673.685    11087991.175 6   8595368.326 6
  24043697.091    -4641845.407 5   -842627.306 5
  20545985.208    -6154838.905 7  -4745694.505 8
  23754239.317    12305142.122 5   9539898.397 5
  21820955.349    -6066715.843 7  -4608234.408 8
  21988490.286    -9418037.019 6  -7210685.657 7
 94  1 23 19 40 30.0010000  0  6 25 18 14 15 29 22
  23404556.747    11181973.496 6   8668601.265 6
  24030005.974    -4713796.077 5   -898692.780 5
  20542947.825    -6170781.333 7  -4758117.164 8
  23773987.458    12408910.501 5   9620756.744 5
  21814015.544    -6103189.488 7  -4636655.417 8
  21980481.802    -9460138.746 6  -7243492.166 7
 94  1 23 19 41  0.0010000  0  6 25 18 14 15 29 22
  23422464.591    11276062.013 6   8741916.948 6
  24016315.091    -4785764.901 5   -954772.373 5
  20540003.786    -6186277.629 7  -4770192.197 8
  23793742.583    12512723.358 5   9701649.805 4
  21807086.021    -6139601.757 7  -4665028.591 8
  21972557.145    -9501778.990 7  -7275939.078 7
 94  1 23 19 41 30.0010000  0  6 25 18 14 15 29 22
  23440385.192    11370244.296 6   8815305.698 6
  24002610.442    -4857769.571 5  -1010879.931 5
  20537138.911    -6201324.263 7  -4781916.829 8
  23813504.474    12616579.805 5   9782576.812 4
  21800165.177    -6175966.488 7  -4693364.731 8
  21964721.122    -9542956.228 6  -7308025.197 7
 94  1 23 19 42 30.0010000  0  4 25 14 15 29
  23476891.653       97176.552 6        -0.23716
  20532278.435          -0.27717
  23853664.919      106758.640 5
  21786972.896      -33411.785 7
 94  1 23 19 43  0.0010000  0  6 25 18 14 15 29 22
  23495414.427      194518.206 6     75850.345 6
  23962636.888          -0.57915
  20530228.396      -10782.341 7        -0.30818
  23874002.411      213639.463 5        -0.46815
  21780646.544      -66649.332 7        -0.01318
  21942892.489          -0.00917
 94  1 23 19 43 30.0010000  0  6 25 18 14 15 29 22
  23513958.341      291981.917 6    151796.030 6
  23949480.278      -69133.317 5
  20528274.638      -21043.736 7     -7996.191 8
  23894361.864      320618.784 5     83359.951 5
  21774352.021      -99731.516 7    -25778.327 8
  21935970.653      -36380.014 7        -0.41617
 94  1 23 19 44  0.0010000  0  6 25 18 14 15 29 22
  23532535.536      389582.993 6    227848.741 6
  23936338.153     -138181.447 5        -0.43212
  20526428.356      -30747.930 7    -15557.891 8
  23914741.458      427710.449 5    166807.894 5
  21768092.919     -132629.853 7    -51413.380 8
  21929150.161      -72204.453 7    -27915.515 7
 94  1 23 19 44 30.0010000  0  6 25 18 14 15 29 22
  23551126.825      487300.869 6    303992.484 6
  23923218.880     -207160.370 5    -53750.171 4
  20524689.106      -39902.027 7    -22690.943 8
  23935137.856      534889.172 5    250323.678 5
  21761858.278     -165371.373 7    -76926.248 8
  21922437.505     -107478.632 7    -55401.838 7
 94  1 23 19 45  0.0010000  0  6 25 18 14 15 29 22
  23569739.192      585098.309 6    380198.228 5
  23910094.731     -276104.120 5   -107472.528 3
  20523041.231      -48545.044 7    -29425.751 8
  23955537.708      642113.533 5    333875.029 5
  21755653.646     -198000.764 7   -102351.740 8
  21915824.935     -142237.520 7    -82486.641 7
 94  1 23 19 45 30.0010000  0  6 25 18 14 15 29 22
  23588363.771      682988.693 6    456476.396 6
  23896985.083     -344997.370 5   -161155.516 4
  20521497.927      -56649.852 7    -35741.179 8
  23975955.552      749393.612 5    417469.799 4
  21749466.677     -230510.000 7   -127683.597 8
  21909309.435     -176468.406 7   -109160.010 7
 94  1 23 19 46  0.0010000  0  6 25 18 14 15 29 22
  23607016.317      780973.004 6    532827.776 6
  23883880.099     -413867.594 5   -214820.551 2
  20520059.302      -64209.515 7    -41631.819 8
  23996378.771      856717.354 5    501098.596 5
  21743302.903     -262902.130 7   -152924.204 9
  21902894.310     -210179.850 7   -135428.617 7
 94  1 23 19 46 30.0010000  0  6 25 18 14 15 29 22
  23625680.661      879064.015 6    609262.287 6
  23870774.106     -482709.613 5   -268463.608 1
  20518727.278      -71228.636 7    -47101.250 8
  24016813.950      964097.418 5    584771.273 4
  21737159.825     -295162.792 7   -178062.373 8
  21896580.833     -243355.995 7   -161280.111 7
 94  1 23 19 47  0.0010000  0  6 25 18 14 15 29 22
  23644368.286      977265.010 6    685782.496 6
  23857681.153     -551531.175 5   -322090.731 2
  20517491.864      -77709.720 7    -52151.442 8
  24037257.067     1071534.257 5    668488.187 5
  21731051.388     -327289.698 7   -203096.314 8
  21890366.317     -276004.372 7   -186720.365 7
 94  1 23 19 47 30.0010000  0  6 25 18 14 15 29 22
  23663077.669     1075574.930 6    762387.582 6
  23844595.786     -620310.026 4   -375684.581 2
  20516359.849      -83651.564 7    -56781.447 8
  24057714.286     1179027.552 5    752249.104 5
  21724962.747     -359284.286 7
  21884255.310     -308128.409 7
 94  1 23 19 48  0.0010000  0  6 25 18 14 15 29 22
  23681798.427     1173989.596 5    839074.275 6
  23831515.685     -689039.877 5   -429240.244 3
  20515331.630      -89069.892 7    -61003.522 8
  24078176.177     1286575.960 5    836052.955 5
  21718898.466     -391144.246 7   -252853.078 9
  21878240.091     -339724.939 7   -236372.668 7
 94  1 23 19 48 30.0010000  0  6 25 18 14 15 29 22
  23700545.028     1272490.571 5    915828.219 6
  23818445.067     -757728.087 5   -482763.467 2
  20514390.153      -94015.832 7    -64857.502 8
  24098646.591     1394153.848 5    919879.757 5
  21712852.888     -422895.037 7   -277593.943 9
  21872328.708     -370820.732 7   -260603.124 7
 94  1 23 19 49  0.0010000  0  6 25 18 14 15 29 22
  23719306.802     1371088.215 5    992657.483 6
  23805387.349     -826355.651 5   -536239.428 3
  20513540.677      -98479.470 7    -68335.659 8
  24119128.060     1501762.528 5   1003730.564 5
  21706834.036     -454542.941 7   -302254.631 9
  21866502.731     -401408.326 7   -284437.580 7
 94  1 23 19 49 30.0010000  0  6 25 18 14 15 29 22
  23738087.599     1469773.514 5   1069555.064 6
  23792342.888     -894915.027 5   -589662.270 3
  20512781.036     -102455.318 7    -71433.725 8
  24139613.521     1609403.901 5   1087606.850 5
  21700833.302     -486083.443 7   -326831.621 9
  21860780.411     -431470.628 7   -307862.721 7
 94  1 23 19 50  0.0010000  0  6 25 18 14 15 29 22
  23756882.903     1568547.475 5   1146521.737 5
  23779303.208     -963428.953 5   -643049.697 4
  20512118.239     -105939.446 7    -74148.632 8
  24160100.099     1717080.547 5   1171510.617 4
  21694848.700     -517506.784 7   -351317.318 9
  21855170.497     -460981.211 7   -330857.936 7
 94  1 23 19 50 30.0010000  0  6 25 18 14 15 29 22
  23775703.372     1667426.580 6   1223570.355 5
  23766276.317    -1031875.382 5   -696384.506 2
  20511555.435     -108907.830 7    -76461.660 7
  24180600.747     1824804.366 4   1255451.149 4
  21688899.161     -548799.075 7   -375700.900 9
  21849663.224     -489923.949 7   -353410.691 8
 94  1 23 19 51  0.0010000  0  6 25 18 14 15 29 22
  23794530.567     1766372.791 6   1300671.274 5
  23753262.247    -1100270.758 5   -749679.536 2
  20511090.810     -111341.982 7    -78358.403 8
  24201104.685     1932559.690 5   1339416.248 3
  21682961.942     -579976.834 7   -399995.238 9
  21844265.075     -518308.315 7   -375528.346 8
 94  1 23 19 51 30.0010000  0  6 25 18 14 15 29 22
  23813366.817     1865370.086 6   1377811.984 5
  23740251.239    -1168651.361 5   -802963.076 3
  20510729.247     -113238.737 7    -79836.394 8
  24221615.146     2040330.540 4   1423393.423 3
  21677052.052     -611037.595 7   -424198.417 9
  21838966.622     -546148.164 7   -397221.693 7
 94  1 23 19 52  0.0010000  0  6 25 18 14 15 29 22
  23832217.771     1964428.831 5   1455000.570 6
  23727239.692    -1237020.502 5   -856237.687 2
  20510472.458     -114593.839 7    -80892.323 7
  24242121.114     2148110.218 4   1507377.504 3
  21671165.896     -641973.469 7   -448304.268 9
  21833767.544     -573453.119 7   -418498.248 7
 94  1 23 19 52 30.0010000  0  6 25 18 14 15 29 22
  23851080.388     2063552.117 5   1532239.430 6
  23714231.044    -1305365.287 5   -909493.292 2
  20510320.513     -115389.400 7    -81512.239 7
  24262633.536     2255897.766 4   1591367.673 3
  21665306.310     -672780.009 7   -472309.341 9
  21828670.333     -600234.639 7   -439366.920 8
 94  1 23 19 53  0.0010000  0  6 25 18 14 15 29 22
  23869956.450     2162752.278 5   1609538.184 6
  23701229.411    -1373695.682 5   -962737.673 4
  20510279.919     -115610.995 7
  24283146.489     2363696.344 4   1675366.456 4
  21659467.513     -703447.722 7   -496206.240 9
  21823677.575     -626481.089 7   -459818.657 7
 94  1 23 19 53 30.0010000  0  6 25 18 14 15 29 22
  23888849.294     2262036.970 5   1686902.806 6
  23688226.958    -1442011.630 5  -1015970.800 4
  20510343.052     -115291.106 7
  24303661.349     2471495.205 4   1759365.460 4
  21653660.216     -733985.728 7   -520002.062 9
  21818783.419     -652185.377 7   -479847.925 8
 94  1 23 19 54  0.0010000  0  6 25 18 14 15 29 22
  23907756.653     2361389.561 5   1764320.322 6
  23675238.755    -1510284.052 5  -1069170.029 5
  20510500.161     -114438.552 7    -80771.318 7
  24324173.521     2579295.106 4   1843365.281 4
  21647871.497     -764399.781 7   -543701.306 9
  21813997.645     -677332.885 7   -499443.338 8
 94  1 23 19 54 30.0010000  0  6 25 18 14 15 29 22
  23926675.591     2460814.170 5   1841793.962 6
  23662257.677    -1578497.771 5  -1122323.499 4
  20510764.239     -113046.347 7    -79686.487 7
  24344689.583     2687097.681 4   1927367.165 4
  21642106.349     -794694.874 7   -567307.842 9
  21809321.536     -701912.760 7   -518596.436 8
 94  1 23 19 55  0.0010000  0  6 25 18 14 15 29 22
  23945616.224     2560319.769 6   1919330.713 6
  23649288.403    -1646646.446 5  -1175426.307 5
  20511131.786     -111120.674 7    -78185.959 7
  24365201.520     2794901.749 4   2011370.212 4
  21636362.396     -824871.670 7   -590822.205 9
  21804757.224     -725914.148 7   -537298.760 8
 94  1 23 19 55 30.0010000  0  6 25 18 14 15 29 22
  23964559.075     2659891.426 6   1996918.947 6
  23636335.778    -1714724.596 5  -1228474.133 5
  20511599.028     -108680.343 7    -76284.399 7
  24385714.927     2902699.698 4   2095368.505 1
  21630642.200     -854925.768 7   -614240.954 9
  21800295.536     -749344.824 7   -555556.367 8
 94  1 23 19 56  0.0010000  0  6 25 18 14 15 29 22
  23983522.419     2759532.189 6   2074561.036 6
  23623390.583    -1782750.030 5  -1281480.884 5
  20512165.442     -105700.403 7    -73962.366 7
  24406230.505     3010489.805 4   2179360.688 2
  21624953.880     -884835.479 7   -637547.205 9
  21795942.528     -772221.245 7   -573382.092 8
 94  1 23 19 56 30.0010000  0  6 25 18 14 15 29 22
  24002502.786     2859268.119 6   2152277.295 6
  23610455.560    -1850720.708 5  -1334444.998 5
  20512839.716     -102169.360 7    -71210.897 7
  24426743.591     3118282.517 5   2263354.903 2
  21619287.442     -914583.711 7   -660727.632 9
  21791696.052     -794546.096 7   -590778.019 8
 94  1 23 19 57  0.0010000  0  6 25 18 14 15 29 22
  24021491.317     2959062.308 5   2230038.943 5
  23597530.466    -1918649.983 5  -1387376.844 5
  20513608.380      -98118.301 7    -68054.222 7
  24447250.591     3226057.982 5   2347335.680 4
  21613653.567     -944187.154 7   -683795.230 9
  21787550.896     -816334.854 7   -607756.212 8
 94  1 23 19 57 30.0010000  0  6 25 18 14 15 29 22
  24040489.302     3058905.877 5   2307839.092 5
  23584609.419    -1986531.862 5  -1440271.774 5
  20514482.778      -93531.010 7    -64479.703 7
  24467760.708     3333825.547 5   2431310.300 4
  21608054.427     -973633.228 7   -706740.205 9
  21783506.442     -837576.287 7   -624307.915 8
 94  1 23 19 58  0.0010000  0  6 25 18 14 15 29 22
  24059499.130     3158796.791 5   2385676.134 5
  23571699.966    -2054370.886 5  -1493133.280 5
  20515459.450      -88395.449 7    -60477.953 7
  24488265.333     3441576.618 4   2515272.059 4
  21602474.356    -1002946.751 7   -729581.896 9
  21779567.911     -858270.551 7   -640433.256 8
 94  1 23 19 58 30.0010000  0  7 25 18 14 15 29 22 19
  24078518.724     3258727.982 5   2463544.540 5
  23558801.849    -2122153.793 5  -1545951.109 5
  20516539.646      -82724.703 7    -56059.180 7
  24508764.739     3549306.560 4   2599217.334 4
  21596913.364    -1032154.657 7   -752341.291 9
  21775736.661     -878407.478 7   -656124.307 8
  25042938.458      -88149.133 3
 94  1 23 19 59  0.0010000  0  7 25 18 14 15 29 22 19
  24097541.630     3358701.506 5   2541445.933 5
  23545911.810    -2189890.492 5  -1598732.918 5
  20517718.966      -76514.593 7    -51220.130 7
  24529255.903     3657007.688 3   2683140.168 4
  21591375.388    -1061263.016 7   -775023.116 9
  21772014.919     -897975.052 7   -671371.708 8
  25026186.153     -176178.425 2        -0.23412
 94  1 23 19 59 30.0010000  0  7 25 18 14 15 29 22 19
  24116575.192     3458731.633 5   2619391.426 5
  23533028.099    -2257595.528 5  -1651490.044 5
  20519006.028      -69748.986 7    -45948.223 7
  24549751.536     3764679.306 3   2767040.005 3
  21585861.192    -1090261.336 7   -797619.198 9
  21768399.325     -916967.115 7   -686170.663 8
  25009460.216                          -0.23913
 94  1 23 20  0  0.0010000  0  7 25 18 14 15 29 22 19
  24135618.216     3558822.633 5   2697384.365 5
  23520152.458    -2325263.423 5  -1704218.227 5
  20520397.700      -62445.544 7    -40257.218 7
  24570229.958     3872312.025 3   2850909.546 3
  21580363.489    -1119152.643 7   -820131.887 9
  21764888.864     -935391.702 7   -700527.427 8
  24992752.177      -87774.826 3        -0.05512
 94  1 23 20  0 30.0010000  0  7 25 18 14 15 29 22 19
  24154681.114     3658975.257 5   2775425.316 5
  23507281.810    -2392891.598 5  -1756915.467 5
  20521883.630      -54617.301 7    -34157.279 7
  24590702.685     3979912.610 3   2934754.025 4
  21574891.778    -1147913.933 7   -842543.266 9
  21761492.646     -953242.890 7   -714437.394 8
  24976072.638     -175390.121 2    -68271.595 1
 94  1 23 20  1  0.0010000  0  7 25 18 14 15 29 22 19
  24173749.341     3759178.967 5   2853506.088 5
  23494419.388    -2460485.369 5  -1809585.900 5
  20523473.419      -46264.822 7    -27648.851 7
  24611176.161     4087478.353 4   3018571.379 3
  21569443.716    -1176531.655 7   -864842.774 9
  21758210.302     -970519.622 7   -727899.734 8
  24959434.778     -262843.805 3   -136417.207 2
 94  1 23 20  1 30.0010000  0  7 25 18 14 15 29 22 19
  24192821.544     3859402.658 5   2931602.423 5
  23481564.380    -2528047.539 5  -1862231.723 5
  20525162.856      -37403.487 7    -20743.912 7
  24631633.638     4194994.686 3   3102350.213 3
  21564024.161    -1205013.693 7   -887036.548 9
  21755020.653     -987248.293 7   -740935.014 8
  24942826.989     -350143.268 3   -204442.619 2
 94  1 23 20  2  0.0010000  0  7 25 18 14 15 29 22 19
  24211891.372     3959646.394 5   3009714.367 5
  23468715.567    -2595567.745 5  -1914844.832 5
  20526945.169      -28025.559 7    -13436.433 7
  24652086.403     4302464.218 3   3186092.580 3
  21558629.536    -1233362.146 7   -909126.224 9
  21751943.716    -1003436.259 7   -753548.969 8
  24926245.177     -437281.342 3   -272342.267 2
 94  1 23 20  2 30.0010000  0  7 25 18 14 15 29 22 19
  24230969.888     4059900.314 5   3087834.257 5
  23455873.270    -2663060.229 5  -1967436.333 5
  20528835.622      -18105.405 7     -5706.441 7
  24672524.606     4409877.486 3   3269791.084 3
  21553258.169    -1261585.491 7   -931118.416 9
  21748964.231    -1019085.057 7   -765742.797 8
  24909694.481     -524258.078 3   -340116.223 3
 94  1 23 20  3  0.0010000  0  7 25 18 14 15 29 22 19
  24250057.208     4160187.629 5   3165980.169 5
  23443038.700    -2730494.933 5  -2019982.799 5
  20530836.224       -7592.178 7      2485.689 7
  24692958.208     4517254.660 3   3353461.501 3
  21547911.974    -1289662.541 7   -952996.610 9
  21746097.567    -1034163.073 7   -777491.857 8
  24893170.317     -611068.807 3   -407760.833 3
 94  1 23 20  3 30.0010000  0  7 25 18 14 15 29 22 19
  24269147.685     4260488.907 5   3244136.974 5
  23430214.513    -2797891.670 5  -2072499.699 5
  20532942.856        3504.683 7     11132.596 7
  24713379.528     4624572.221 3   3437085.449 3
  21542594.270    -1317615.778 7   -974778.323 9
  21743334.075    -1048694.714 7   -788815.165 8
  24876681.911     -697730.100 3   -475289.016 4
 94  1 23 20  4  0.0010000  0  7 25 18 14 15 29 22 19
  24288234.021     4360801.140 5   3322302.303 5
  23417392.521    -2865269.122 5  -2125001.565 5
  20535168.778       15173.597 7     20225.257 7
  24733785.419     4731813.339 3   3520649.841 3
  21537295.903    -1345460.716 7   -996475.642 9
  21740670.856    -1062671.593 7   -799706.191 8
  24860219.872     -784252.939 3   -542709.324 2
 94  1 23 20  4 30.0010000  0  7 25 18 14 15 29 22 19
  24307331.833     4461165.116 5   3400507.949 4
  23404579.856    -2932581.572 5  -2177452.772 5
  20537501.341       27440.562 7     29783.928 7
  24754187.356     4839016.455 3   3604184.576 3
  21532024.599    -1373151.452 7  -1018052.807 9
  21738128.388    -1076037.625 7   -810121.236 8
  24843785.653     -870601.906 3   -609994.151 3
 94  1 23 20  5  0.0010000  0  7 25 18 14 15 29 22 19
  24326438.685     4561565.050 5   3478741.608 5
  23391782.356    -2999840.170 5  -2229862.009 5
  20539940.333       40264.951 7     39776.962 7
  24774576.325     4946163.846 3   3687675.910 2
  21526787.888    -1400692.246 7  -1039513.141 9
  21735698.356    -1088811.642 7   -820074.962 8
  24827381.833     -956802.294 3   -677163.234 3
 94  1 23 20  5 30.0010000  0  7 25 18 14 15 29 22 19
  24345550.974     4661999.488 5   3557002.181 4
  23378998.247    -3067046.817 5  -2282230.768 5
  20542484.481       53626.134 7     50188.268 7
  24794952.513     5053244.887 3   3771115.527 2
  21521575.888    -1428083.891 7  -1060857.250 9
  21733373.739    -1101006.205 7   -829577.167 8
  24811008.513    -1042855.480 3   -744217.644 4
 94  1 23 20  6  0.0010000  0  7 25 18 14 15 29 22 19
  24364674.372     4762484.128 5   3635301.834 5
  23366216.724    -3134188.781 5  -2334549.128 5
  20545124.763       67522.429 7     61016.548 7
  24815319.349     5160262.387 4   3854505.653 2
  21516391.591    -1455320.081 7  -1082080.219 9
  21731169.966    -1112610.483 7   -838619.404 8
  24794658.177    -1128766.134 3   -811160.987 3
 94  1 23 20  6 30.0010000  0  7 25 18 14 15 29 22 19
  24383801.552     4863028.139 5   3713647.780 5
  23353459.536    -3201251.058 5  -2386805.391 5
  20547879.091       81975.876 7     72278.978 7
  24835673.903     5267225.994 3   3937853.769 2
  21511241.286    -1482378.872 7  -1103164.963 9
  21729072.950    -1123621.506 7   -847199.354 8
  24778341.013    -1214527.014 3   -877987.657 2
 94  1 23 20  7  0.0010000  0  7 25 18 14 15 29 22 19
  24402943.247     4963607.211 5   3792021.036 5
  23340708.997    -3268250.853 5  -2439012.935 5
  20550732.669       96988.359 7     83977.017 7
  24856012.271     5374117.865 3   4021146.002 2
  21506122.263    -1509272.463 7  -1124120.985 9
  21727088.927    -1134051.848 7   -855326.833 8
  24762039.724    -1300151.514 3   -944708.066 3
 94  1 23 20  7 30.0010000  0  7 25 18 14 15 29 22 19
  24422086.427     5064209.467 5   3870412.369 5
  23327965.825    -3335201.652 5  -2491182.329 5
  20553700.552      112558.613 7     96109.685 7
  24876343.341     5480928.022 3   4104374.574 2
  21501033.106    -1536019.216 7  -1144962.591 9
  21725212.872    -1143900.070 7   -863000.712 8
  24745777.716    -1385630.687 3  -1011315.233 2
 94  1 23 20  8  0.0010000  0  7 25 18 14 15 29 22 19
  24441236.677     5164836.215 5   3948822.759 6
  23315237.263    -3402101.543 5  -2543312.047 5
  20556769.200      128703.439 7    108690.068 7
  24896650.231     5587663.280 3   4187544.739 1
  21495970.060    -1562613.465 7  -1165685.358 9
  21723458.419    -1153149.382 7   -870207.910 8
  24729545.622    -1470948.338 3  -1077796.554 2
 94  1 23 20  8 30.0010000  0  7 25 18 14 15 29 22 19
  24460387.833     5265483.893 5   4027249.461 6
  23302516.247    -3468943.946 5  -2595396.959 5
  20559955.544      145433.119 7    121726.178 7
  24916949.614     5694333.322 3   4270664.081 3
  21490946.786    -1589038.952 7  -1186276.629 9
  21721807.888    -1161785.263 7   -876937.109 8
  24713343.841    -1556078.899 3  -1144132.091 2
 94  1 23 20  9  0.0010000  0  7 25 18 14 15 29 22 19
  24479540.114     5366133.692 5   4105677.826 6
  23289803.560    -3535752.042 6  -2647455.141 5
  20563239.778      162709.083 7    135187.973 7
  24937232.919     5800914.430 3   4353714.144 2
  21485943.419    -1615330.944 7  -1206763.877 9
  21720280.927    -1169826.775 7   -883203.172 8
  24697175.013    -1641035.911 3  -1210332.393 2
 94  1 23 20  9 30.0010000  0  7 25 18 14 15 29 22 19
  24498698.599     5466803.781 5   4184121.979 6
  23277098.020    -3602521.977 6  -2699483.575 5
  20566634.544      180531.289 7    149075.411 7
  24957500.997     5907409.205 3   4436696.958 1
  21480964.794    -1641495.553 7  -1227151.868 9
  21718860.411    -1177278.312 7   -889009.517 8
  24681044.739    -1725807.980 3  -1276388.598 1
 94  1 23 20 10  0.0010000  0  7 25 18 14 15 29 22 19
  24517860.755     5567497.007 5   4262584.166 6
  23264401.153    -3669250.035 6  -2751479.402 5
  20570125.356      198884.883 7    163376.907 8
  24977749.356     6013812.720 3   4519608.632 1
  21476007.646    -1667533.880 7  -1247441.461 9
  21717557.067    -1184151.897 7   -894365.503 8
  24664945.153    -1810415.835 3  -1342316.841 2
 94  1 23 20 10 30.0010000  0  7 25 18 14 15 29 22 19
  24537026.231     5668215.032 4   4341065.666 6
  23251708.177    -3735931.051 6  -2803438.561 5
  20573717.044      217765.336 7    178088.957 7
  24997974.747     6120124.299 3   4602448.648 2
  21471075.739    -1693450.502 7  -1267636.221 9
  21716358.005    -1190445.097 7   -899269.270 8
  24648870.692    -1894857.333 3  -1408115.483 1
 94  1 23 20 11  0.0010000  0  8 25 18 14 15 29 22 19  4
  24556199.278     5768956.442 3   4419565.376 5
  23239027.880    -3802561.577 6  -2855358.380 5
  20577415.200      237178.565 7    193216.147 8
  25018185.997     6226334.592 3   4685209.801 2
  21466164.067    -1719256.594 7  -1287744.851 9
  21715265.755    -1196167.975 7   -903728.618 8
  24632838.356    -1979141.718 3  -1473791.649 1
  25182459.521          -0.48713
 94  1 23 20 11 30.0010000  0  8 25 18 14 15 29 22 19  4
  24575365.966     5869714.939 3   4498078.384 5
  23226368.216    -3869114.303 6  -2907217.580 5
  20581210.192      257135.685 7    208767.146 8
  25038380.356     6332448.384 3   4767895.713 2
  21461278.060    -1744939.811 7  -1307757.738 9
  21714289.302    -1201317.051 7   -907740.863 8
  24616829.458    -2063267.200 4  -1539344.051 2
  25177725.958      -24848.981 3
 94  1 23 20 12  0.0010000  0  8 25 18 14 15 29 22 19  4
  24594543.560     5970477.173 3   4576594.322 5
  23213718.474    -3935579.699 6  -2959008.748 5
  20585110.208      277636.876 7    224742.099 8
  25058556.052     6438458.569 3   4850500.906 1
  21456416.739    -1770489.057 7  -1327666.225 9
  21713420.138    -1205881.797 7   -911297.777 8
  24600850.716    -2147236.500 3  -1604774.745 2
  25173088.427      -49236.207 3
 94  1 23 20 12 30.0010000  0  8 25 18 14 15 29 22 19  4
  24613720.310     6071239.841 4   4655110.604 5
  23201087.989    -4001960.366 6  -3010733.890 5
  20589122.544      298709.556 7    241162.376 8
  25078704.380     6544364.389 3   4933024.748 1
  21451582.489    -1795901.332 7  -1347467.987 9
  21712660.263    -1209849.626 7   -914389.567 8
  24584904.380    -2231027.456 4  -1670066.458 3
  25168534.833      -73158.179 3
 94  1 23 20 13  0.0010000  0  8 25 18 14 15 29 22 19  4
  24632894.794     6172014.262 4   4733636.043 5
  23188471.903    -4068251.300 6  -3062389.111 5
  20593242.263      320354.463 7    258028.536 8
  25098839.286     6650173.911 3   5015473.579 1
  21446772.208    -1821157.182 7  -1367147.853 9
  21712021.200    -1213219.872 7   -917015.704 8
  24568997.489    -2314631.375 4  -1735212.461 2
  25164073.942      -96592.526 3
 94  1 23 20 13 30.0010000  0  8 25 18 14 15 29 22 19  4
  24652071.567     6272785.737 5   4812159.221 4
  23175867.028    -4134482.743 6  -3113997.991 5
  20597465.427      342551.117 7    275324.632 8
  25118957.567     6755873.371 3   5097836.668 1
  21441999.106    -1846260.058 7  -1386708.529 9
  21711496.278    -1215996.684 7   -919179.427 8
  24553117.364    -2398065.689 4  -1800226.311 3
  25159713.528     -119527.604 3        -0.25811
 94  1 23 20 14  0.0010000  0  8 25 18 14 15 29 22 19  4
  24671251.380     6373567.238 5   4890690.225 4
  23163270.060    -4200683.285 6  -3165582.766 5
  20601795.208      365315.527 7    293063.125 8
  25139048.497     6861461.281 3   5180112.786 2
  21437249.880    -1871204.536 7  -1406145.774 9
  21711082.927    -1218172.923 7   -920875.163 8
  24537276.349    -2481324.559 4  -1865103.453 3
  25155442.700     -141957.535 3    -17478.102 1
 94  1 23 20 14 30.0010000  0  8 25 18 14 15 29 22 19  4
  24690432.841     6474354.014 5   4969225.347 2
  23150675.997    -4266867.693 6  -3217154.988 5
  20606233.130      388638.164 7    311236.608 8
  25159121.896     6966934.844 3   5262299.791 2
  21432533.255    -1895992.675 7  -1425461.197 9
  21710778.505    -1219763.330 7   -922114.405 8
  24521468.239    -2564415.177 5  -1929849.459 4
  25151271.755     -163885.599 3
 94  1 23 20 15  0.0010000  0  8 25 18 14 15 29 22 19  4
  24709611.028     6575148.077 5   5047766.146 1
  23138086.099    -4333026.918 6  -3268707.581 5
  20610776.849      412510.588 7    329838.497 8
  25179170.388     7072293.357 3   5344397.198 1
  21427848.192    -1920614.879 7  -1444647.322 9
  21710585.263    -1220765.804 7   -922895.511 8
  24505682.239    -2647352.255 4  -1994475.855 3
  25147194.325     -185301.304 3        -0.49011
 94  1 23 20 15 30.0010000  0  8 25 18 14 15 29 22 19  4
  24728791.341     6675949.820 5   5126312.976 2
  23125503.427    -4399140.975 6  -3320224.971 5
  20615431.177      436960.921 7    348890.707 8
  25199199.685     7177536.980 3   5426405.054 1
  21423194.497    -1945072.822 7  -1463705.450 9
  21710509.981    -1221164.399 7
  24489929.411    -2730135.724 4  -2058982.551 4
  25143214.286     -206213.859 4    -16296.023 1
 94  1 23 20 16  0.0010000  0  8 25 18 14 15 29 22 19  4
  24747977.396     6776759.010 5   5204865.546 1
  23112937.880    -4465187.136 6  -3371689.467 5
  20620195.552      461996.655 7    368399.070 8
  25219202.763     7282669.032 3   5508325.947 1
  21418571.122    -1969364.189 7  -1482633.772 9
  21710547.161    -1220956.694 7
  24474210.067    -2812738.978 4  -2123348.797 3
  25139335.138     -226632.713 4    -32206.777 1
 94  1 23 20 16 30.0010000  0  8 25 18 14 15 29 22 19  4
  24767158.606     6877570.067 5   5283419.622 2
  23100388.606    -4531133.296 6  -3423076.040 5
  20625069.364      487612.061 7    388359.122 8
  25239188.099     7387689.750 3   5590160.069 1
  21413982.622    -1993482.917 7  -1501427.566 9
  21710703.192    -1220140.782 7   -922408.353 8
  24458526.755    -2895151.900 3  -2187566.717 3
  25135539.013     -246565.689 3    -47739.002 1
 94  1 23 20 17  0.0010000  0  7 25 18 14 29 22 19  4
  24786339.224     6978368.102 5   5361963.501 3
  23087857.794    -4596979.607 6  -3474384.808 5
  20630052.802      513800.942 7    408766.038 8
  21409422.536    -2017440.794 7  -1520096.024 9
  21710976.599    -1218721.779 7   -921302.588 8
  24442883.169    -2977380.020 4  -2251640.625 4
  25131837.458     -266028.355 3    -62904.708 1
 94  1 23 20 17 30.0010000  0  7 25 18 14 29 22 19  4
  24805519.630     7079143.100 5   5440489.482 1
  23075344.521    -4662731.135 6  -3525619.703 6
  20635143.005      540555.184 7    429613.497 8
  21404895.138    -2041241.986 7  -1538642.393 9
  21711356.474    -1216712.633 7   -919736.972 8
  24427269.255    -3059416.739 4  -2315565.373 4
  25128216.716     -285029.681 3    -77710.900 2
 94  1 23 20 18  0.0010000  0  7 25 18 14 29 22 19  4
  24824691.122     7179910.726 5   5519009.656 4
  23062849.544    -4728385.820 6  -3576779.142 5
  20640342.106      567874.238 7    450901.064 8
  21400399.169    -2064863.643 7  -1557048.862 9
  21711852.919    -1214111.284 7   -917709.906 8
  24411696.481    -3141242.017 4  -2379325.299 2
  25124686.208     -303549.578 3    -92141.954 1
 94  1 23 20 18 30.0010000  0  7 25 18 14 29 22 19  4
  24843873.036     7280701.899 5   5597548.169 4
  23050380.349    -4793918.995 6  -3627843.899 6
  20645651.825      595784.394 7    472649.228 8
  21395943.364    -2088275.493 7  -1575291.848 9
  21712469.567    -1210887.590 7   -915197.898 8
  24396171.364    -3222843.208 4  -2442910.579 4
  25121271.513     -321550.493 4   -106168.651 1
 94  1 23 20 19  0.0010000  0  7 25 18 14 29 22 19  4
  24863052.528     7381491.544 5   5676085.507 5
  23037925.177    -4859378.217 6  -3678851.030 5
  20651070.536      624261.468 7    494839.151 8
  21391522.763    -2111512.676 7  -1593398.719 9
  21713192.661    -1207069.472 7   -912222.712 8
  24380676.216    -3304260.430 4  -2506352.467 4
  25117940.067     -339043.205 5   -119799.293 1
 94  1 23 20 19 30.0010000  0  7 25 18 14 29 22 19  4
  24882230.513     7482279.133 4   5754621.229 5
  23025477.364    -4924786.546 6  -3729818.494 6
  20656592.950      653280.108 7    517451.077 8
  21387129.560    -2134597.335 7  -1611386.742 9
  21714034.310    -1202660.077 7   -908786.789 8
  24365216.474    -3385501.015 4  -2569656.713 5
  25114707.825     -356032.479 5   -133037.719 1
 94  1 23 20 20  0.0010000  0  7 25 18 14 29 22 19  4
  24901411.466     7583072.141 3   5833161.144 5
  23013040.278    -4990147.666 6  -3780749.186 6
  20662219.239      682842.504 7    540486.702 8
  21382764.278    -2157536.724 7  -1629261.566 9
  21714985.700    -1197645.462 7   -904879.275 8
  24349790.591    -3466560.336 4  -2632819.659 4
  25111570.106     -372521.405 5   -145886.246 1
 94  1 23 20 20 30.0010000  0  7 25 18 14 29 22 19  4
  24920600.036     7683881.768 3   5911714.017 5
  23000612.935    -5055449.845 6  -3831633.950 6
  20667950.833      712959.310 7    563954.337 8
  21378425.177    -2180320.147 7  -1647014.864 9
  21716062.138    -1191995.973 7   -900477.062 8
  24334402.989    -3547428.443 4  -2695833.575 5
  25108527.372     -388499.455 5   -158336.652 1
 94  1 23 20 21  0.0010000  0  7 25 18 14 29 22 19  4
  24939780.145     7784696.786 3   5990271.056 5
  22988195.106    -5120701.916 6  -3882479.679 6
  20673788.935      743627.342 7    587851.502 8
  21374122.567    -2202952.977 7  -1664650.818 9
  21717253.302    -1185716.843 7   -895584.226 8
  24319048.427    -3628105.866 4  -2758698.909 3
  25105586.669     -403975.877 5   -170396.216 1
 94  1 23 20 21 30.0010000  0  7 25 18 14 29 22 19  4
  24958961.724     7885510.293 3   6068826.947 5
  22975790.216    -5185888.542 6  -3933274.397 6
  20679728.036      774848.111 7    612179.363 8
  21369843.786    -2225424.153 7  -1682160.802 9
  21718569.450    -1178809.443 7   -890201.832 8
  24303737.333    -3708577.719 4  -2821404.029 4
  25102730.185     -418963.574 4   -182074.949 1
 94  1 23 20 22  0.0010000  0  7 25 18 14 29 22 19  4
  24978130.700     7986289.334 2   6147355.950 5
  22963399.388    -5251013.350 6  -3984020.960 6
  20685775.333      806637.046 7    636949.949 8
  21365598.919    -2247722.139 7  -1699535.841 9
  21720005.372    -1171298.317 7   -884349.005 8
  24288458.302    -3788857.319 3  -2883959.327 4
  25099969.099     -433469.468 5   -193378.219 2
 94  1 23 20 22 30.0010000  0  6 18 14 29 22 19  4
  22951018.872    -5316064.485 6  -4034710.119 6
  20691935.669      839008.836 7    662174.712 8
  21361397.130    -2269825.530 7  -1716759.245 9
  21721542.106    -1163193.838 7   -878033.823 8
  24273219.177    -3868940.628 3  -2946361.649 5
  25097308.364     -447477.418 4   -204293.481 2
 94  1 23 20 23  0.0010000  0  6 18 14 29 22 19  4
  22938650.224    -5381062.890 6  -4085358.179 5
  20698207.591      871945.871 7    687839.921 8
  21357222.685    -2291757.027 7  -1733848.707 9
  21723188.692    -1154533.761 7   -871285.709 8
  24258014.388    -3948848.540 4  -3008627.351 5
  25094727.989     -461006.052 4   -214835.268 3
 94  1 23 20 23 30.0010000  0  6 18 14 29 22 19  4
  22926295.388    -5445997.842 6  -4135956.800 5
  20704583.372      905457.380 7    713952.777 8
  21353084.005    -2313503.825 7  -1750794.247 9
  21724942.864    -1145306.028 7   -864095.273 8
  24242842.020    -4028571.333 4  -3070748.799 4
  25092251.583     -474042.390 5   -224993.491 1
 94  1 23 20 24  0.0010000  0  6 18 14 29 22 19  4
  22913950.247    -5510877.758 6  -4186512.534 6
  20711064.927      939530.221 7    740503.024 8
  21348976.427    -2335077.702 7  -1767605.051 9
  21726811.341    -1135518.468 7   -856468.606 8
  24227705.833    -4108128.753 5  -3132741.386 5
  25089863.716     -486587.189 4   -234768.683 2
 94  1 23 20 24 30.0010000  0  6 18 14 29 22 19  4
  22901617.591    -5575672.764 6  -4237002.096 6
  20717656.442      974171.003 7    767495.835 8
  21344907.185    -2356473.167 7  -1784276.835 9
  21728785.646    -1125136.964 7   -848379.123 8
  24212599.622    -4187506.461 4  -3194594.001 5
  25087574.739     -498629.612 5   -244152.407 2
 94  1 23 20 25  0.0010000  0  6 18 14 29 22 19  4
  22889307.067    -5640371.932 6  -4287416.976 6
  20724359.020     1009379.514 7    794931.024 8
  21340867.927    -2377707.879 7  -1800823.363 9
  21730875.536    -1114136.841 7   -839807.595 8
  24197531.591    -4266697.725 5  -3256301.306 4
  25085373.442     -510168.642 4   -253143.866 2
 94  1 23 20 25 30.0010000  0  6 18 14 29 22 19  4
  22877008.372    -5704993.190 6  -4337771.142 5
  20731161.114     1045133.394 7    822791.177 8
  21336850.278    -2398804.426 7  -1817262.214 9
  21733084.989    -1102534.503 7   -830766.801 8
  24182488.810    -4345720.488 5  -3317877.335 3
  25083270.778     -521231.429 4   -261764.211 2
 94  1 23 20 26  0.0010000  0  6 18 14 29 22 19  4
  22864731.716    -5769510.424 6  -4388044.266 5
  20738073.356     1081464.844 7    851101.381 8
  21332868.825    -2419738.346 7  -1833574.358 9
  21735411.231    -1090311.319 7   -821242.225 8
  24167492.567    -4424547.736 5  -3379301.053 4
  25081257.349     -531800.858 4   -270000.161 2
 94  1 23 20 26 30.0010000  0  6 18 14 29 22 19  4
  22852473.942    -5833932.020 6  -4438242.864 5
  20745099.997     1118368.301 7    879857.303 8
  21328915.388    -2440512.513 7  -1849762.014 9
  21737857.005    -1077467.394 7   -811233.955 8
  24152533.677    -4503154.795 5  -3440553.190 2
  25079341.849     -541876.201 3   -277851.080 2
 94  1 23 20 27  0.0010000  0  6 18 14 29 22 19  4
  22840227.903    -5898281.361 6  -4488385.150 6
  20752222.396     1155816.871 7    909037.997 8
  21324992.927    -2461129.440 7  -1865827.154 9
  21740415.403    -1064018.101 7   -800753.958 8
  24137619.294    -4581536.217 5  -3501629.558 3
  25077517.442     -551462.253 3   -285320.720 4
 94  1 23 20 27 30.0010000  0  6 18 14 29 22 19  4
  22827995.560    -5962552.826 6  -4538466.748 6
  20759455.716     1193815.019 7    938646.925 8
  21321105.825    -2481548.330 7  -1881737.976 9
  21743090.021    -1049958.668 7   -789798.530 8
  24122746.450    -4659687.948 5  -3562526.957 4
  25075794.411     -560548.768 4   -292401.120 2
 94  1 23 20 28  0.0010000  0  6 18 14 29 22 19  4
  22815785.763    -6026736.222 6  -4588479.721 6
  20766790.271     1232357.812 7    968680.250 8
  21317259.052    -2501766.101 7  -1897492.081 9
  21745880.622    -1035281.447 7   -778361.704 8
  24107918.294    -4737609.935 5  -3623245.307 4
  25074155.841     -569128.024 3   -299086.254 3
 94  1 23 20 28 30.0010000  0  6 18 14 29 22 19  4
  22803582.716    -6090845.465 6  -4638434.917 6
  20774222.942     1271415.653 7    999114.903 8
  21313447.911    -2521795.834 7  -1913099.662 9
  21748789.810    -1020001.633 7   -766455.328 8
  24093132.255    -4815321.620 5  -3683799.781 3
  25072618.731     -577210.728 4   -305384.449 3
 94  1 23 20 29  0.0010000  0  6 18 14 29 22 19  4
  22791399.060    -6154877.557 6  -4688329.997 6
  20781751.239     1310993.465 7   1029954.747 8
  21309672.317    -2541637.613 7  -1928560.794 9
  21751814.099    -1004123.799 7   -754082.956 8
  24078373.427    -4892863.687 5  -3744222.134 3
  25071173.958     -584802.825 3   -311300.386 2
 94  1 23 20 29 30.0010000  0  6 18 14 29 22 19  4
  22779232.794    -6218809.210 6  -4738146.805 6
  20789390.622     1351124.013 7   1061225.283 8
  21305929.224    -2561292.660 7  -1943876.412 9
  21754945.333     -987657.275 7   -741251.868 8
  24063650.427    -4970236.920 5  -3804512.913 4
  25069821.216     -591906.897 3   -316836.011 3
 94  1 23 20 30  0.0010000  0  6 18 14 29 22 19  4
  22767088.692    -6282634.746 6  -4787880.917 6
  20797130.888     1391810.660 7   1092929.141 8
  21302225.505    -2580775.969 7  -1959058.215 9
  21758189.895     -970608.771 7   -727967.292 8
  24048960.271    -5047434.168 5  -3864666.559 4
  25068572.216     -598523.724 3   -321991.972 2
 94  1 23 20 30 30.0010000  0  6 18 14 29 22 19  4
  22754963.224    -6346358.886 6  -4837536.029 6
  20804979.903     1433059.837 7   1125071.342 8
  21298550.255    -2600087.666 7  -1974106.292 9
  21761543.919     -952981.034 7   -714231.370 8
  24034300.653    -5124449.538 5  -3924678.483 5
  25067392.481     -604662.921 3   -326775.749 4
 94  1 23 20 31  0.0010000  0  6 18 14 29 22 19  4
  22742855.091    -6409978.741 6  -4887109.885 6
  20812941.052     1474882.994 7   1157660.796 8
  21294907.200    -2619223.569 7  -1989017.385 9
  21765011.536     -934759.895 7   -700033.062 8
  24019684.560    -5201272.978 5  -3984540.870 5
  25066319.481     -610322.692 3   -331185.940 3
 94  1 23 20 31 30.0010000  0  6 18 14 29 22 19  4
  22730765.364    -6473510.265 6  -4936614.907 6
  20821006.630     1517269.864 7   1190689.515 8
  21291300.341    -2638187.363 7  -2003794.361 9
  21768589.825     -915951.212 7   -685376.925 8
  24005107.474    -5277887.431 5  -4044240.408 5
  25065332.263     -615513.459 3   -335230.697 5
 94  1 23 20 32  0.0010000  0  6 18 14 29 22 19  4
  22718688.950    -6536970.525 6  -4986064.406 6
  20829175.341     1560202.230 7   1224143.279 8
  21287725.310    -2656971.704 7  -2018431.519 9
  21772287.114     -896541.473 7   -670252.442 8
  23990570.513    -5354289.694 5  -4103774.581 5
  25064429.224     -620230.927 2   -338906.623 5
 94  1 23 20 32 30.0010000  0  6 18 14 29 22 19  4
  22706622.771    -6600358.164 6  -5035457.317 6
  20837449.614     1603687.617 7   1258027.980 8
  21284186.911    -2675562.578 7  -2032917.907 9
  21776095.396     -876514.909 7   -654647.321 8
  23976067.927    -5430470.644 5  -4163136.339 5
  25063624.950     -624460.576 2   -342202.436 4
 94  1 23 20 33  0.0010000  0  6 18 14 29 22 19  4
  22694578.231    -6663664.608 6  -5084786.963 6
  20845832.192     1647727.082 7   1292344.425 8
  21280687.067    -2693958.598 7  -2047252.456 9
  21780021.544     -855867.574 7   -638558.483 8
  23961613.786    -5506433.213 5  -4222327.901 5
  25062924.216     -628173.671 3   -345095.757 4
 94  1 23 20 33 30.0010000  0  6 18 14 29 22 19  4
  22682549.396    -6726890.630 6  -5134053.935 6
  20854320.497     1692323.508 7   1327094.867 8
  21277221.044    -2712172.547 7  -2061445.142 9
  21784067.700     -834612.932 7   -621996.420 8
  23947197.841    -5582177.943 5  -4281349.735 5
  25062312.044     -631372.092 2   -347588.026 3
 94  1 23 20 34  0.0010000  0  6 18 14 29 22 19  4
  22670533.731    -6790037.651 6  -5183259.357 6
  20862909.599     1737469.761 7   1362273.745 8
  21273787.528    -2730216.047 7  -2075505.002 9
  21788229.966     -812748.286 7   -604959.034 8
  23932827.505    -5657711.809 5  -4340207.243 5
  25061801.802     -634059.778 3   -349682.378 2
 94  1 23 20 34 30.0010000  0  6 18 14 29 22 19  4
  22658532.661    -6853083.966 6  -5232386.302 6
  20871607.997     1783182.962 7   1397894.419 8
  21270388.388    -2748082.243 7  -2089426.708 9
  21792508.396     -790264.645 7   -587439.316 8
  23918496.755    -5733031.001 5  -4398897.486 5
  25061390.302     -636223.137 3   -351368.116 4
 94  1 23 20 35  0.0010000  0  6 18 14 29 22 19  4
  22646552.622    -6916037.224 6  -5281440.732 6
  20880413.521     1829457.672 7   1433952.605 8
  21267016.700    -2765785.012 7  -2103221.062 9
  21796904.333     -767180.092 7   -569451.356 8
  23904198.044    -5808155.922 5  -4457436.342 4
  25061068.388     -637889.981 3   -352666.999 2
 94  1 23 20 35 30.0010000  0  6 18 14 29 22 19  4
  22634590.997    -6978898.855 6  -5330423.783 6
  20889324.708     1876294.816 7   1470449.068 8
  21263684.442    -2783300.530 7  -2116869.501 9
  21801410.255     -743498.065 7   -550997.834 8
  23889944.122    -5883071.155 5  -4515811.764 5
  25060840.224     -639083.155 3   -353596.747 4
 94  1 23 20 36  0.0010000  0  6 18 14 29 22 19  4
  22622647.497    -7041674.572 6  -5379339.880 6
  20898340.786     1923670.480 7   1507365.153 8
  21260389.138    -2800617.397 7  -2130363.149 9
  21806025.981     -719233.352 7   -532090.264 8
  23875723.153    -5957800.323 5  -4574042.242 4
  25060709.981     -639811.911 3   -354164.628 2
 94  1 23 20 36 30.0010000  0  6 18 14 29 22 19  4
  22610718.294    -7104353.644 6  -5428180.676 6
  20907457.981     1971577.067 7   1544694.942 8
  21257133.317    -2817722.835 7  -2143692.053 9
  21810752.153     -694402.858 7   -512741.829 8
  23861537.505    -6032351.464 5  -4632133.948 5
  25060646.981     -640083.896 3
 94  1 23 20 37  0.0010000  0  6 18 14 29 22 19  4
  22598865.005    -7166653.281 6  -5476725.796 6
  20916732.028     2020311.103 7   1582669.499 8
  21253977.396    -2834314.402 7  -2156620.537 9
  21815637.927     -668716.392 7   -492726.408 8
  23847441.474    -6106419.387 5  -4689849.121 5
  25060744.333     -639611.557 3
 94  1 23 20 37 30.0010000  0  6 18 14 29 22 19  4
  22587060.325    -7228679.210 6  -5525057.634 6
  20926142.567     2069762.069 7   1621202.699 8
  21250897.255    -2850495.533 7  -2169229.196 9
  21820672.716     -642272.515 7   -472120.779 8
  23833424.724    -6180088.799 5  -4747253.778 5
  25060962.067     -638483.251 3   -353129.384 2
 94  1 23 20 38  0.0010000  0  6 18 14 29 22 19  4
  22575276.021    -7290603.826 6  -5573310.532 6
  20935655.114     2119745.129 7   1660150.519 8
  21247856.747    -2866469.459 7  -2181676.400 9
  21825811.114     -615248.634 7   -451063.212 8
  23819443.942    -6253551.804 5  -4804497.594 5
  25061261.333     -636875.738 2   -351876.800 2
 94  1 23 20 38 30.0010000  0  6 18 14 29 22 19  4
  22563511.458    -7352418.966 6  -5621478.114 6
  20945269.935     2170271.625 7   1699521.792 8
  21244856.388    -2882242.846 7  -2193967.343 9
  21831067.919     -587629.384 7   -429541.713 8
  23805506.716    -6326778.670 5  -4861557.370 5
  25061658.950     -634781.029 3   -350244.566 5
 94  1 23 20 39  0.0010000  0  6 18 14 29 22 19  4
  22551769.091    -7414146.160 6  -5669577.165 6
  20954983.935     2221326.969 7   1739305.158 8
  21241887.403    -2897845.346 7  -2206125.125 9
  21836433.122     -559426.379 7   -407565.345 8
  23791617.880    -6399781.428 5  -4918442.509 5
  25062155.208     -632200.265 2   -348233.659 3
 94  1 23 20 39 30.0010000  0  6 18 14 29 22 19  4
  22540044.169    -7475759.984 6  -5717587.888 6
  20964796.411     2272901.459 7   1779493.050 8
  21238951.458    -2913270.808 7  -2218144.952 9
  21841914.810     -530637.661 7   -385132.573 8
  23777765.239    -6472567.581 5  -4975158.900 5
  25062736.825     -629132.375 2   -345843.105 3
 94  1 23 20 40  0.0010000  0  6 18 14 29 22 19  4
  22528338.435    -7537259.221 6  -5765509.329 6
  20974706.942     2324981.923 7   1820075.213 8
  21236053.724    -2928508.052 7  -2230018.118 9
  21847503.013     -501271.839 7   -362250.114 8
  23763950.396    -6545161.918 5  -5031725.797 5
  25063415.536     -625590.162 2   -343082.973 2
 94  1 23 20 40 30.0010000  0  6 18 14 29 22 19  4
  22516650.974    -7598676.833 6  -5813367.166 6
  20984717.231     2377568.332 7   1861051.617 8
  21233190.810    -2943552.124 7  -2241740.762 9
  21853195.935     -471341.293 7   -338927.606 8
  23750173.560    -6617575.264 5  -5088151.660 5
  25064175.216     -621576.838 2   -339955.708 2
 94  1 23 20 41  0.0010000  0  6 18 14 29 22 19  4
  22504979.177    -7660014.242 6  -5861162.493 6
  20994819.669     2430667.362 7   1902427.461 8
  21230365.310    -2958393.777 7  -2253305.675 9
  21858998.505     -440841.664 7   -315161.662 8
  23736421.849    -6689813.631 5  -5144441.187 5
  25065034.044     -617096.500 2   -336464.593 4
 94  1 23 20 41 30.0010000  0  6 18 14 29 22 19  4
  22493326.739    -7721254.923 6  -5908882.461 6
  21005024.349     2484296.783 7   1944216.604 8
  21227585.544    -2973004.102 7  -2264690.333 9
  21864919.856     -409742.260 7   -290928.350 8
  23722716.810    -6761851.031 5  -5200574.122 5
  25065973.880     -612133.640 3   -332597.432 3
 94  1 23 20 42  0.0010000  0  6 18 14 29 22 19  4
  22481683.935    -7782426.206 6  -5956548.335 6
  21015331.333     2538445.990 7   1986410.775 8
  21224844.005    -2987410.980 7  -2275916.462 9
  21870950.536     -378042.316 7   -266227.088 8
  23709045.333    -6833687.266 5  -5256550.313 5
  25067011.950     -606684.111 3   -328351.039 4
 94  1 23 20 42 30.0010000  0  6 18 14 29 22 19  4
  22470059.489    -7843519.429 6  -6004153.395 6
  21025735.411     2593128.760 7   2029020.708 8
  21222135.919    -3001635.516 7  -2287000.508 9
  21877099.341     -345744.488 7   -241059.942 8
  23695417.724    -6905303.092 5  -5312354.763 5
  25068138.950     -600746.690 2   -323724.497 4
 94  1 23 20 43  0.0010000  0  6 18 14 29 22 19  4
  22458454.575    -7904503.161 6  -6051673.144 6
  21036241.896     2648327.996 7   2072033.077 8
  21219461.817    -3015689.322 7  -2297951.510 9
  21883356.950     -312842.409 7   -215421.948 8
  23681831.325    -6976695.189 5  -5367984.889 5
  25069357.552     -594333.491 2   -318727.205 4
 94  1 23 20 43 30.0010000  0  6 18 14 29 22 19  4
  22446874.669    -7965359.080 6  -6099093.292 6
  21046839.442     2704043.730 7   2115447.917 8
  21216820.614    -3029563.411 7  -2308762.481 9
  21889737.052     -279334.686 7   -189312.024 8
  23668290.536    -7047858.266 5  -5423436.550 5
  25070676.786     -587433.923 3   -313350.925 2
 94  1 23 20 44  0.0010000  0  6 18 14 29 22 19  4
  22435321.271    -8026070.149 6  -6146400.566 6
  21057544.450     2760285.202 7   2159272.421 8
  21214216.231    -3043253.221 7  -2319429.856 9
  21896221.903     -245235.785 7   -162741.442 8
  23654792.114    -7118790.985 5  -5478708.734 5
  25072079.966     -580058.513 3   -307603.890 4
 94  1 23 20 44 30.0010000  0  6 18 14 29 22 19  4
  22423798.692    -8086629.755 6  -6193589.830 6
  21068350.052     2817065.586 7   2203516.858 8
  21211650.395    -3056738.601 7  -2329937.936 9
  21902821.239     -210564.581 7   -135724.907 8
  23641336.661    -7189500.730 5  -5533807.178 5
  25073563.263     -572228.677 3   -301502.740 3
 94  1 23 20 45  0.0010000  0  6 18 14 29 22 19  4
  22412300.130    -8147047.255 6  -6240668.351 6
  21079255.763     2874385.289 7   2248181.540 8
  21209127.349    -3069997.189 7  -2340269.291 9
  21909529.192     -175318.263 7   -108260.229 8
  23627922.911    -7259989.606 5  -5588733.513 5
  25075147.560     -563931.743 3   -295037.642 3
 94  1 23 20 45 30.0010000  0  6 18 14 29 22 19  4
  22400826.552    -8207340.415 6  -6287649.985 6
  21090272.255     2932261.811 7   2293280.112 8
  21206650.052    -3083020.507 7  -2350417.321 9
  21916340.247     -139517.551 7    -80363.563 8
  23614548.927    -7330267.272 5  -5643495.262 5
  25076818.091     -555157.671 3   -288200.694 2
 94  1 23 20 46  0.0010000  0  6 18 14 29 22 19  4
  22389369.466    -8267549.834 6  -6334566.371 6
  21101386.817     2990679.266 7   2338800.182 8
  21204210.669    -3095829.895 7  -2360398.649 9
  21923251.849     -103192.202 7    -52058.083 8
  23601211.716    -7400358.678 5  -5698111.886 5
  25078572.583     -545922.653 3   -281004.640 2
 94  1 23 20 46 30.0010000  0  6 18 14 29 22 19  4
  22377926.372    -8327684.542 6  -6381424.531 6
  21112603.802     3049634.976 7   2384739.675 8
  21201815.919    -3108418.702 7  -2370208.098 9
  21930269.481      -66331.490 7    -23335.443 8
  23587910.216    -7470254.171 5  -5752575.847 5
  25080419.927     -536210.943 3   -273437.101 3
 94  1 23 20 47  0.0010000  0  6 18 14 29 22 19  4
  22366499.724    -8387730.539 6  -6428213.576 6
  21123928.575     3109127.773 7   2431097.676 8
  21199464.567    -3120780.534 7  -2379840.687 9
  21937384.997      -28917.026 7      5818.687 8
  23574649.216    -7539938.597 5  -5806875.338 5
  25082357.989     -526004.462 2   -265484.031 3
 94  1 23 20 47 30.0010000  0  6 18 14 29 22 19  4
  22355094.200    -8447678.752 7  -6474926.425 7
  21135349.896     3169143.613 7   2477863.240 8
  21197156.575    -3132914.240 7  -2389295.510 9
  21944614.411        9062.379 7     35413.035 8
  23561433.966    -7609401.855 5  -5861002.491 5
  25084393.302     -515316.275 2   -257155.631 3
 94  1 23 20 48  0.0010000  0  6 18 14 29 22 19  4
  22343704.567    -8507520.282 6  -6521556.144 6
  21146863.130     3229668.146 7   2525025.192 8
  21194889.052    -3144817.108 7  -2398570.469 9
  21951955.138       47626.929 7     65463.325 8
  23548260.614    -7678609.479 5  -5914930.444 5
  25086521.466     -504159.202 3   -248461.799 3
 94  1 23 20 48 30.0010000  0  6 18 14 29 22 19  4
  22332339.630    -8567238.494 6  -6568089.761 6
  21158478.849     3290702.174 7   2572584.159 8
  21192666.739    -3156492.479 7  -2407668.155 9
  21959405.161       86787.286 7     95977.883 8
  23535142.591    -7747553.063 5  -5968652.645 5
  25088728.364     -492536.453 2   -239405.186 4
 94  1 23 20 49  0.0010000  0  6 18 14 29 22 19  4
  22321002.247    -8626817.472 6  -6614514.894 7
  21170193.013     3352250.467 7   2620543.842 8
  21190490.450    -3167939.500 7  -2416587.892 9
  21966972.130      126558.889 7    126968.735 8
  23522071.130    -7816239.325 5  -6022174.338 5
  25091030.638     -480444.293 2   -229982.778 2
 94  1 23 20 49 30.0010000  0  6 18 14 29 22 19  4
  22309688.411    -8686273.556 6  -6660844.258 7
  21182001.106     3414301.872 7   2668895.566 9
  21188351.075    -3179173.958 7  -2425342.002 9
  21974655.591      166934.784 7    158430.457 8
  23509045.442    -7884686.591 5  -6075509.806 5
  25093422.294     -467887.163 3   -220198.033 2
 94  1 23 20 50  0.0010000  0  6 18 14 29 22 19  4
  22298398.231    -8745607.150 6  -6707078.178 6
  21193906.036     3476870.452 7   2717650.280 8
  21186251.942    -3190205.688 7  -2433938.146 9
  21982450.302      207901.505 7    190352.569 8
  23496060.981    -7952912.119 5  -6128672.477 5
  25095904.614     -454856.607 2   -210044.389 2
 94  1 23 20 50 30.0010000  0  6 18 14 29 22 19  4
  22287133.239    -8804801.779 6  -6753203.796 7
  21205915.849     3539973.731 7   2766821.645 8
  21184196.364    -3201019.235 7  -2442364.278 9
  21990360.161      249462.781 7    222737.963 8
  23483120.708    -8020938.762 5  -6181680.171 5
  25098470.849     -441330.775 2   -199504.825 2
 94  1 23 20 51  0.0010000  0  6 18 14 29 22 19  4
  22275896.560    -8863849.105 7  -6799214.648 7
  21218024.356     3603607.205 7   2816406.144 8
  21182181.786    -3211598.498 7  -2450607.851 9
  21998380.356      291613.150 7    255582.403 8
  23470212.825    -8088761.383 5  -6234528.899 5
  25101142.911     -427317.200 3   -188585.206 3
 94  1 23 20 51 30.0010000  0  6 18 14 29 22 19  4
  22264686.911    -8922760.324 7  -6845119.441 6
  21230227.763     3667742.138 7   2866381.396 8
  21180210.794    -3221960.788 7  -2458682.356 9
  22006509.021      334318.097 7    288858.974 8
  23457343.224    -8156383.208 5  -6287221.151 5
  25103896.747     -412843.474 2   -177307.025 2
 94  1 23 20 52  0.0010000  0  6 18 14 29 22 19  4
  22253505.060    -8981517.073 7  -6890903.870 6
  21242528.138     3732388.189 7   2916754.923 8
  21178282.950    -3232087.116 7  -2466572.986 9
  22014740.224      377572.103 7    322563.390 8
  23444517.208    -8223787.600 5  -6339743.971 5
  25106735.958     -397918.793 2   -165677.388 4
 94  1 23 20 52 30.0010000  0  6 18 14 29 22 19  4
  22242356.481    -9040107.594 7  -6936558.770 6
  21254924.919     3797538.109 7   2967521.068 8
  21176402.755    -3241959.769 7  -2474265.956 9
  22023079.075      421385.529 7    356703.717 8
  23431735.942    -8290953.178 5  -6392080.705 5
  25109663.481     -382540.717 2   -153694.540 2
 94  1 23 20 53  0.0010000  0  6 18 14 29 22 19  4
  22231234.638    -9098540.776 6  -6982091.068 6
  21267416.638     3863173.485 7   3018665.500 8
  21174572.161    -3251589.790 7  -2481769.859 9
  22031522.224      465757.847 7    391279.543 8
  23419004.356    -8357869.607 5  -6444223.289 5
  25112676.544     -366712.576 2   -141360.915 2
 94  1 23 20 53 30.0010000  0  6 18 14 29 22 19  4
  22220144.778    -9156829.704 7  -7027510.963 7
  21280000.435     3929288.876 7   3070183.966 8
  21172782.567    -3260992.043 7  -2489096.274 9
  22040066.505      510673.227 7    426278.540 8
  23406311.036    -8424548.145 5  -6496180.512 5
  25115774.856     -350424.664 2   -128669.040 2
 94  1 23 20 54  0.0010000  0  6 18 14 29 22 19  4
  22209079.396    -9214975.286 7  -7072819.164 7
  21292674.935     3995905.987 7   3122093.386 8
  21171039.341    -3270156.875 7  -2496237.691 9
  22048717.388      556136.457 7    461704.428 8
  23393672.591    -8490983.683 5  -6547948.374 5
  25118961.700     -333654.163 2   -115601.143 2
 94  1 23 20 54 30.0010000  0  6 18 14 29 22 19  4
  22198039.153    -9272988.655 6  -7118024.345 7
  21305442.724     4063005.978 7   3174379.068 8
  21169337.067    -3279097.500 7  -2503204.401 9
  22057476.771      602147.994 7    497557.569 8
  23381074.856    -8557175.832 5  -6599526.579 5
  25122253.044     -316394.767 3   -102152.309 2
 94  1 23 20 55  0.0010000  0  6 18 14 29 22 19  4
  22187028.122    -9330860.140 6  -7163118.955 7
  21318308.208     4130607.733 7   3227055.745 8
  21167678.638    -3287817.723 7  -2509999.368 9
  22066334.911      648703.152 7    533834.306 8
  23368524.575    -8623128.619 6  -6650918.275 5
  25125628.239     -298647.379 3    -88323.190 1
 94  1 23 20 55 30.0010000  0  6 18 14 29 22 19  4
  22176044.021    -9388578.180 6  -7208094.017 7
  21331275.731     4198741.715 7   3280147.151 8
  21166063.825    -3296295.083 7  -2516605.089 9
  22075295.747      695803.655 7    570536.000 8
  23356021.935    -8688833.509 6  -6702116.797 5
  25129098.442     -280417.487 3    -74118.117 3
 94  1 23 20 56  0.0010000  0  6 18 14 29 22 19  4
  22165084.497    -9446168.676 7  -7252969.680 7
  21344333.521     4267385.562 7   3333635.837 8
  21164494.864    -3304544.108 7  -2523032.890 9
  22084365.716      743451.917 7    607664.513 8
  23343561.200    -8754321.434 6  -6753146.245 5
  25132648.106     -261754.032 3    -59575.200 3
 94  1 23 20 56 30.0010000  0  6 18 14 29 22 19  4
  22154150.770    -9503623.707 7  -7297739.798 7
  21357496.138     4336538.320 7   3387521.077 8
  21162969.122    -3312553.848 7  -2529274.233 9
  22093536.052      791656.872 7    645226.811 8
  23331137.856    -8819604.702 5  -6804016.225 6
  25136279.403     -242669.900 3    -44704.465 2
 94  1 23 20 57  0.0010000  0  6 18 14 29 22 19  4
  22143244.169    -9560938.422 7  -7342400.585 7
  21370754.028     4406218.999 7   3441817.691 8
  21161493.755    -3320312.147 7  -2535319.646 9
  22102816.364      840415.987 7    683220.925 8
  23318751.278    -8884690.196 6  -6854732.087 5
  25139992.489     -223163.918 3    -29505.035 1
 94  1 23 20 57 30.0010000  0  6 18 14 29 22 19  4
  22132365.521    -9618112.493 7  -7386951.759 7
  21384115.208     4476423.981 7   3496522.853 8
  21160069.622    -3327795.565 7  -2541150.872 9
  22112203.739      889746.032 7    721659.915 8
  23306409.138    -8949558.274 6  -6905278.525 6
  25143785.286     -203218.714 3    -13963.292 2
 94  1 23 20 58  0.0010000  0  6 18 14 29 22 19  4
  22121508.536    -9675157.652 7  -7431402.496 7
  21397567.099     4547111.345 7   3551603.899 8
  21158695.302    -3335029.854 7  -2546787.954 9
  22121697.903      939629.544 7    760530.187 8
  23294107.966    -9014208.817 6  -6955655.465 5
  25147661.388     -182836.164 3      1919.202 1
 94  1 23 20 58 30.0010000  0  6 18 14 29 22 19  4
  22110681.364    -9732063.449 7  -7475744.632 7
  21411110.067     4618276.806 7   3607057.472 8
  21157362.520    -3342025.003 7  -2552238.717 9
  22131290.544      990042.869 7    799813.295 8
  23281845.692    -9078630.601 6  -7005854.152 6
  25151637.481     -162000.493 3     18154.775 2
 94  1 23 20 59  0.0010000  0  6 18 14 29 22 19  4
  22099878.731    -9788829.751 7  -7519978.075 7
  21424737.200     4689901.168 7   3662868.651 8
  21156076.122    -3348787.505 7  -2557508.181 9
  22140984.052     1040987.169 7    839510.150 8
  23269629.325    -9142811.971 6  -7055865.510 5
  25155682.794     -140711.289 3     34743.782 1
 94  1 23 20 59 30.0010000  0  6 18 14 29 22 19  4
  22089105.255    -9845443.617 7  -7564092.732 7
  21438454.271     4761973.479 7   3719028.870 8
  21154834.442    -3355313.868 7  -2562593.645 9
  22150779.771     1092476.582 7    879631.763 8
  23257465.630    -9206742.729 6  -7105681.584 5
  25159818.536     -118967.994 3     51686.621 2
 94  1 23 21  0  0.0010000  0  6 18 14 29 22 19  4
  22078360.560    -9901902.972 7  -7608086.996 7
  21452252.786     4834490.516 7   3775535.629 8
  21153636.028    -3361614.997 7  -2567503.602 9
  22160685.317     1144508.560 7    920176.159 8
  23245347.138    -9270437.289 6  -7155313.612 6
  25164042.935      -96785.770 3     68971.445 2
 94  1 23 21  0 30.0010000  0  6 18 14 29 22 19  4
  22067647.310    -9958194.883 7  -7651950.786 7
  21466138.396     4907474.958 7   3832406.604 8
  21152484.505    -3367663.577 7  -2572216.770 9
  22170691.974     1197096.170 7    961153.515 8
  23233268.802    -9333901.602 6  -7204766.222 5
  25168348.067      -74156.848 3     86604.344 1
 94  1 23 21  1  0.0010000  0  6 18 14 29 22 19  4
  22056967.646   -10014339.004 7  -7695699.406 7
  21480116.958     4980918.812 7   3889635.558 8
  21151380.028    -3373461.373 7  -2576734.519 9
  22180802.763     1250236.037 7   1002561.203 8
  23221234.958    -9397137.430 6  -7254040.798 6
  25172737.645      -51091.683 3    104577.192 1
 94  1 23 21  1 30.0010000  0  6 18 14 29 22 19  4
  22046305.755   -10070355.613 7  -7739348.677 7
  21494181.403     5054825.273 7   3947224.983 8
  21150320.935    -3379023.782 7  -2581068.853 9
  22191014.114     1303900.220 7   1044377.454 8
  23209243.739    -9460159.648 6  -7303148.941 5
  25177208.567      -27613.107 3    122872.155 1
 94  1 23 21  2  0.0010000  0  6 18 14 29 22 19  4
  22035669.106   -10126260.313 7  -7782910.741 7
  21508334.599     5129193.610 7   4005174.311 8
  21149308.239    -3384355.262 7  -2585223.237 9
  22201322.310     1358070.007 7   1086587.679 8
  23197284.669    -9522983.966 6  -7352102.850 5
  25181748.419       -3729.522 2    141482.683 3
 94  1 23 21  2 30.0010000  0  6 18 14 29 22 19  4
  22025053.130   -10182038.823 7  -7826374.472 7
  21522575.755     5204034.147 7   4063491.593 8
  21148339.739    -3389440.080 7  -2589185.420 9
  22211729.083     1412752.350 7   1129197.301 8
  23185375.536    -9585590.899 6  -7400887.386 6
  25186377.317       20590.164 2    160433.082 1
 94  1 23 21  3  0.0010000  0  6 18 14 29 22 19  4
  22014462.466   -10237689.743 7  -7869738.785 7
  21536904.833     5279345.973 6   4122176.102 8
  21147415.630    -3394291.401 7  -2592965.660 9
  22222229.950     1467937.976 7   1172199.090 8
  23173503.091    -9647972.744 6  -7449496.523 6
  25191089.856          -0.65713
 94  1 23 21  3 30.0010000  0  6 18 14 29 22 19  4
  22003901.895   -10293189.081 7  -7912984.980 7
  21551326.763     5355126.468 7   4181225.819 8
  21146541.114    -3398894.737 7  -2596552.663 9
  22232827.880     1523626.425 7   1215592.686 8
  23161673.489    -9710130.342 6  -7497930.923 6
  25195876.239       25174.237 3
 94  1 23 21  4  0.0010000  0  6 18 14 29 22 19  4
  21993372.872   -10348512.077 7  -7956093.767 7
  21565834.403     5431368.289 6   4240635.004 8
  21145716.833    -3403231.063 7  -2599931.603 9
  22243524.638     1579839.746 7   1259395.276 8
  23149892.091    -9772050.169 6  -7546180.049 6
  25200762.333       50809.007 3        -0.04813
 94  1 23 21  4 30.0010000  0  6 18 14 29 22 19  4
  21982882.841   -10403645.203 7  -7999054.604 7
  21580432.036     5508070.138 7   4300402.651 8
  21144940.911    -3407306.988 7  -2603107.633 9
  22254321.021     1636571.187 7   1303601.587 8
  23138157.130    -9833717.932 6  -7594232.759 6
  25205715.200       76895.660 3     20327.217 3
 94  1 23 21  5  0.0010000  0  6 18 14 29 22 19  4
  21972424.802   -10458608.387 7  -8041883.023 7
  21595113.036     5585216.217 6   4360516.459 8
  21144210.841    -3411147.552 7  -2606100.266 9
  22265209.442     1693796.122 7   1348192.449 8
  23126466.583    -9895159.416 6  -7642109.138 6
  25210762.872      103391.585 3     40973.425 3
 94  1 23 21  5 30.0010000  0  6 18 14 29 22 19  4
  21961998.341   -10513393.971 7  -8084573.046 7
  21609878.810     5662811.667 6   4420980.420 8
  21143526.528    -3414738.164 7  -2608898.141 9
  22276194.130     1751527.526 6   1393177.956 8
  23114812.200    -9956379.379 6  -7689812.921 6
  25215887.489      130312.126 3     61950.416 1
 94  1 23 21  6  0.0010000  0  6 18 14 29 22 19  4
  21951601.122   -10568034.075 7  -8127149.709 7
  21624728.411     5740850.755 6   4481790.070 8
  21142888.013    -3418100.223 7  -2611517.912 9
  22287272.731     1809749.034 7   1438545.360 8
  23103200.841   -10017395.064 6  -7737357.515 6
  25221084.130      157629.191 3     83236.464 1
 94  1 23 21  6 30.0010000  0  6 18 14 29 22 19  4
  21941231.552   -10622523.731 7  -8169609.137 7
  21639665.106     5819357.868 6   4542964.417 8
  21142290.497    -3421220.610 7  -2613949.372 9
  22298449.356     1868474.964 7   1484305.815 8
  23091631.138   -10078201.355 6  -7784738.934 6
  25226354.771      185339.716 3    104829.046 2
 94  1 23 21  7  0.0010000  0  5 18 14 29 22 19
  21930891.794   -10676862.725 7  -8211951.181 7
  21654692.763     5898330.096 6   4604501.194 8
  21141749.231    -3424079.200 7  -2616176.829 9
  22309724.028     1927720.471 7   1530471.130 8
  23080103.114   -10138798.627 6  -7831957.486 6
 94  1 23 21  7 30.0010000  0  6 18 14 29 22 19  4
  21920581.153   -10731049.058 7  -8254174.252 7
  21669808.646     5977750.029 6   4666386.828 8
  21141254.294    -3426673.684 7  -2618198.492 9
  22321095.317     1987483.604 6   1577039.797 8
  23068609.575   -10199193.719 6  -7879018.506 6
  25237124.888          -0.45413
 94  1 23 21  8  0.0010000  0  6 18 14 29 22 19  4
  21910297.989   -10785073.902 7  -8296271.497 7
  21685005.716     6057607.796 7   4728613.635 8
  21140814.091    -3428998.187 7  -2620009.782 9
  22332569.224     2047776.310 7   1624021.108 8
  23057161.403   -10259363.604 6  -7925904.039 6
  25242621.349       28888.241 3        -0.05011
 94  1 23 21  8 30.0010000  0  6 18 14 29 22 19  4
  21900051.646   -10838924.501 7  -8338232.964 7
  21700280.192     6137890.014 6   4791171.180 8
  21140418.755    -3431059.904 7  -2621616.307 9
  22344143.669     2108594.895 6   1671412.188 8
  23045753.817   -10319303.234 6  -7972610.163 5
  25248192.856       58178.821 3     22823.802 1
 94  1 23 21  9  0.0010000  0  6 18 14 29 22 19  4
  21889839.786   -10892591.288 7  -8380051.208 8
  21715641.145     6218597.026 7   4854059.737 8
  21140079.724    -3432853.957 7  -2623014.265 9
  22355813.169     2169925.972 6   1719202.615 8
  23034389.638   -10378998.437 6  -8019125.815 5
  25253853.614       87885.713 3     45971.974 2
 94  1 23 21  9 30.0010000  0  6 18 14 29 22 19  4
  21879659.450   -10946099.397 7  -8421745.794 7
  21731075.981     6299711.798 6   4917266.026 8
  21139783.122    -3434408.086 7  -2624225.264 9
  22367576.474     2231743.296 6   1767371.934 8
  23023073.630   -10438467.146 6  -8065465.002 6
  25259586.763      118002.540 3     69439.654 1
 94  1 23 21 10  0.0010000  0  6 18 14 29 22 19  4
  21869503.630   -10999456.867 7  -8463323.018 7
  21746590.114     6381241.811 7   4980795.882 8
  21139534.638    -3435717.012 7  -2625245.204 9
  22379432.513     2294035.202 6   1815911.060 8
  23011805.052   -10497695.949 6  -8111617.229 6
  25265394.270      148542.699 3     93237.115 2
 94  1 23 21 10 30.0010000  0  6 18 14 29 22 19  4
  21859376.052   -11052662.650 7  -8504782.039 7
  21762186.974     6463205.564 6   5044663.717 8
  21139332.474    -3436772.187 7  -2626067.414 9
  22391371.997     2356787.034 6   1864808.578 8
  23000580.442   -10556690.332 6  -8157586.800 6
  25271289.841      179513.596 3    117370.239 1
 94  1 23 21 11  0.0010000  0  6 18 14 29 22 19  4
  21849285.013   -11105705.807 7  -8546114.336 7
  21777871.341     6545620.340 6   5108882.993 8
  21139183.091    -3437554.462 7  -2626676.970 9
  22403404.614     2420017.115 6   1914078.747 8
  22989400.247   -10615441.036 6  -8203366.492 6
  25277261.958      210913.082 3    141837.374 1
 94  1 23 21 11 30.0010000  0  6 18 14 29 22 19  4
  21839223.880   -11158579.524 7  -8587314.604 8
  21793637.278     6628483.244 6   5173451.473 8
  21139086.474    -3438068.598 7  -2627077.593 9
  22415528.942     2483732.635 6   1963727.181 8
  22978262.599   -10673957.357 6  -8248963.543 6
  25283312.403      242722.785 3    166624.157 1
 94  1 23 21 12  0.0010000  0  6 18 14 29 22 19  4
  21829198.372   -11211256.197 7  -8628361.328 8
  21809493.099     6711792.121 6   5238367.449 8
  21139039.208    -3438312.792 7
  22427743.614     2547938.339 6   2013757.581 8
  22967174.364   -10732236.041 6  -8294375.425 6
  25289444.583      274926.417 3    191717.817 1
 94  1 23 21 12 30.0010000  0  6 18 14 29 22 19  4
  21819276.560   -11263398.323 7  -8668991.523 7
  21825490.614     6795875.500 6   5303886.943 8
  21139103.731    -3437968.309 7
  22440123.833     2612964.337 6   2064427.176 8
  22956187.489   -10789960.038 6  -8339355.081 6
  25295703.880      307832.508 3    217358.950 1
 94  1 23 21 13  0.0010000  0  6 18 14 29 22 19  4
  21809441.763   -11315083.845 7  -8709265.929 7
  21841621.005     6880633.290 6   5369931.941 8
  21139264.685    -3437128.433 7  -2626344.984 9
  22452636.341     2678728.536 6   2115671.983 8
  22945291.427   -10847220.408 6  -8383973.469 6
  25302085.536      341348.758 3    243475.440 1
 94  1 23 21 13 30.0010000  0  7 27 18 14 29 22 19  4
  25515297.271          -0.40013
  21799642.536   -11366578.145 7  -8749391.327 7
  21857828.716     6965794.777 6   5436291.515 8
  21139469.864    -3436042.281 7  -2625498.624 9
  22465240.083     2744970.816 6   2167289.321 7
  22934437.685   -10904276.200 6  -8428432.439 6
  25308533.731      375228.593 3    269875.306 2
 94  1 23 21 14  0.0010000  0  7 27 18 14 29 22 19  4
  25500355.856      -78497.575 3
  21789877.685   -11417897.093 7  -8789380.082 8
  21874108.724     7051351.748 6   5502959.253 8
  21139724.317    -3434704.616 7  -2624456.283 9
  22477937.528     2811693.085 6   2219280.681 7
  22923616.645   -10961122.255 6  -8472727.982 6
  25315051.528      409488.405 3    296571.237 1
 94  1 23 21 14 30.0010000  0  7 27 18 14 29 22 19  4
  25485436.966     -156900.187 3        -0.40211
  21780142.052   -11469046.544 7  -8829236.759 8
  21890463.747     7137307.171 6   5569937.468 8
  21140034.060    -3433089.483 7  -2623197.740 9
  22490728.599     2878904.721 6   2271653.363 8
  22912845.677   -11017741.913 6  -8516847.118 6
  25321654.505      444155.058 3    323584.209 1
 94  1 23 21 15  0.0010000  0  7 27 18 14 29 22 19  4
  25470534.481     -235228.676 3    -61035.409 1
  21770440.474   -11520038.324 7  -8868970.585 8
  21906891.106     7223639.751 6   5637209.572 8
  21140395.802    -3431189.310 7  -2621717.080 9
  22503611.450     2946602.237 6   2324404.657 8
  22902110.130   -11074134.930 6  -8560789.655 6
  25328323.146      479229.033 3    350914.546 1
 94  1 23 21 15 30.0010000  0  7 27 18 14 29 22 19  4
  25455644.427     -313484.050 3   -122013.372 2
  21760762.739   -11570879.585 7  -8908587.124 7
  21923392.278     7310347.260 6   5704773.837 8
  21140813.122    -3428998.326 7  -2620009.818 9
  22516582.942     3014775.546 6   2377526.692 8
  22891425.028   -11130297.315 6  -8604552.473 6
  25335069.927      514707.158 3    378559.789 2
 94  1 23 21 16  0.0010000  0  6 27 18 14 29 22 19
  25440768.114     -391648.213 3   -182920.305 2
  21751127.560   -11621526.561 7  -8948052.264 8
  21939969.841     7397467.413 6   5772659.633 8
  21141289.583    -3426489.992 7  -2618055.269 9
  22529648.145     3083424.837 6   2431019.619 8
  22880782.802   -11186204.868 6  -8648116.724 6
 94  1 23 21 16 30.0010000  0  6 27 18 14 29 22 19
  25425911.528     -469731.410 3   -243764.115 2
  21741526.567   -11671980.680 7  -8987367.130 8
  21956626.341     7484992.128 6   5840860.674 7
  21141828.700    -3423666.053 7  -2615854.792 9
  22542798.661     3152525.010 6   2484863.890 7
  22870191.677   -11241868.204 6  -8691490.684 6
 94  1 23 21 17  0.0010000  0  7 27 18 14 28 29 22 19
  25411069.380     -547726.105 3   -304538.975 1
  21731964.560   -11722231.619 7  -9026523.675 8
  21973358.825     7572932.816 6   5909385.855 8
  25376190.255          -0.88313
  21142423.028    -3420536.725 7  -2613416.353 9
  22556030.442     3222068.671 6   2539053.742 7
  22859645.239   -11297296.368 6  -8734681.401 6
 94  1 23 21 17 30.0010000  0  7 27 18 14 28 29 22 19
  25396242.044     -625625.748 3   -365239.734 2
  21722438.974   -11772280.083 7  -9065522.451 8
  21990174.286     7661288.060 6   5978234.051 8
  25364414.895      -61834.371 3        -0.03612
  21143074.302    -3417112.600 7  -2610748.205 9
  22569349.005     3292047.511 6   2593582.692 7
  22849140.114   -11352495.548 6  -8777693.676 6
 94  1 23 21 18  0.0010000  0  7 27 18 14 28 29 22 19
  25381440.528     -703418.183 3   -425857.030 1
  21712953.388   -11822119.804 7  -9104358.567 8
  22007066.810     7750063.228 6   6047409.472 7
  25352672.528     -123583.776 3    -48116.343 2
  21143781.708    -3413392.310 7  -2607849.273 9
  22582751.575     3362483.199 6   2648467.623 7
  22838682.825   -11407463.014 6  -8820525.419 6
 94  1 23 21 18 30.0010000  0  7 27 18 14 28 29 22 19
  25366655.263     -781095.145 2   -486384.317 1
  21703508.481   -11871758.543 7  -9143038.076 8
  22024039.888     7839246.494 6   6116902.883 7
  25340941.935     -185236.750 3    -96157.547 2
  21144544.021    -3409389.870 7  -2604730.483 9
  22596242.747     3433388.499 6   2703718.498 7
  22828263.153   -11462205.922 6  -8863182.181 6
 94  1 23 21 19  0.0010000  0  7 27 18 14 28 29 22 19
  25351897.396     -858635.430 2   -546805.104 1
  21694110.216   -11921165.416 7  -9181536.912 8
  22041092.997     7928860.468 6   6186731.921 7
  25329230.692     -246756.407 3   -144094.859 3
  21145360.497    -3405099.015 7  -2601386.959 9
  22609830.669     3504791.551 6   2759357.230 7
  22817889.583   -11516711.656 6  -8905654.126 6
 94  1 23 21 19 30.0010000  0  7 27 18 14 28 29 22 19
  25337170.372     -936057.975 3   -607134.154 1
  21684746.614   -11970356.930 7  -9219867.948 8
  22058224.513     8018887.057 6   6256882.473 7
  25317553.653     -308141.002 3   -191926.944 2
  21146229.958    -3400530.732 7  -2597827.251 9
  22623508.974     3576685.238 6   2815378.273 7
  22807562.544   -11570991.534 6  -8947950.082 6
 94  1 23 21 20  0.0010000  0  7 27 18 14 28 29 22 19
  25322451.747    -1013368.804 2   -667376.157 1
  21675429.739   -12019319.795 7  -9258020.802 8
  22075432.333     8109335.200 6   6327361.507 7
  25305903.505     -369371.010 4   -239638.620 1
  21147151.028    -3395675.164 7  -2594043.679 9
  22637286.224     3649060.083 6   2871774.255 7
  22797278.310   -11625038.931 6  -8990064.885 6
 94  1 23 21 20 30.0010000  0  7 27 18 14 28 29 22 19
  25307767.099    -1090579.338 3   -727539.960 1
  21666157.442   -12068047.695 7  -9295990.570 8
  22092725.927     8200200.647 6   6398165.710 7
  25294284.802     -430444.062 3   -287228.021 1
  21148131.935    -3390531.666 7  -2590035.755 9
  22651143.349     3721893.601 6   2928527.636 7
  22787035.528   -11678847.115 6  -9031993.300 6
 94  1 23 21 21  0.0010000  0  6 18 14 28 29 22 19
  21656927.271   -12116552.355 7  -9333786.380 8
  22110096.646     8291472.492 6   6469286.584 7
  25282685.005     -491366.568 3   -334700.078 1
  21149168.153    -3385095.031 7  -2585799.410 9
  22665087.911     3795177.154 6   2985631.697 7
  22776846.114   -11732403.268 6  -9073725.323 6
 94  1 23 21 21 30.0010000  0  7 27 18 14 28 29 22 19
  25278438.177      -77024.636 2
  21647731.005   -12164869.767 7  -9371436.283 8
  22127531.044     8383103.302 6   6540687.176 7
  25271111.872     -552168.355 3   -382078.138 1
  21150254.778    -3379378.524 7  -2581344.989 9
  22679114.489     3868875.748 6   3043059.166 7
  22766704.083   -11785716.606 6  -9115268.139 6
 94  1 23 21 22  0.0010000  0  7 27 18 14 28 29 22 19
  25263789.380     -153946.925 2        -0.09911
  21638575.333   -12212987.807 7  -9408930.821 8
  22145036.489     8475086.858 6   6612362.636 7
  25259567.763     -612840.136 3   -429354.895 2
  21151399.474    -3373371.382 7  -2576664.098 9
  22693213.310     3942986.531 6   3100807.807 7
  22756605.403   -11838775.052 6  -9156612.334 6
 94  1 23 21 22 30.0010000  0  7 27 18 14 28 29 22 19
  25249183.231     -230736.145 2    -59835.587 2
  21629456.200   -12260904.658 7  -9446268.599 8
  22162606.872     8567427.460 6   6684316.320 7
  25248046.786     -673376.368 3   -476526.068 2
  21152598.388    -3367055.011 7  -2571742.237 9
  22707405.028     4017547.435 6   3158907.198 7
  22746557.489   -11891560.780 6  -9197744.014 6
 94  1 23 21 23  0.0010000  0  7 27 18 14 28 29 22 19
  25234595.716     -307395.146 2   -119569.552 2
  21620375.935   -12308634.191 7  -9483460.410 8
  22180241.442     8660104.682 6   6756532.289 7
  25236553.567     -733794.188 4   -523604.944 2
  21153858.060    -3360436.810 7  -2566585.196 9
  22721680.185     4092557.573 6   3217356.633 7
  22736561.138   -11944095.286 6  -9238679.951 6
 94  1 23 21 23 30.0010000  0  7 27 18 14 28 29 22 19
  25220029.880     -383923.560 2   -179201.871 2
  21611332.325   -12356153.022 7  -9520488.038 8
  22197944.310     8753133.213 6   6829022.011 7
  25225083.036     -794062.427 3   -570567.239 2
  21155177.435    -3353503.240 7  -2561182.416 9
  22736038.942     4168022.555 6   3276160.495 7
  22726608.646   -11996388.304 6  -9279427.701 6
 94  1 23 21 24  0.0010000  0  7 27 18 14 28 29 22 19
  25205494.731     -460308.812 3   -238722.611 2
  21602335.849   -12403428.661 7  -9557326.163 8
  22215725.333     8846556.262 6   6901819.148 7
  25213649.911     -854143.256 3   -617383.430 3
  21156563.505    -3346225.845 7  -2555511.718 9
  22750490.122     4243970.642 6   3335340.798 7
  22716705.653   -12048434.697 6  -9319983.278 6
 94  1 23 21 24 30.0010000  0  7 27 18 14 28 29 22 19
  25190981.185     -536574.174 3   -298149.935 2
  21593382.974   -12450482.619 7  -9593991.543 8
  22233577.591     8940373.726 6   6974923.625 7
  25202251.755     -914040.979 3   -664056.884 2
  21158009.786    -3338622.300 7  -2549586.884 9
  22765032.880     4320378.200 6   3394879.118 7
  22706845.356   -12100259.660 6  -9360366.316 6
 94  1 23 21 25  0.0010000  0  7 27 18 14 28 29 22 19
  25176490.380     -612723.691 3   -357486.969 1
  21584474.958   -12497283.439 7  -9630459.685 8
  22251508.716     9034609.266 6   7048353.875 7
  25190891.731     -973732.877 3   -710569.877 3
  21159518.263    -3330691.059 7  -2543406.699 9
  22779658.075     4397233.924 6   3454766.659 7
  22697028.138   -12151857.058 6  -9400572.032 6
 94  1 23 21 25 30.0010000  0  7 27 18 14 28 29 22 19
  25162021.606     -688768.036 3   -416742.096 2
  21575616.036   -12543840.207 7  -9666737.649 8
  22269520.708     9129263.182 6   7122110.126 7
  25179569.083    -1033227.394 3   -756929.029 2
  21161090.763    -3322436.830 7  -2536974.832 9
  22794365.411     4474525.341 6   3514993.701 7
  22687252.560   -12203229.496 6  -9440602.445 6
 94  1 23 21 26  0.0010000  0  7 27 18 14 28 29 22 19
  25147566.489     -764712.296 3   -475919.258 2
  21566803.239   -12590146.398 7  -9702820.357 8
  22287613.771     9224328.914 6   7196187.278 7
  25168278.966    -1092547.363 3   -803152.116 2
  21162719.060    -3313871.702 7  -2530300.706 9
  22809155.880     4552249.942 6   3575558.299 7
  22677521.849   -12254362.877 6  -9480446.586 6
 94  1 23 21 26 30.0010000  0  7 27 18 14 28 29 22 19
  25133130.161     -840584.460 3   -535040.253 2
  21558038.505   -12636212.822 7  -9738716.246 8
  22305775.333     9319772.380 6   7270558.764 7
  25157015.942    -1151721.286 3   -849261.425 2
  21164404.013    -3305022.192 7  -2523404.974 9
  22824023.935     4630387.963 6   3636445.033 7
  22667835.583   -12305264.112 6  -9520109.833 6
 94  1 23 21 27  0.0010000  0  7 27 18 14 28 29 22 19
  25118711.192     -916365.427 3   -594090.164 1
  21549323.458   -12682015.608 7  -9774406.699 8
  22324004.466     9415581.911 6   7345215.494 7
  25145792.091    -1210747.913 3   -895255.908 2
  21166146.802    -3295862.244 7  -2516267.364 9
  22838979.036     4708962.545 6   3697671.949 7
  22658193.435   -12355913.773 6  -9559577.054 6
 94  1 23 21 27 30.0010000  0  7 27 18 14 28 29 22 19
  25104309.950     -992019.601 3   -653041.238 3
  21540660.481   -12727538.048 7  -9809878.705 8
  22342307.731     9511766.479 6   7420164.464 7
  25134586.052    -1269601.002 3   -941115.206 3
  21167955.028    -3286361.205 7  -2508863.945 9
  22854017.974     4788001.786 6   3759260.932 7
  22648608.349   -12406284.996 6  -9598827.299 6
 94  1 23 21 28  0.0020000  0  7 27 18 14 28 29 22 19
  25089940.416    -1067553.564 3   -711898.701 2
  21532049.908   -12772787.024 7  -9845137.617 8
  22360682.057     9608322.147 6   7495402.597 7
  25123428.236    -1328267.338 3   -986829.009 3
  21169825.564    -3276526.160 7  -2501200.277 9
  22869144.385     4867491.334 6   3821200.807 7
  22639074.541   -12456382.754 6  -9637864.474 6
 94  1 23 21 28 30.0020000  0  7 27 18 14 28 29 22 19
  25075595.330    -1142938.220 3   -770639.779 3
  21523488.822   -12817773.982 7  -9880192.365 8
  22379128.736     9705249.383 6   7570930.281 7
  25112305.197    -1386711.971 3  -1032370.131 2
  21171763.486    -3266342.961 7  -2493265.306 9
  22884357.033     4947433.431 6   3883493.325 7
  22629596.447   -12506206.858 6  -9676688.406 6
 94  1 23 21 29  0.0020000  0  7 27 18 14 28 29 22 19
  25061282.854    -1218145.820 3   -829242.907 2
  21514975.479   -12862509.586 7  -9915051.251 8
  22397642.557     9802558.467 6   7646755.494 7
  25101225.721    -1444920.198 3  -1077727.035 4
  21173767.314    -3255809.483 7  -2485057.395 9
  22899655.541     5027826.065 6   3946136.906 7
  22620168.760   -12555754.463 6  -9715296.888 6
 94  1 23 21 29 30.0020000  0  7 27 18 14 28 29 22 19
  25047007.205    -1293176.966 4   -887708.514 3
  21506509.400   -12906991.665 7  -9949712.584 8
  22416236.010     9900256.489 6   7722883.779 7
  25090194.697    -1502881.293 3  -1122891.384 3
  21175835.619    -3244934.778 7  -2476583.598 9
  22915035.908     5108658.529 6   4009123.218 7
  22610793.885   -12605020.656 6  -9753686.083 6
 94  1 23 21 30  0.0020000  0  7 27 18 14 28 29 22 19
  25032761.541    -1368036.582 3   -946040.493 3
  21498092.807   -12951215.459 7  -9984172.661 8
  22434899.346     9998336.778 6   7799309.936 7
  25079209.916    -1560597.529 3  -1167864.969 4
  21177972.752    -3233713.756 7  -2467839.937 9
  22930500.330     5189923.524 6   4072446.571 7
  22601471.885   -12654010.902 6  -9791860.252 6
 94  1 23 21 30 30.0020000  0  7 27 18 14 28 29 22 19
  25018545.104    -1442734.237 4  -1004246.210 5
  21489728.393   -12995183.448 7 -10018433.407 8
  22453632.010    10096771.069 6   7876011.938 7
  25068275.041    -1618101.372 4  -1212673.092 4
  21180170.689    -3222160.390 7  -2458837.312 9
  22946046.729     5271616.705 6   4136103.565 7
  22592195.338   -12702743.316 6  -9829833.531 6
 94  1 23 21 31  0.0020000  0  7 27 18 14 28 29 22 19
  25004354.385    -1517272.158 3  -1062327.494 4
  21481418.510   -13038857.399 7 -10052465.031 8
  22472431.721    10195559.501 6   7952989.894 7
  25057370.932    -1675396.770 4  -1257318.804 4
  21182436.650    -3210257.724 7  -2449562.503 9
  22961673.955     5353741.217 6   4200096.667 7
  22582973.416   -12751198.491 6  -9867590.766 6
 94  1 23 21 31 30.0020000  0  7 27 18 14 28 29 22 19
  24990201.439    -1591679.387 4  -1120306.947 5
  21473163.674   -13082238.349 7 -10086268.348 8
  22491295.260    10294691.897 6   8030235.876 7
  25046498.596    -1732500.925 4  -1301815.542 4
  21184767.002    -3198004.669 7  -2440014.665 9
  22977379.525     5436278.449 6   4264411.365 7
  22573799.791   -12799398.109 6  -9905148.868 6
 94  1 23 21 32  0.0020000  0  7 27 18 14 28 29 22 19
  24976067.135    -1665960.478 3  -1178188.116 4
  21464963.385   -13125333.059 7 -10119848.621 8
  22510226.494    10394177.951 6   8107757.432 7
  25035668.846    -1789411.492 4  -1346161.434 4
  21187165.947    -3185404.104 7  -2430196.049 9
  22993166.174     5519234.626 6   4329052.508 7
  22564676.010   -12847351.843 6  -9942515.376 6
 94  1 23 21 32 30.0020000  0  7 27 18 14 28 29 22 19
  24961954.119    -1740105.785 4  -1235963.509 4
  21456816.041   -13168140.922 7 -10153205.374 8
  22529227.307    10494028.561 6   8185563.064 7
  25024882.033    -1846112.261 4  -1390343.873 5
  21189630.549    -3172454.155 7  -2420105.178 9
  23009035.666     5602623.421 6   4394030.756 7
  22555601.807   -12895044.347 6  -9979678.331 6
 94  1 23 21 33  0.0020000  0  7 27 18 14 28 29 22 19
  24947874.596    -1814119.610 4  -1293636.424 5
  21448723.346   -13210665.023 7 -10186341.020 8
  22548302.393    10594255.963 6   8263662.299 7
  25014135.580    -1902583.585 4  -1434347.506 4
  21192160.705    -3159148.146 7  -2409736.861 9
  23024984.455     5686445.299 6   4459346.470 7
  22546579.924   -12942469.066 6 -10016632.620 6
 94  1 23 21 33 30.0020000  0  7 27 18 14 28 29 22 19
  24933807.908    -1888019.429 4  -1351220.549 5
  21440677.799   -13252942.231 7 -10219284.283 8
  22567440.799    10694843.840 6   8342042.419 7
  25003435.705    -1958826.947 4  -1478173.515 5
  21194756.877    -3145512.842 7  -2399111.954 9
  23041014.908     5770684.298 6   4524987.222 7
  22537598.057   -12989656.748 6 -10053402.199 7
 94  1 23 21 34  0.0020000  0  7 27 18 14 28 29 22 19
  24919773.135    -1961793.113 4  -1408706.373 4
  21432683.385   -13294961.212 7 -10252026.325 8
  22586650.947    10795786.742 6   8420699.182 7
  24992783.189    -2014821.295 4  -1521805.503 4
  21197413.643    -3131549.798 7  -2388231.671 9
  23057128.127     5855356.225 6   4590965.312 7
  22528663.361   -13036597.946 6 -10089979.723 7
 94  1 23 21 34 30.0020000  0  7 27 18 14 28 29 22 19
  24905755.330    -2035435.918 4  -1466090.237 3
  21424738.541   -13336713.189 7 -10284560.316 8
  22605924.236    10897069.773 6   8499620.986 6
  24982172.010    -2070560.014 5  -1565238.269 4
  21200135.166    -3117249.792 7  -2377088.816 9
  23073320.674     5940450.599 6   4657272.590 7
  22519778.604   -13083290.177 6 -10126363.242 7
 94  1 23 21 35  0.0020000  0  7 27 18 14 28 29 22 19
  24891769.361    -2108931.798 3  -1523359.618 3
  21416848.229   -13378164.279 7 -10316859.854 8
  22625266.900    10998713.685 6   8578823.988 7
  24971618.728    -2126019.289 5  -1608453.267 5
  21202928.377    -3102577.482 7  -2365655.860 9
  23089597.408     6025981.098 6   4723919.693 6
  22510943.666   -13129726.567 6 -10162547.407 7
 94  1 23 21 35 30.0020000  0  7 27 18 14 28 29 22 19
  24877812.705    -2182275.709 3  -1580510.561 4
  21409017.486   -13419312.867 7 -10348923.681 8
  22644672.924    11100702.217 6   8658295.534 7
  24961117.994    -2181201.854 4  -1651452.642 4
  21205792.260    -3087528.942 7  -2353929.733 9
  23105952.486     6111930.673 6   4790893.354 6
  22502155.525   -13175916.927 6 -10198539.854 6
 94  1 23 21 36  0.0020000  0  7 27 18 14 28 29 22 19
  24863881.478    -2255470.312 3  -1637545.190 4
  21401246.018   -13460161.677 7 -10380753.900 9
  22664147.432    11203020.811 6   8738024.265 6
  24950663.158    -2236119.241 4  -1694245.336 3
  21208724.494    -3072110.351 7  -2341915.258 9
  23122384.760     6198286.974 6   4858183.944 6
  22493410.752   -13221852.798 6 -10234333.993 6
 94  1 23 21 36 30.0020000  0  7 27 18 14 28 29 22 19
  24849982.807    -2328503.715 3  -1694454.162 3
  21393530.197   -13500706.686 7 -10412347.399 8
  22683680.064    11305683.613 6   8818021.213 6
  24940266.877    -2290767.600 4  -1736828.395 4
  21211733.830    -3056297.401 7  -2329593.491 9
  23138899.236     6285051.333 6   4925792.512 6
  22484723.580   -13267509.285 6 -10269910.427 7
 94  1 23 21 37  0.0020000  0  7 27 18 14 28 29 22 19
  24836112.674    -2401397.376 3  -1751254.255 2
  21385867.611   -13540971.734 7 -10443722.739 9
  22703276.385    11408664.131 6   8898265.723 7
  24929916.674    -2345173.420 5  -1779222.461 4
  21214813.760    -3040114.052 7  -2316983.089 9
  23155481.104     6372197.622 6   4993698.690 6
  22476088.447   -13312894.909 6 -10305275.793 7
 94  1 23 21 37 30.0020000  0  7 27 18 14 28 29 22 19
  24822275.650    -2474142.330 3  -1807938.512 2
  21378259.338   -13580953.256 7 -10474877.161 9
  22722938.205    11511973.556 6   8978766.533 6
  24919609.479    -2399320.885 4  -1821415.221 5
  21217962.330    -3023566.964 7  -2304089.263 9
  23172136.666     6459730.833 6   5061906.359 6
  22467507.002   -13357976.066 6 -10340403.899 7
 94  1 23 21 38  0.0020000  0  7 27 18 14 28 29 22 19
  24808455.572    -2546759.190 3  -1864522.895 1
  21370702.971   -13620665.828 7 -10505822.002 9
  22742657.541    11615599.389 6   9059513.897 6
  24909355.471    -2453228.470 5  -1863421.060 4
  21221176.275    -3006682.005 7  -2290932.161 9
  23188863.291     6547637.619 6   5130405.125 6
  22458983.877   -13402767.046 6 -10375305.906 7
 94  1 23 21 38 30.0020000  0  7 27 18 14 28 29 22 19
  24794663.252    -2619239.400 3  -1921000.807 2
  21363198.299   -13660097.341 7 -10536547.830 9
  22762438.275    11719553.232 6   9140516.850 6
  24899142.174    -2506874.384 5  -1905223.033 4
  21224456.463    -2989440.836 7  -2277497.490 9
  23205665.197     6635918.238 6   5199195.191 6
  22450519.424   -13447269.539 6 -10409983.107 7
 94  1 23 21 39  0.0020000  0  8 27 18 14 28 29 22 19 31
  24780889.338    -2691579.125 3  -1977369.263 1
  21355750.814   -13699237.998 7 -10567047.018 9
  22782281.494    11823839.229 6   9221778.621 6
  24888984.408    -2560237.315 4  -1946804.492 5
  21227804.010    -2971853.493 7  -2263793.063 9
  23222536.814     6724580.896 6   5268282.938 6
  22442100.447   -13491498.660 6 -10444447.297 7
  25236684.229          -0.10713
 94  1 23 21 39 30.0020000  0  8 27 18 14 28 29 22 19 31
  24767159.557    -2763755.970 3  -2033610.812 1
  21348362.080   -13738070.778 7 -10597306.310 9
  22802194.939    11928477.295 6   9303314.729 6
  24878888.877    -2613301.431 4  -1988153.102 5
  21231219.174    -2953904.178 7  -2249806.582 9
  23239484.650     6813639.340 6   5337679.099 6
  22433732.463   -13535461.217 6 -10478703.770 7
  25222089.627      -76694.279 3        -0.46411
 94  1 23 21 40  0.0020000  0  8 27 18 14 28 29 22 19 31
  24753457.736    -2835768.476 3  -2089724.265 2
  21341026.822   -13776602.485 7 -10627330.988 9
  22822168.822    12033443.943 6   9385106.882 6
  24868844.760    -2666080.868 4  -2029279.902 5
  21234704.564    -2935591.129 7  -2235536.670 9
  23256504.744     6903075.310 6   5407369.430 6
  22425417.072   -13579182.300 6 -10512772.088 7
  25207483.822     -153424.333 3    -59789.943 2
 94  1 23 21 40 30.0020000  0  8 27 18 14 28 29 22 19 31
  24739783.135    -2907613.522 3  -2145707.274 3
  21333755.252   -13814827.655 7 -10657116.818 9
  22842209.471    12138747.927 6   9467161.887 6
  24858857.736    -2718567.186 4  -2070178.285 5
  21238259.393    -2916904.026 7  -2220975.298 9
  23273595.236     6992900.941 6   5477363.381 6
  22417141.221   -13622649.905 6 -10546642.893 7
  25192886.494     -230164.550 4   -119587.359 2
 94  1 23 21 41  0.0020000  0  8 27 18 14 28 29 22 19 31
  24726141.408    -2979308.020 4  -2201572.932 2
  21326538.127   -13852756.579 7 -10686671.794 9
  22862306.049    12244374.059 6   9549467.928 6
  24848920.268    -2770790.810 4  -2110871.980 5
  21241883.510    -2897863.447 7  -2206138.469 9
  23290760.182     7083096.103 6   5547645.291 6
  22408917.658   -13665873.690 6 -10580323.711 7
  25178279.260     -306913.596 4   -179391.653 1
 94  1 23 21 41 30.0020000  0  8 27 18 14 28 29 22 19 31
  24712526.900    -3050845.994 4  -2257316.664 2
  21319379.580   -13890373.758 7 -10715983.859 9
  22882467.682    12350319.646 6   9632022.890 6
  24839039.713    -2822752.287 4  -2151361.386 5
  21245577.986    -2878451.250 7  -2191012.072 9
  23307997.025     7173667.395 6   5618220.285 6
  22400744.838   -13708824.941 6 -10613792.162 7
  25163675.939     -383650.346 4   -239186.362 1
 94  1 23 21 42  0.0020000  0  8 27 18 14 28 29 22 19 31
  24698941.588    -3122250.818 5  -2312956.621 2
  21312277.900   -13927689.688 7 -10745061.183 9
  22902687.893    12456569.167 6   9714814.687 6
  24829199.854    -2874444.481 4  -2191640.979 5
  21249339.158    -2858676.029 7  -2175602.799 9
  23325301.611     7264611.104 6   5689085.466 6
  22392622.986   -13751502.844 6 -10647047.615 7
  25149076.244     -460366.513 4   -298965.079 2
 94  1 23 21 42 30.0020000  0  8 27 18 14 28 29 22 19 31
  24685375.846    -3193519.371 5  -2368490.435 4
  21305234.354   -13964698.643 7 -10773899.310 9
  22922965.549    12563128.522 6   9797847.909 6
  24819409.799    -2925862.028 4  -2231706.534 5
  21253172.182    -2838539.391 7  -2159911.895 9
  23342681.564     7355941.784 6   5760252.182 6
  22384552.518   -13793908.639 6 -10680091.045 7
  25134482.510     -537036.196 3   -358707.543 1
 94  1 23 21 43  0.0020000  0  8 27 18 14 28 29 22 19 31
  24671840.775    -3264648.832 5  -2423915.839 4
  21298251.627   -14001396.215 7 -10802494.796 9
  22943296.869    12669970.699 6   9881101.507 6
  24809682.377    -2977007.429 4  -2271560.041 5
  21257073.713    -2818044.458 7  -2143941.807 9
  23360131.744     7447646.864 6   5831710.649 6
  22376533.127   -13836058.376 6 -10712934.945 7
  25119906.814     -613670.483 3   -418422.426 2
 94  1 23 21 43 30.0020000  0  8 27 18 14 28 29 22 19 31
  24658332.799    -3335646.010 5  -2479238.146 4
  21291329.385   -14037785.242 7 -10830849.866 9
  22963681.127    12777080.283 6   9964563.488 6
  24799999.408    -3027879.077 5  -2311200.232 4
  21261039.814    -2797195.545 7  -2127695.892 9
  23377656.830     7539732.890 6   5903465.948 6
  22368554.650   -13877968.697 6 -10745592.311 7
  25105328.174     -690276.454 3   -478115.268 2
 94  1 23 21 44  0.0020000  0  8 27 18 14 28 29 22 19 31
  24644849.400    -3406482.290 5  -2534435.111 5
  21284462.971   -14073851.112 7 -10858953.118 9
  22984116.580    12884473.090 6  10048246.149 6
  24790375.822    -3078463.773 3  -2350616.804 5
  21265076.338    -2775977.772 7  -2111162.549 9
  23395252.268     7632202.094 6   5975519.825 6
  22360630.064   -13919638.445 6 -10778062.213 7
  25090754.291     -766865.200 3   -537794.722 2
 94  1 23 21 44 30.0020000  0  8 27 18 14 28 29 22 19 31
  24631405.604    -3477167.217 5  -2589514.118 5
  21277663.564   -14109595.411 7 -10886805.802 9
  23004604.674    12992143.909 6  10132145.445 6
  24780796.525    -3128778.409 4  -2389822.944 5
  21269184.580    -2754397.210 7  -2094346.518 9
  23412921.096     7725040.195 6   6047861.172 6
  22352742.432   -13961072.989 6 -10810348.829 7
  25076180.424     -843462.293 3   -597480.665 1
 94  1 23 21 45  0.0020000  0  8 27 18 14 28 29 22 19 31
  24617979.783    -3547701.398 5  -2644475.688 4
  21270925.728   -14145007.128 7 -10914399.328 9
  23025149.650    13100097.529 6  10216265.102 6
  24771280.111    -3178795.580 4  -2428797.295 4
  21273359.424    -2732446.494 7  -2077242.046 9
  23430652.689     7818241.666 6   6120485.641 6
  22344902.705   -14002257.783 6 -10842440.847 7
  25061598.518     -920067.699 3   -657173.110 2
 94  1 23 21 45 30.0020000  0  8 27 18 14 28 29 22 19 31
  24604585.838    -3618094.045 5  -2699326.957 5
  21264243.713   -14180097.346 7 -10941742.331 9
  23045747.041    13208346.728 6  10300615.086 6
  24761816.064    -3228502.626 4  -2467530.018 4
  21277607.783    -2710128.901 7  -2059851.709 9
  23448458.275     7911791.285 6   6193381.404 6
  22337115.775   -14043187.925 6 -10874334.432 7
  25047022.025     -996684.085 3   -716874.133 2
 94  1 23 21 46  0.0020000  0  8 27 18 14 28 29 22 19 31
  24591215.057    -3688354.606 4  -2754075.321 4
  21257626.182   -14214873.675 7 -10968840.754 8
  23066402.354    13316886.291 6  10385191.327 6
  24752428.361    -3277887.342 4  -2506011.532 4
  21281926.525    -2687440.021 7  -2042172.056 9
  23466319.854     8005675.460 6   6266537.864 6
  22329378.666   -14083864.109 6 -10906030.128 7
  25032437.729    -1073309.723 3   -776582.393 2
 94  1 23 21 46 30.0020000  0  8 27 18 14 28 29 22 19 31
  24577865.643    -3758499.274 4  -2808733.386 5
  21251070.275   -14249329.143 7 -10995689.148 8
  23087107.721    13425711.926 6  10469990.469 6
  24743089.025    -3326931.021 4  -2544227.318 4
  21286315.088    -2664376.339 7  -2024200.346 9
  23484245.604     8099884.285 6   6339947.293 6
  22321687.689   -14124281.987 6 -10937524.531 7
  25017862.682    -1149913.592 3   -836273.664 1
 94  1 23 21 47  0.0020000  0  8 27 18 14 28 29 22 19 31
  24564538.541    -3828525.101 5  -2863298.855 5
  21244574.416   -14283473.809 7 -11022295.363 9
  23107865.197    13534785.634 6  10554982.919 6
  24733817.604    -3375649.871 4  -2582189.997 4
  21290771.713    -2640952.363 7  -2005947.899 9
  23502232.564     8194392.558 6   6413590.066 6
  22314041.705   -14164460.582 6 -10968832.483 7
  25003286.143    -1226492.266 3   -895945.277 1
 94  1 23 21 47 30.0020000  0  8 27 18 14 28 29 22 19 31
  24551235.393    -3898423.975 4  -2917765.403 5
  21238137.869   -14317298.444 7 -11048652.191 9
  23128666.830    13644104.689 6  10640166.546 6
  24724604.557    -3424058.177 4  -2619910.691 3
  21295303.002    -2617144.092 7  -1987396.005 9
  23520276.963     8289213.772 6   6487476.683 6
  22306441.502   -14204394.432 6 -10999949.723 7
  24988723.322    -1303026.804 3   -955582.539 1
 94  1 23 21 48  0.0020000  0  8 27 18 14 28 29 22 19 31
  24537961.268    -3968182.084 4  -2972122.261 5
  21231764.174   -14350797.886 7 -11074755.630 8
  23149515.494    13753659.533 6  10725533.916 6
  24715454.525    -3472159.286 4  -2657392.014 4
  21299908.307    -2592943.983 7  -1968538.778 9
  23538382.939     8384357.492 6   6561614.615 6
  22298891.736   -14244072.183 6 -11030867.412 7
  24974160.799    -1379505.523 3  -1015176.289 1
 94  1 23 21 48 30.0020000  0  8 27 18 14 28 29 22 19 31
  24524716.979    -4037790.629 5  -3026362.582 4
  21225446.783   -14383982.905 7 -11100614.063 8
  23170408.814    13863439.491 6  10811076.675 6
  24706353.658    -3519972.650 5  -2694649.145 5
  21304584.541    -2568367.759 7  -1949388.477 8
  23556546.853     8479812.445 6   6635995.053 6
  22291388.369   -14283498.842 6 -11061589.433 7
  24959627.275    -1455931.230 3  -1074728.697 2
 94  1 23 21 49  0.0020000  0  8 27 18 14 28 29 22 19 31
  24511504.502    -4107233.705 4  -3080474.002 5
  21219191.564   -14416855.721 7 -11126229.228 8
  23191345.947    13973466.225 6  10896811.743 6
  24697313.072    -3567492.244 5  -2731677.357 5
  21309336.549    -2543394.171 7  -1929928.542 9
  23574777.314     8575614.668 6   6710646.096 6
  22283935.330   -14322667.814 7 -11092110.658 7
  24945091.166    -1532297.711 3  -1134235.014 1
 94  1 23 21 49 30.0020000  0  8 27 18 14 28 29 22 19 31
  24498312.143    -4176535.559 5  -3134475.374 5
  21212992.627   -14449432.244 7 -11151613.512 9
  23212330.322    14083756.410 6  10982752.088 6
  24688329.439    -3614706.594 5  -2768467.735 3
  21314163.627    -2518028.099 7  -1910162.776 9
  23593074.018     8671759.788 6   6785564.338 6
  22276529.471   -14361584.375 6 -11122435.196 7
  24930565.729    -1608620.571 3  -1193707.263 1
 94  1 23 21 50  0.0020000  0  8 27 18 14 28 29 22 19 31
  24485150.658    -4245705.239 5  -3188373.763 4
  21206847.643   -14481718.079 7 -11176771.293 9
  23233369.900    14194301.167 6  11068890.802 6
  24679400.572    -3661619.732 5  -2805023.406 4
  21319061.158    -2492298.346 7  -1890113.625 9
  23611427.588     8768216.009 6   6860724.991 6
  22269166.291   -14400265.429 6 -11152576.231 7
  24916056.283    -1684912.444 3  -1253155.394 1
 94  1 23 21 50 30.0020000  0  8 27 18 14 28 29 22 19 31
  24472015.900    -4314742.651 5  -3242169.064 4
  21200766.369   -14513694.788 7 -11201688.192 9
  23254451.596    14305105.063 6  11155231.434 6
  24670535.229    -3708217.338 5  -2841333.230 4
  21324028.455    -2466189.920 7  -1869769.410 9
  23629840.080     8864989.605 6   6936132.947 6
  22261847.182   -14438716.917 6 -11182538.378 7
  24901547.518    -1761151.262 3  -1312562.140 2
 94  1 23 21 51  0.0020000  0  8 27 18 14 28 29 22 19 31
  24458899.596    -4383651.982 5  -3295864.598 4
  21194744.314   -14545336.418 7 -11226343.991 9
  23275588.689    14416175.373 6  11241779.671 6
  24661725.127    -3754478.953 5  -2877381.199 4
  21329069.908    -2439696.810 7  -1849125.435 8
  23648320.994     8962091.058 6   7011796.379 6
  22254578.518   -14476919.549 6 -11212306.616 7
  24887054.900    -1837317.231 3  -1371912.153 1
 94  1 23 21 51 30.0020000  0  8 27 18 14 28 29 22 19 31
  24445814.322    -4452428.114 5  -3349456.324 4
  21188786.447   -14576632.556 7 -11250730.580 9
  23296772.549    14527497.452 6  11328524.091 6
  24652987.947    -3800407.741 5  -2913169.862 4
  21334179.979    -2412837.019 7  -1828195.736 9
  23666855.955     9059492.790 6   7087693.783 6
  22247362.166   -14514863.662 6 -11241873.411 7
  24872577.010    -1913405.580 4  -1431201.675 1
 94  1 23 21 52  0.0020000  0  8 27 18 14 28 29 22 19 31
  24432749.885    -4521072.997 5  -3402945.793 4
  21182898.486   -14607585.409 7 -11274849.674 9
  23317998.432    14639040.313 6  11415440.552 6
  24644305.119    -3846017.189 5  -2948709.670 4
  21339357.713    -2385626.152 7  -1806992.470 9
  23685445.189     9157183.198 6   7163816.128 6
  22240181.643   -14552572.382 7 -11271256.786 7
  24858106.822    -1989421.211 3  -1490434.516 1
 94  1 23 21 52 30.0020000  0  8 27 18 14 28 29 22 19 31
  24419711.369    -4589595.055 5  -3456339.541 4
  21177069.791   -14638203.815 7 -11298708.158 9
  23339268.744    14750804.351 6  11502529.348 6
  24635693.275    -3891294.197 5  -2983990.412 5
  21344602.439    -2358070.400 7  -1785520.465 9
  23704093.705     9255175.996 6   7240174.105 6
  22233054.814   -14590049.620 7 -11300459.783 7
  24843653.807    -2065376.253 3  -1549620.140 1
 94  1 23 21 53  0.0020000  0  8 27 18 14 28 29 22 19 31
  24406700.385    -4657988.213 5  -3509632.822 5
  21171310.033   -14668485.954 7 -11322304.628 9
  23360579.994    14862805.389 6  11589802.832 6
  24627140.986    -3936236.895 5  -3019010.648 5
  21349910.510    -2330177.762 7  -1763785.953 9
  23722798.658     9353475.936 6   7316771.409 6
  22225962.564   -14627292.081 7 -11329479.839 7
  24829208.408    -2141284.334 3  -1608769.114 2
 94  1 23 21 53 30.0020000  0  8 27 18 14 28 29 22 19 31
  24393709.939    -4726233.226 5  -3562810.668 5
  21165608.291   -14698432.232 7 -11345639.377 9
  23381937.244    14975051.471 6  11677267.235 6
  24618655.635    -3980830.259 5  -3053758.670 5
  21355286.166    -2301927.396 7  -1741772.696 9
  23741566.104     9452097.940 6   7393619.672 6
  22218924.525   -14664304.608 7 -11358320.737 7
  24814775.260    -2217154.665 4  -1667888.719 2
 94  1 23 21 54  0.0020000  0  8 27 18 14 28 29 22 19 31
  24380747.111    -4794343.979 5  -3615883.909 5
  21159975.744   -14728042.724 7 -11368712.474 9
  23403344.760    15087534.209 6  11764916.061 6
  24610237.830    -4025069.334 5  -3088230.617 5
  21360729.650    -2273314.804 7  -1719477.178 9
  23760394.424     9551052.280 6   7470726.896 6
  22211917.486   -14701104.025 7 -11386995.571 7
  24800343.377    -2292989.286 4  -1726980.472 1
 94  1 23 21 54 30.0020000  0  8 27 18 14 28 29 22 19 31
  24367816.869    -4862317.775 5  -3668850.381 5
  21154405.135   -14757316.047 7 -11391522.841 9
  23424796.221    15200258.600 6  11852753.192 6
  24601887.729    -4068950.740 5  -3122423.851 5
  21366245.182    -2244338.073 7  -1696897.916 8
  23779287.174     9650338.791 6   7548092.944 6
  22204960.627   -14737667.960 7 -11415486.911 7
  24785919.947    -2368767.590 4  -1786028.358 1
 94  1 23 21 55  0.0020000  0  8 27 18 14 28 29 22 19 31
  24354905.471    -4930142.362 5  -3721700.588 5
  21148899.268   -14786241.775 7 -11414062.355 9
  23446291.033    15313216.604 6  11940772.352 6
  24593607.619    -4112478.788 5  -3156341.756 4
  21371832.541    -2214980.714 7  -1674022.070 8
  23798246.533     9749952.134 6   7625713.669 6
  22198052.416   -14773980.738 7 -11443782.542 7
  24771510.861    -2444467.803 4  -1845015.396 1
 94  1 23 21 55 30.0020000  0  8 27 18 14 28 29 22 19 31
  24342025.768    -4997838.213 5  -3774450.473 5
  21143459.658   -14814828.220 7 -11436337.488 9
  23467826.088    15426375.317 6  12028947.905 6
  24585390.557    -4155659.835 5  -3189989.273 5
  21377488.588    -2185251.049 7  -1650856.103 8
  23817256.564     9849854.437 6   7703559.561 6
  22191189.994   -14810052.563 7 -11471890.431 7
  24757128.893    -2520084.177 5  -1903937.095 2
 94  1 23 21 56  0.0020000  0  8 27 18 14 28 29 22 19 31
  24329167.369    -5065416.323 5  -3827108.608 5
  21138085.197   -14843069.364 7 -11458343.558 9
  23489396.182    15539730.995 5  12117276.933 6
  24577235.088    -4198501.895 5  -3223372.636 5
  21383216.268    -2155149.756 7  -1627400.561 8
  23836316.260     9950012.766 6   7781604.951 6
  22184370.916   -14845883.912 7 -11499810.928 7
  24742753.369    -2595604.731 5  -1962784.171 2
 94  1 23 21 56 30.0020000  0  8 27 18 14 28 29 22 19 31
  24316333.283    -5132864.227 5  -3879665.278 5
  21132775.041   -14870975.411 7 -11480088.519 9
  23511002.783    15653286.053 6  12205761.329 5
  24569150.533    -4241000.732 5  -3256488.565 5
  21389017.830    -2124664.857 7  -1603646.105 8
  23855422.744    10050418.079 6   7859842.783 6
  22177600.229   -14881460.458 7 -11527532.879 7
  24728395.088    -2671028.554 4  -2021555.875 2
 94  1 23 21 57  0.0020000  0  8 27 18 14 28 29 22 19 31
  24303517.986    -5200195.962 5  -3932131.427 5
  21127526.572   -14898552.652 7 -11501577.253 9
  23532650.346    15767025.754 5  12294389.604 5
  24561124.604    -4283166.242 5  -3289344.752 5
  21394893.143    -2093789.164 7  -1579587.135 8
  23874573.213    10151058.974 6   7938264.184 6
  22170874.744   -14916805.052 7 -11555074.082 7
  24714066.189    -2746377.205 5  -2080269.009 4
 94  1 23 21 57 30.0020000  0  8 27 18 14 28 29 22 19 31
  24290729.400    -5267390.900 5  -3984490.991 5
  21122341.307   -14925799.204 7 -11522808.309 9
  23554329.478    15880971.891 5  12383178.722 5
  24553173.518    -4324962.634 5  -3321913.335 5
  21400846.877    -2062497.380 7  -1555203.936 8
  23893773.924    10251947.924 6   8016878.883 6
  22164194.854   -14951905.836 7 -11582425.306 7
  24699743.807    -2821626.864 5  -2138905.010 1
 94  1 23 21 58  0.0020000  0  8 27 18 14 28 29 22 19 31
  24277972.955    -5334431.320 5  -4036730.140 5
  21117220.002   -14952717.394 7 -11543783.502 9
  23576054.557    15995127.370 6  12472130.976 5
  24545287.479    -4366372.386 5  -3354180.630 5
  21406883.572    -2030779.996 7  -1530489.099 8
  23913023.361    10353118.128 5   8095712.738 6
  22157562.572   -14986746.580 7 -11609573.896 7
  24685445.869    -2896765.520 5  -2197454.532 2
 94  1 23 21 58 30.0020000  0  8 27 18 14 28 29 22 19 31
  24265244.439    -5401319.313 5  -4088850.506 5
  21112160.729   -14979308.133 7 -11564503.534 9
  23597814.729    16109482.722 5  12561238.973 5
  24537481.502    -4407395.105 5  -3386146.355 5
  21412996.096    -1998657.317 7  -1505458.451 8
  23932333.580    10454581.257 5   8174774.831 6
  22150980.439   -15021327.608 7 -11636520.118 8
  24671165.932    -2971789.838 5  -2255914.995 2
 94  1 23 21 59  0.0020000  0  8 27 18 14 28 29 22 19 31
  24252543.252    -5468071.401 5  -4140865.007 5
  21107164.205   -15005566.860 7 -11584964.864 9
  23619611.260    16224030.903 5  12650497.224 5
  24529752.353    -4448046.023 5  -3417822.374 5
  21419179.658    -1966161.934 7  -1480137.381 8
  23951693.596    10556317.715 5   8254049.917 6
  22144444.791   -15055672.879 7 -11663282.631 7
  24656914.775    -3046700.556 5  -2314286.960 3
 94  1 23 21 59 30.0020000  0  8 27 18 14 28 29 22 19 31
  24239864.307    -5534685.081 5  -4192771.647 5
  21102232.268   -15031476.512 7 -11605154.189 9
  23641450.385    16338780.428 5  12739912.372 6
  24522082.728    -4488322.973 5  -3449206.982 5
  21425431.869    -1933310.287 7  -1454538.690 9
  23971102.666    10658316.583 6   8333529.496 5
  22137961.002   -15089774.217 7 -11689855.067 8
  24642678.377    -3121489.636 4  -2372564.111 1
 94  1 23 22  0  0.0020000  0  8 27 18 14 28 29 22 19 31
  24227215.205    -5601177.756 5  -4244583.989 5
  21097376.213   -15057006.174 7 -11625047.416 9
  23663321.893    16453719.707 5  12829475.371 5
  24514488.760    -4528252.079 5  -3480320.541 5
  21431746.002    -1900123.421 7  -1428678.796 8
  23990561.721    10760569.036 6   8413206.666 5
  22131511.971   -15123638.136 7 -11716242.500 8
  24628466.205    -3196177.266 5  -2430762.235 4
 94  1 23 22  0 30.0020000  0  8 27 18 14 28 29 22 19 31
  24214576.369    -5667575.783 5  -4296322.578 5
  21092587.486   -15082159.205 7 -11644647.161 9
  23685227.768    16568848.926 5  12919186.380 5
  24506947.939    -4567866.124 5  -3511188.587 5
  21438122.236    -1866617.014 7  -1402569.913 8
  24010062.689    10863044.402 6   8493057.540 5
  22125111.963   -15157290.187 7 -11742464.838 8
  24614275.924    -3270782.232 5  -2488895.981 2
 94  1 23 22  1  0.0020000  0  8 27 18 14 28 29 22 19 31
  24201964.885    -5733843.084 5  -4347959.309 5
  21087881.244   -15106912.355 7 -11663935.310 9
  23707178.986    16684187.436 5  13009060.471 5
  24499476.377    -4607127.144 5  -3541781.547 5
  21444569.447    -1832741.644 7  -1376173.524 9
  24029611.721    10965775.391 6   8573107.603 6
  22118748.541   -15190704.863 7 -11768502.218 8
  24600096.799    -3345277.610 4  -2546944.290 3
 94  1 23 22  1 30.0020000  0  8 27 18 14 28 29 22 19 31
  24189375.033    -5800028.642 5  -4399532.334 5
  21083234.049   -15131315.350 7 -11682950.619 9
  23729152.182    16799662.296 5  13099040.807 5
  24492070.971    -4646068.733 5  -3572125.582 5
  21451079.041    -1798527.999 7  -1349513.541 8
  24049200.533    11068716.701 6   8653321.550 6
  22112430.236   -15223920.234 7 -11794384.286 8
  24585930.689    -3419721.726 4  -2604952.677 2
 94  1 23 22  2  0.0020000  0  8 27 18 14 28 29 22 19 31
  24176799.447    -5866093.500 5  -4451011.335 5
  21078657.229   -15155362.611 7 -11701688.721 9
  23751153.846    16915288.696 5  13189139.224 5
  24484721.424    -4684654.911 5  -3602192.663 5
  21457662.893    -1763939.501 7  -1322561.472 9
  24068835.221    11171912.838 5   8733734.052 6
  22106155.291   -15256904.836 7 -11820086.540 8
  24571780.619    -3494079.158 5  -2662893.512 4
 94  1 23 22  2 30.0020000  0  8 27 18 14 28 29 22 19 31
  24164264.400    -5931978.740 5  -4502350.368 5
  21074153.260   -15179032.121 7 -11720132.484 9
  23773194.658    17031106.407 5  13279386.718 5
  24477464.322    -4722823.837 5  -3631934.598 5
  21464324.682    -1728922.553 7  -1295275.541 9
  24088529.471    11275403.737 5   8814376.229 6
  22099928.330   -15289624.859 7 -11845582.633 7
  24557656.830    -3568295.330 4  -2720724.256 3
 94  1 23 22  3  0.0020000  0  8 27 18 14 28 29 22 19 31
  24151754.783    -5997709.097 5  -4553568.709 5
  21069714.963   -15202357.220 7 -11738307.868 9
  23795258.807    17147056.527 5  13369737.385 5
  24470272.166    -4760589.136 5  -3661362.002 5
  21471065.010    -1693506.137 7  -1267678.341 8
  24108272.197    11379139.679 5   8895209.339 5
  22093745.369   -15322121.009 7 -11870904.272 8
  24543559.822    -3642405.688 5  -2778472.554 1
 94  1 23 22  3 30.0020000  0  8 27 18 14 28 29 22 19 31
  24139274.705    -6063292.036 5  -4604672.188 5
  21065341.697   -15225333.671 7 -11756211.588 9
  23817347.205    17263142.155 5  13460193.636 5
  24463164.674    -4797950.453 5  -3690474.632 5
  21477879.611    -1657694.038 7  -1239772.813 8
  24128057.025    11483112.752 5   8976227.242 6
  22087601.947   -15354397.806 7 -11896055.000 8
  24529473.166    -3716398.557 4  -2836129.254 2
 94  1 23 22  4  0.0020000  0  8 27 18 14 28 29 22 19 31
  24126823.853    -6128723.690 5  -4655657.775 5
  21061035.822   -15247953.221 7 -11773837.202 9
  23839473.393    17379396.087 5  13550781.057 5
  24456132.853    -4834909.916 5  -3719274.132 5
  21484771.799    -1621481.253 7  -1211555.067 9
  24147887.260    11587327.351 5   9057433.344 5
  22081500.393   -15386461.244 7 -11921039.472 8
  24515418.346    -3790255.894 4  -2893680.385 3
 94  1 23 22  4 30.0020000  0  8 27 18 14 28 29 22 19 31
  24114396.760    -6194027.181 5  -4706543.503 5
  21056803.822   -15270212.855 7 -11791182.356 9
  23861627.916    17495814.723 5  13641496.791 5
  24449173.064    -4871468.770 5  -3747761.448 5
  21491737.385    -1584866.183 7  -1183023.855 9
  24167763.275    11691763.733 6   9138812.285 5
  22075434.986   -15418324.587 7 -11945868.021 8
  24501388.307    -3863985.950 5  -2951132.296 2
 94  1 23 22  5  0.0020000  0  8 27 18 14 28 29 22 19 31
  24101991.072    -6259206.772 5  -4757332.701 5
  21052637.729   -15292108.456 7 -11808243.855 9
  23883811.979    17612402.213 5  13732344.099 5
  24442295.244    -4907625.886 5  -3775935.727 5
  21498781.994    -1547850.040 7  -1154180.113 9
  24187676.580    11796434.717 5   9220374.036 5
  22069412.682   -15449967.893 7 -11970525.126 8
  24487385.658    -3937575.132 5  -3008474.437 3
 94  1 23 22  5 30.0020000  0  8 27 18 14 28 29 22 19 31
  24089612.979    -6324273.028 5  -4808033.603 5
  21048534.674   -15313653.667 7 -11825032.322 9
  23906030.252    17729165.229 5  13823328.192 5
  24435489.549    -4943406.600 5  -3803816.727 5
  21505897.510    -1510455.966 7  -1125041.886 9
  24207644.674    11901344.569 5   9302121.919 5
  22063437.346   -15481380.996 7 -11995002.840 8
  24473405.447    -4011029.463 5  -3065711.479 3
 94  1 23 22  6  0.0020000  0  8 27 18 14 28 29 22 19 31
  24077251.674    -6389216.437 5  -4858638.762 5
  21044506.643   -15334847.419 7 -11841546.919 9
  23928285.197    17846106.458 5  13914451.149 5
  24428747.963    -4978815.338 5  -3831407.892 5
  21513083.752    -1472695.092 7  -1095617.840 9
  24227653.541    12006481.036 6   9384046.376 5
  22057504.041   -15512545.918 7 -12019287.171 8
  24459454.533    -4084348.826 5  -3122843.349 2
 94  1 23 22  6 30.0020000  0  8 27 18 14 28 29 22 19 31
  24064925.213    -6454009.857 5  -4909127.055 5
  21040536.252   -15355678.026 7 -11857778.559 8
  23950568.611    17963204.585 5  14005696.364 5
  24422079.604    -5013838.369 5  -3858698.505 5
  21520337.494    -1434573.325 7  -1065912.576 8
  24247699.697    12111853.608 5   9466154.806 5
  22051626.986   -15543451.829 7 -12043369.676 8
  24445524.283    -4157520.777 5  -3179860.341 3
 94  1 23 22  7  0.0020000  0  8 27 18 14 28 29 22 19 31
  24052623.900    -6518642.576 5  -4959490.131 5
  21036649.033   -15376135.482 7 -11873719.417 8
  23972876.861    18080443.106 5  14097050.981 5
  24415488.361    -5048475.745 5  -3885688.623 5
  21527661.369    -1396099.151 7  -1035932.712 8
  24267797.260    12217456.956 5   9548443.036 5
  22045791.885   -15574094.861 7 -12067247.352 8
  24431631.783    -4230543.506 4  -3236761.061 4
 94  1 23 22  7 30.0020000  0  8 27 18 14 28 29 22 19 31
  24040353.947    -6583122.699 5  -5009734.295 5
  21032826.158   -15396217.015 7 -11889367.353 8
  23995213.111    18197819.872 5  14188513.290 5
  24408970.299    -5082717.629 5  -3912370.572 5
  21535049.268    -1357267.452 7  -1005674.255 8
  24287933.729    12323278.347 5   9630901.169 6
  22040008.533   -15604491.004 7 -12090932.637 8
  24417764.580    -4303425.451 5  -3293552.087 2
 94  1 23 22  8  0.0020000  0  8 27 18 14 28 29 22 19 31
  24028105.166    -6647472.922 5  -5059877.253 5
  21029073.643   -15415931.939 7 -11904729.629 9
  24017570.822    18315307.404 5  14280061.946 5
  24402537.619    -5116556.468 5  -3938738.471 5
  21542508.377    -1318069.204 7   -975130.177 8
  24308110.088    12429298.082 5   9713513.842 6
  22034267.916   -15634664.375 7 -12114444.331 8
  24403924.236    -4376161.855 5  -3350229.697 4
 94  1 23 22  8 30.0020000  0  8 27 18 14 28 29 22 19 31
  24015887.752    -6711689.991 5  -5109916.469 5
  21025393.268   -15435262.279 7 -11919792.215 8
  24039950.596    18432918.931 5  14371707.203 5
  24396179.705    -5149961.787 5  -3964768.558 5
  21550042.478    -1278473.165 7   -944276.129 8
  24328327.830    12535538.550 5   9796298.523 6
  22028569.885   -15664613.826 7 -12137781.547 8
  24390115.111    -4448736.269 5  -3406781.116 2
 94  1 23 22  9  0.0020000  0  8 27 18 14 28 29 22 19 31
  24003687.174    -6775811.397 5  -5159881.119 5
  21021784.643   -15454226.734 7 -11934569.709 8
  24062352.893    18550646.605 5  14463442.956 5
  24389902.971    -5182940.263 5  -3990466.050 5
  21557653.275    -1238471.362 7   -913105.905 9
  24348579.674    12641966.335 6   9879229.171 6
  22022909.525   -15694357.888 7 -12160958.716 8
  24376330.588    -4521157.425 5  -3463213.092 3
 94  1 23 22  9 30.0020000  0  8 27 18 14 28 29 22 19 31
  23991502.213    -6839826.323 5  -5209762.809 5
  21018245.604   -15472824.687 7 -11949061.613 9
  24084779.291    18668504.469 5  14555280.170 5
  24383710.885    -5215502.970 5  -4015839.570 5
  21565345.197    -1198062.195 7   -881618.252 9
  24368871.049    12748590.248 6   9962312.655 6
  22017284.916   -15723901.135 7 -12183979.409 8
  24362578.197    -4593414.457 5  -3519517.214 2
 94  1 23 22 10  0.0020000  0  8 27 18 14 28 29 22 19 31
  23979346.736    -6903721.921 5  -5259551.525 5
  21014780.494   -15491049.417 7 -11963262.694 8
  24107232.603    18786477.750 5  14647207.314 5
  24377588.635    -5247656.671 5  -4040894.384 5
  21573109.471    -1157251.748 7   -849817.913 9
  24389196.221    12855400.014 6  10045540.952 6
  22011699.244   -15753246.476 7 -12206845.890 8
  24348861.291    -4665492.222 5  -3575681.644 4
 94  1 23 22 10 30.0020000  0  8 27 18 14 28 29 22 19 31
  23967207.393    -6967503.770 5  -5309251.600 5
  21011382.674   -15508905.468 7 -11977176.496 8
  24129701.604    18904550.582 5  14739212.012 5
  24371542.025    -5279424.274 5  -4065648.337 5
  21580947.213    -1116066.775 7   -817725.739 9
  24409552.213    12962382.789 6  10128904.074 5
  22006151.705   -15782421.124 7 -12229579.369 8
  24335178.064    -4737426.769 5  -3631734.457 2
 94  1 23 22 11  0.0020000  0  8 27 18 14 28 29 22 19 31
  23955094.299    -7031165.502 5  -5358858.097 5
  21008054.049   -15526385.789 7 -11990797.514 8
  24152188.416    19022721.648 5  14831293.275 5
  24365567.854    -5310809.348 5  -4090104.207 5
  21588854.369    -1074514.262 7   -785347.170 8
  24429948.564    13069551.397 5  10212411.990 5
  22000633.174   -15811410.980 7 -12252168.844 8
  24321513.158    -4809209.042 5  -3687668.628 4
 94  1 23 22 11 30.0020000  0  8 27 18 14 28 29 22 19 31
  23943007.385    -7094686.213 5  -5408354.685 5
  21004803.244   -15543476.326 7 -12004114.819 8
  24174700.283    19141016.869 5  14923471.278 5
  24359673.010    -5341791.494 5  -4114246.109 5
  21596834.205    -1032583.005 7   -752673.473 8
  24450380.479    13176928.395 5  10296082.307 5
  21995159.291   -15840181.078 7 -12274587.086 8
  24307889.338    -4880819.095 5  -3743468.606 4
 94  1 23 22 12  0.0020000  0  8 27 18 14 28 29 22 19 31
  23930940.182    -7158090.785 5  -5457760.811 5
  21001625.627   -15560184.807 7 -12017134.408 8
  24197230.932    19259428.792 5  15015740.220 4
  24353861.049    -5372348.363 5  -4138056.628 5
  21604887.010     -990265.728 7   -719698.990 8
  24470852.307    13284506.873 5  10379909.605 5
  21989722.479   -15868729.702 7 -12296832.738 8
  24294292.252    -4952267.438 5  -3799142.600 3
 94  1 23 22 12 30.0020000  0  8 27 18 14 28 29 22 19 31
  23918894.400    -7221399.482 5  -5507092.204 5
  20998513.768   -15576517.194 7 -12029860.939 8
  24219789.197    19377960.155 5  15108102.251 4
  24348122.104    -5402484.412 5  -4161539.234 5
  21613013.986     -947561.116 7   -686422.682 9
  24491360.846    13392292.652 5  10463898.423 5
  21984336.057   -15897050.792 7 -12318901.105 8
  24280725.291    -5023561.071 5  -3854696.039 3
 94  1 23 22 13  0.0020000  0  8 27 18 14 28 29 22 19 31
  23906866.346    -7284600.718 5  -5556339.897 5
  20995478.244   -15592471.078 7 -12042292.532 8
  24242366.369    19496614.107 5  15200559.767 5
  24342471.791    -5432189.347 5  -4184685.900 5
  21621217.541     -904453.186 7   -652832.106 8
  24511909.299    13500273.091 5  10548038.918 5
  21978996.697   -15925118.384 7 -12340771.939 8
  24267198.971    -5094664.032 5  -3910100.912 2
 94  1 23 22 13 30.0020000  0  8 27 18 14 28 29 22 19 31
  23894859.283    -7347688.555 5  -5605499.225 5
  20992515.025   -15608042.068 7 -12054425.760 8
  24264966.986    19615386.018 5  15293109.248 5
  24336902.104    -5461468.279 5  -4207500.637 5
  21629497.197     -860940.636 7   -618926.236 8
  24532495.057    13608433.824 5  10632319.901 5
  21973700.760   -15952951.931 7 -12362460.397 8
  24253701.533    -5165579.571 5  -3965359.752 3
 94  1 23 22 14  0.0020000  0  8 27 18 14 28 29 22 19 31
  23882873.869    -7410666.968 5  -5654573.257 5
  20989626.525   -15623220.829 7 -12066253.358 8
  24287585.916    19734258.534 5  15385737.086 4
  24331409.580    -5490343.803 5  -4230001.012 5
  21637848.353     -817051.815 7   -584727.176 8
  24553108.424    13716766.358 5  10716734.760 5
  21968442.439   -15980579.516 7 -12383988.376 8
  24240238.768    -5236318.595 5  -4020481.037 4
 94  1 23 22 14 30.0020000  0  8 27 18 14 28 29 22 19 31
  23870914.393    -7473517.029 5  -5703547.297 5
  20986818.291   -15637994.266 7 -12077765.122 8
  24310225.885    19853217.676 5  15478432.428 5
  24325985.549    -5518825.794 5  -4252194.750 5
  21646267.877     -772799.803 7   -550245.112 8
  24573754.978    13825257.172 5  10801272.947 5
  21963222.674   -16007991.616 7 -12405348.440 8
  24226816.666    -5306863.636 5  -4075451.191 4
 94  1 23 22 15  0.0020000  0  8 27 18 14 28 29 22 19 31
  23858986.236    -7536211.795 5  -5752400.321 5
  20984086.518   -15652349.199 7 -12088950.776 8
  24332883.158    19972269.242 5  15571199.763 4
  24320646.604    -5546889.396 5  -4274062.471 5
  21654761.721     -728172.034 7   -515470.246 8
  24594428.518    13933911.869 5  10885938.845 5
  21958051.127   -16035178.506 7 -12426533.010 8
  24213429.150    -5377202.042 5  -4130260.308 4
 94  1 23 22 15 30.0020000  0  8 27 18 14 28 29 22 19 31
  23847080.354    -7598763.950 5  -5801142.210 5
  20981432.025   -15666292.062 7 -12099815.336 8
  24355553.150    20091407.811 5  15664034.948 2
  24315383.963    -5574522.817 5  -4295594.981 5
  21663321.182     -683176.591 7   -480408.880 8
  24615142.182    14042747.999 5  10970746.137 5
  21952918.619   -16062156.179 7 -12447554.565 8
  24200080.939    -5447348.999 5  -4184920.264 4
 94  1 23 22 16  0.0020000  0  8 27 18 14 28 29 22 19 31
  23835206.533    -7661181.590 5  -5849779.279 5
  20978856.744   -15679827.444 7 -12110362.378 8
  24378236.658    20210618.863 5  15756926.574 3
  24310213.877    -5601706.822 5  -4316777.305 5
  21671956.479     -637805.143 7   -445054.528 8
  24635886.580    14151761.048 5  11055691.275 5
  21947826.994   -16088910.632 7 -12468402.171 8
  24186769.494    -5517302.660 5  -4239429.611 4
 94  1 23 22 16 30.0020000  0  8 27 18 14 28 29 22 19 31
  23823354.658    -7723456.448 5  -5898305.086 5
  20976359.557   -15692957.753 7 -12120593.776 8
  24400938.682    20329904.411 5  15849876.289 4
  24305135.033    -5628400.832 5
  21680669.580     -592023.831 7   -409380.802 8
  24656663.838    14260959.005 5  11140780.499 5
  21942778.104   -16115422.131 7
  24173500.830    -5587038.820 5  -4293769.465 4
 94  1 23 22 17  0.0020000  0  8 27 18 14 28 29 22 19 31
  23811526.385    -7785596.322 5  -5946725.686 5
  20973930.439   -15705705.901 7 -12130527.397 8
  24423650.150    20449271.873 5  15942889.794 4
  24300149.775    -5654598.171 5  -4357991.279 5
  21689456.721     -545845.879 7   -373397.998 8
  24677479.986    14370340.590 5  11226012.818 5
  21937778.486   -16141712.959 7 -12509546.800 8
  24160265.939    -5656569.368 5  -4347949.083 5
 94  1 23 22 17 30.0020000  0  8 27 18 14 28 29 22 19 31
  23799729.783    -7847598.220 5  -5995038.773 6
  20971579.041   -15718059.894 7 -12140153.871 8
  24446382.611    20568727.233 5  16035971.787 4
  24295260.104    -5680299.552 5  -4378018.303 5
  21698318.939     -499269.474 7   -337104.719 8
  24698327.189    14479907.876 5  11311389.813 4
  21932820.518   -16167773.336 7 -12529853.580 8
  24147080.533    -5725885.244 5  -4401961.420 5
 94  1 23 22 18  0.0020000  0  8 27 18 14 28 29 22 19 31
  23787958.603    -7909475.502 5  -6043254.764 6
  20969304.088   -15730019.128 7 -12149472.751 8
  24469126.893    20688250.268 5  16129106.521 4
  24290451.104    -5705538.218 5  -4397684.751 5
  21707254.252     -452315.895 7   -300517.537 8
  24719203.752    14589619.501 5  11396879.307 4
  21927905.166   -16193607.952 7 -12549984.430 8
  24133926.619    -5794995.146 5  -4455813.240 5
 94  1 23 22 18 30.0020000  0  8 27 18 14 28 29 22 19 31
  23776203.182    -7971224.670 5  -6091370.906 5
  20967103.197   -15741588.752 7 -12158488.030 8
  24491889.166    20807846.858 5  16222298.586 3
  24285736.307    -5730333.614 5  -4417005.802 5
  21716258.924     -404999.489 7   -263647.637 8
  24740105.580    14699459.555 5  11482468.900 2
  21923026.580   -16219226.023 7 -12569946.554 8
  24120814.408    -5863905.068 5  -4509509.213 4
 94  1 23 22 19  0.0020000  0  8 27 18 14 28 29 22 19 31
  23764481.510    -8032839.843 6  -6139382.647 6
  20964980.486   -15752755.178 7 -12167189.137 8
  24514657.096    20927519.526 5  16315549.910 4
  24281095.119    -5754705.994 5  -4435997.230 5
  21725334.361     -357310.619 7   -226487.492 8
  24761034.854    14809429.414 5  11568159.637 3
  21918192.955   -16244623.144 7 -12589736.497 8
  24107738.416    -5932617.672 5  -4563051.427 5
 94  1 23 22 19 30.0020000  0  8 27 18 14 28 29 22 19 31
  23752775.908    -8094336.837 6  -6187302.315 6
  20962930.119   -15763508.045 7 -12175567.993 8
  24537448.064    21047252.477 5  16408848.216 3
  24276538.393    -5778674.166 5  -4454673.684 5
  21734482.033     -309236.359 7   -189027.055 8
  24781987.713    14919525.261 5  11653948.521 4
  21913404.596   -16269802.735 7 -12609356.946 8
  24094700.385    -6001130.966 5  -4616438.318 5
 94  1 23 22 20  0.0020000  0  8 27 18 14 28 29 22 19 31
  23741099.994    -8155693.581 5  -6235112.683 5
  20960965.619   -15773851.747 7 -12183628.010 8
  24560242.221    21167058.253 5  16502203.251 3
  24272050.822    -5802223.207 5  -4473023.562 5
  21743704.775     -260769.302 7   -151260.533 8
  24802962.877    15029750.930 5  11739838.583 4
  21908652.604   -16294761.453 7 -12628805.277 8
  24081706.346    -6069414.666 5  -4669646.304 5
 94  1 23 22 20 30.0020000  0  8 27 18 14 28 29 22 19 31
  23729459.979    -8216883.910 6  -6282793.371 5
  20959072.025   -15783781.764 7 -12191365.683 8
  24583058.619    21286952.097 5  16595626.956 4
  24267659.400    -5825323.192 5  -4491023.513 5
  21753007.049     -211888.582 7   -113171.678 8
  24823967.463    15140138.257 5  11825854.577 5
  21903947.002   -16319501.791 7 -12648083.444 8
  24068759.893    -6137439.853 5  -4722652.844 5
 94  1 23 22 21  0.0020000  0  8 27 18 14 28 29 22 19 31
  23717842.283    -8277924.159 6  -6330357.126 6
  20957262.369   -15793300.811 7 -12198783.110 8
  24605879.166    21406910.397 4  16689100.860 2
  24263346.432    -5847975.501 5  -4508674.630 5
  21762386.260     -162607.853 7    -74771.135 8
  24845005.963    15250682.398 5  11911992.793 5
  21899277.439   -16344045.719 7 -12667208.555 8
  24055866.900    -6205195.822 5  -4775449.602 4
 94  1 23 22 21 30.0020000  0  8 27 18 14 28 29 22 19 31
  23706252.455    -8338819.286 5  -6377807.802 5
  20955528.955   -15802418.355 7 -12205887.685 8
  24628720.400    21526928.175 4  16782621.111 4
  24259129.432    -5870166.317 5  -4525966.148 5
  21771833.846     -112953.746 7    -36079.641 8
  24866070.783    15361384.024 5  11998253.700 5
  21894639.596   -16368403.233 7 -12686188.422 8
  24043021.674    -6272691.053 5  -4828043.186 5
 94  1 23 22 22  0.0020000  0  8 27 18 14 28 29 22 19 31
  23694693.182    -8399574.896 5  -6425149.765 6
  20953869.830   -15811137.346 7 -12212681.696 8
  24651574.557    21646997.720 4  16876181.696 4
  24254989.603    -5891888.075 5  -4542892.163 6
  21781353.549      -62928.884 7      2900.746 8
  24887164.018    15472233.336 5  12084629.695 5
  21890039.908   -16392575.920 7 -12705024.260 8
  24030229.728    -6339933.156 5  -4880439.535 5
 94  1 23 22 22 30.0020000  0  8 27 18 14 28 29 22 19 31
  23683154.088    -8460212.622 6  -6472399.867 6
  20952288.885   -15819433.064 7 -12219145.888 8
  24674430.447    21767114.813 5  16969779.326 4
  24250953.908    -5913123.417 5  -4559439.164 5
  21790944.088      -12518.629 7     42181.437 8
  24908288.994    15583242.109 5  12171129.941 6
  21885480.080   -16416556.938 7 -12723710.745 8
  24017477.768    -6406938.541 5  -4932651.450 5
 94  1 23 22 23  0.0020000  0  8 27 18 14 28 29 22 19 31
  23671636.752    -8520737.641 5  -6519562.165 6
  20950791.861   -15827297.813 7 -12225274.259 8
  24697299.260    21887295.889 4  17063426.836 2
  24247003.158    -5933859.316 5  -4575596.999 5
  21800616.221       38292.059 7     81774.162 8
  24929445.783    15694417.173 5  12257759.764 6
  21880956.713   -16440312.151 7 -12742221.279 8
  24004771.369    -6473712.110 5  -4984682.697 4
 94  1 23 22 23 30.0020000  0  8 27 18 14 28 29 22 19 31
  23660136.768    -8581172.544 6  -6566654.235 5
  20949375.666   -15834756.996 7 -12231086.604 8
  24720180.025    22007533.884 5  17157118.683 2
  24243149.346    -5954114.272 5  -4591380.062 5
  21810361.611       89502.687 7    121678.524 8
  24950634.494    15805733.851 4  12344499.911 5
  21876475.838   -16463845.993 7 -12760559.317 8
  23992103.283    -6540277.698 5  -5036551.907 5
 94  1 23 22 24  0.0020000  0  8 27 18 14 28 29 22 19 31
  23648652.353    -8641519.086 5  -6613677.466 5
  20948031.611   -15841803.418 7 -12236577.317 8
  24743066.213    22127817.576 4  17250846.133 1
  24239389.963    -5973895.448 5  -4606793.948 5
  21820183.603      141127.425 7    161905.569 8
  24971831.135    15917168.552 3  12431332.029 5
  21872043.033   -16487155.151 7 -12778722.277 8
  23979478.525    -6606620.852 5  -5088247.809 5
 94  1 23 22 24 30.0020000  0  8 27 18 14 28 29 22 19 31
  23637187.877    -8701766.079 6  -6660623.115 6
  20946770.338   -15848441.068 7 -12241749.506 8
  24765967.838    22248142.308 5  17344605.580 2
  24235710.158    -5993206.333 5  -4621841.383 5
  21830083.549      193155.745 7    202447.092 8
  24993062.002    16028714.625 3  12518250.926 5
  21867651.955   -16510239.493 7 -12796710.055 8
  23966899.463    -6672729.157 5  -5139760.724 5
 94  1 23 22 25  0.0020000  0  8 27 18 14 28 29 22 19 31
  23625746.619    -8761880.666 6  -6707465.612 6
  20945586.924   -15854666.102 7 -12246600.177 8
  24788870.127    22368516.037 4  17438403.179 3
  24232125.088    -6012053.740 5  -4636527.664 5
  21840063.361      245596.661 7    243310.121 8
  25014303.736    16140361.542 3  12605248.390 5
  21863301.346   -16533090.965 7 -12814516.379 8
  23954372.689    -6738564.351 5  -5191060.798 4
 94  1 23 22 25 30.0020000  0  8 27 18 14 28 29 22 19 31
  23614330.275    -8821873.989 6  -6754213.610 6
  20944479.533   -15860484.124 7 -12251133.694 8
  24811782.971    22488897.752 4  17532207.024 2
  24228620.783    -6030460.185 5  -4650870.344 6
  21850116.096      298417.648 7    284469.302 8
  25035559.760    16252075.328 3  12692297.962 5
  21858988.088   -16555747.408 7 -12832170.730 8
  23941895.377    -6804139.396 5  -5242158.201 5
 94  1 23 22 26  0.0020000  0  8 27 18 14 28 29 22 19 31
  23602943.916    -8881710.918 6  -6800839.748 6
  20943458.260   -15865853.256 7 -12255317.428 8
  24834697.588    22609310.889 4  17626035.336 3
  24225208.971    -6048397.267 5  -4664847.279 5
  21860241.955      351627.850 7    325931.772 8
  25056840.229    16363893.007 4  12779428.536 4
  21854719.666   -16578185.835 7 -12849655.202 8
  23929462.869    -6869423.177 5  -5293028.622 5
 94  1 23 22 26 30.0020000  0  8 27 18 14 28 29 22 19 31
  23591583.432    -8941415.601 6  -6847362.843 6
  20942512.791   -15870808.681 7 -12259178.800 8
  24857610.822    22729731.967 4  17719869.833 3
  24221887.408    -6065883.129 5  -4678472.611 5
  21870434.033      405194.244 7    367671.788 8
  25078137.846    16475806.425 5  12866633.707 3
  21850489.447   -16600427.983 7 -12866986.720 8
  23917097.924    -6934434.427 5  -5343686.696 5
 94  1 23 22 27  0.0020000  0  8 27 18 14 28 29 22 19 31
  23580244.174    -9000995.717 6  -6893788.865 6
  20941650.299   -15875345.043 7 -12262713.630 8
  24880525.182    22850149.078 4  17813701.250 2
  24218646.361    -6082918.656 5  -4691747.033 5
  21880693.158      459118.710 7    409690.829 8
  25099453.760    16587815.047 5  12953913.080 2
  21846290.924   -16622471.996 7 -12884163.859 8
  23904780.838    -6999179.955 5  -5394137.732 5
 94  1 23 22 27 30.0020000  0  8 27 18 14 28 29 22 19 31
  23568929.549    -9060465.338 6  -6940128.786 6
  20940869.002   -15879453.116 7 -12265914.724 8
  24903440.557    22970563.469 3  17907530.519 2
  24215485.705    -6099495.386 5  -4704663.952 5
  21891024.494      513391.148 7    451981.012 8
  25120790.932    16699947.805 5  13041289.189 1
  21842139.533   -16644308.800 7 -12901179.529 8
  23892503.650    -7063675.536 5  -5444393.981 5
 94  1 23 22 28  0.0020000  0  8 27 18 14 28 29 22 19 31
  23557637.557    -9119801.397 6  -6986364.644 6
  20940174.557   -15883109.845 7 -12268764.127 8
  24926358.322    23091010.778 3  18001385.469 3
  24212429.689    -6115580.804 5  -4717198.037 6
  21901425.736      568052.853 7    494574.521 8
  25142160.416    16812234.237 5  13128785.064 1
  21838025.799   -16665901.238 7 -12918004.794 8
  23880284.752    -7127881.788 5  -5494424.797 5
 94  1 23 22 28 30.0020000  0  8 27 18 14 28 29 22 19 31
  23546368.314    -9179015.172 5  -7032505.206 6
  20939558.221   -15886336.377 7 -12271278.307 8
  24949284.596    23211464.338 3  18095245.285 2
  24209455.096    -6131187.404 5  -4729359.007 5
  21911900.307      623107.424 7    537474.161 8
  25163547.604    16924639.294 5  13216373.383 1
  21833962.096   -16687267.777 7 -12934654.030 8
  23868119.752    -7191816.153 5  -5544243.745 5
 94  1 23 22 29  0.0020000  0  8 27 18 14 28 29 22 19 31
  23535124.174    -9238108.307 6  -7078551.769 6
  20939028.979   -15889111.460 7 -12273440.715 8
  24972203.463    23331929.255 3  18189113.929 2
  24206576.658    -6146315.552 5  -4741147.156 6
  21922454.494      678556.514 7    580681.223 8
  25184957.314    17037149.478 5  13304043.597 2
  21829939.369   -16708420.612 7 -12951136.753 8
  23856004.822    -7255482.342 5  -5593853.731 5
 94  1 23 22 29 30.0020000  0  8 27 18 14 28 29 22 19 31
  23523900.580    -9297082.834 6  -7124505.901 6
  20938584.869   -15891441.512 7 -12275256.347 8
  24995136.643    23452407.940 3  18282993.346 2
  24203790.689    -6160958.231 5  -4752557.035 5
  21933080.182      734399.993 7    624195.598 8
  25206387.236    17149757.201 5  13391789.810 3
  21825949.275   -16729373.897 7 -12967463.966 9
  23843942.924    -7318874.161 5  -5643249.911 5
 94  1 23 22 30  0.0020000  0  8 27 18 14 28 29 22 19 31
  23512704.463    -9355926.845 6  -7170358.335 6
  20938226.439   -15893343.928 7 -12276738.756 8
  25018055.807    23572888.539 3  18376874.219 2
  24201103.596    -6175097.263 5  -4763574.442 5
  21943784.736      790652.212 7    668028.472 8
  25227829.752    17262434.783 5  13479590.446 3
  21821995.854   -16750136.267 7 -12983642.432 8
  23831935.033    -7381978.813 5  -5692422.328 5
 94  1 23 22 30 30.0020000  0  8 27 18 14 28 29 22 19 31
  23501534.346    -9414628.929 6  -7216100.174 6
  20937946.689   -15894809.947 7 -12277881.111 8
  25040983.971    23693371.759 3  18470757.143 2
  24198508.814    -6188724.674 5  -4774193.187 5
  21954564.135      847299.740 7    712169.378 8
  25249284.986    17375189.171 5  13567450.925 4
  21818088.346   -16770700.914 7 -12999666.813 8
  23819982.369    -7444784.268 5  -5741361.600 5
 94  1 23 22 31  0.0020000  0  8 27 18 14 28 29 22 19 31
  23490385.650    -9473204.560 6  -7261743.485 6
  20937749.307   -15895849.828 7 -12278691.408 8
  25063911.572    23813850.202 3  18564636.343 2
  24196008.307    -6201848.219 5  -4784419.308 5
  21965413.689      904318.666 7    756599.691 8
  25270755.104    17488029.374 5  13655378.274 5
  21814209.385   -16791068.422 7 -13015537.587 8
  23808086.549    -7507288.447 5  -5790066.114 5
 94  1 23 22 31 30.0020000  0  8 27 18 14 28 29 22 19 31
  23479266.689    -9531648.037 6  -7307283.816 6
  20937625.502   -15896488.558 7 -12279189.120 8
  25086830.986    23934317.790 3  18658507.115 1
  24193611.361    -6214463.136 5  -4794249.093 5
  21976335.541      961714.232 7    801323.482 8
  25292251.846    17600967.769 4  13743382.128 5
  21810375.986   -16811224.857 7 -13031243.896 8
  23796253.150    -7569487.291 5  -5838532.695 5
 94  1 23 22 32  0.0020000  0  8 27 18 14 28 29 22 19 31
  23468169.994    -9589956.103 6  -7352718.641 5
  20937581.963   -15896715.401 7
  25109758.174    24054778.432 3  18752372.434 1
  24191303.846    -6226572.972 5  -4803685.317 5
  21987331.611     1019489.670 7    846343.278 8
  25313764.307    17714014.536 4  13831470.403 5
  21806583.088   -16831166.171 7 -13046782.571 8
  23784475.752    -7631372.621 5  -5886754.999 5
 94  1 23 22 32 30.0020000  0  8 27 18 14 28 29 22 19 31
  23457099.596    -9648126.188 6  -7398045.949 6
  20937620.674   -15896509.945 7
  25132688.104    24175254.679 3  18846249.943 1
  24189091.861    -6238192.368 5  -4812739.367 5
  21998395.830     1077643.072 7    891657.591 8
  25335301.885    17827188.527 3  13919657.831 5
  21802831.557   -16850878.957 7 -13062143.175 8
  23772757.143    -7692945.592 5  -5934733.896 5
 94  1 23 22 33  0.0020000  0  8 27 18 14 28 29 22 19 31
  23446054.283    -9706175.936 6  -7443279.496 6
  20937737.861   -15895888.517 7 -12278721.553 8
  25155612.408    24295739.134 3  18940133.875 2
  24186973.885    -6249331.851 5  -4821419.469 5
  22009539.002     1136184.844 7    937274.532 8
  25356860.697    17940473.287 3  14007931.573 5
  21799119.486   -16870384.764 7 -13077342.496 8
  23761093.510    -7754236.266 5  -5982492.817 5
 94  1 23 22 33 30.0020000  0  8 27 18 14 28 29 22 19 31
  23435031.064    -9764098.152 6  -7488413.659 6
  20937940.268   -15894838.929 7 -12277903.686 8
  25178541.541    24416239.002 3  19034029.752 2
  24184946.705    -6259974.573 5  -4829712.482 5
  22020756.697     1195137.140 7    983211.355 8
  25378430.510    18053858.858 3  14096283.876 5
  21795444.510   -16889685.177 7 -13092381.767 8
  23749481.611    -7815238.535 5  -6030027.006 5
 94  1 23 22 34  0.0020000  0  8 27 18 14 28 29 22 19 31
  23424027.182    -9821919.513 6  -7533469.231 6
  20938223.158   -15893360.666 7 -12276751.785 8
  25201472.674    24536727.941 3  19127917.124 2
  24183011.088    -6270149.985 5  -4837641.363 5
  22032047.510     1254476.714 7   1029449.962 8
  25400022.166    18167302.195 3  14184681.178 5
  21791802.439   -16908806.892 7 -13107281.787 8
  23737929.174    -7875973.617 5  -6077353.005 5
 94  1 23 22 34 30.0020000  0  8 27 18 14 28 29 22 19 31
  23413047.861    -9879627.900 6  -7578436.787 6
  20938585.814   -15891437.676 7 -12275253.348 8
  25224394.603    24657209.843 3  19221799.014 2
  24181163.268    -6279844.646 5  -4845195.634 5
  22043416.650     1314217.522 7   1076001.208 8
  25421616.307    18280794.891 3  14273116.953 5
  21788206.939   -16927726.566 7 -13122024.381 9
  23726422.814    -7936422.633 5  -6124456.086 5
 94  1 23 22 35  0.0020000  0  8 27 18 14 28 29 22 19 31
  23402089.557    -9937219.880 6  -7623313.621 6
  20939043.408   -15889051.629 7 -12273394.083 8
  25247321.377    24777663.405 3  19315658.830 2
  24179417.252    -6289039.677 5  -4852360.571 5
  22054863.072     1374367.406 7   1122871.228 8
  25443226.939    18394334.498 4  14361589.289 5
  21784642.041   -16946456.822 7 -13136619.376 8
  23714983.260    -7996557.936 5  -6171314.725 5
 94  1 23 22 35 30.0020000  0  8 27 18 14 28 29 22 19 31
  23391149.471    -9994691.975 6  -7668097.051 6
  20939588.143   -15886201.229 7 -12271172.988 8
  25270230.361    24898067.530 3  19409480.159 1
  24177758.635    -6297745.016 5  -4859143.948 5
  22066380.814     1434902.142 7   1170041.121 8
  25464836.635    18507906.795 4  14450087.110 4
  21781109.400   -16965001.103 7 -13151069.450 8
  23703603.393    -8056365.970 5  -6217918.342 5
 94  1 23 22 36  0.0020000  0  8 27 18 14 28 29 22 19 31
  23380238.885   -10052028.506 6  -7712774.837 6
  20940218.439   -15882877.494 7 -12268583.056 8
  25293141.252    25018430.533 3  19503269.424 1
  24176202.174    -6305957.529 5  -4865543.306 5
  22077974.924     1495819.326 7   1217509.019 8
  25486454.939    18621526.606 4  14538621.940 5
  21777621.197   -16983347.592 7 -13165365.409 8
  23692284.986    -8115827.870 5  -6264252.266 5
 94  1 23 22 36 30.0020000  0  8 27 18 14 28 29 22 19 31
  23369362.689   -10109202.941 6  -7757326.303 6
  20940940.096   -15879070.051 7 -12265616.214 8
  25316042.510    25138771.031 3  19597041.180 1
  24174729.252    -6313647.294 5  -4871535.318 5
  22089640.541     1557138.021 7   1265289.796 8
  25508091.729    18735228.186 4  14627220.511 4
  21774171.494   -17001488.797 7 -13179501.404 8
  23681041.752    -8174914.923 5  -6310294.091 5
 94  1 23 22 37  0.0020000  0  8 27 18 14 28 29 22 19 31
  23358509.838   -10166218.139 6  -7801753.697 6
  20941755.494   -15874803.038 7 -12262291.270 8
  25338933.064    25259096.792 3  19690801.428 1
  24173371.939    -6320806.558 5  -4877113.965 5
  22101382.666     1618838.657 7   1313368.181 8
  25529745.986    18849014.174 5  14715884.874 4
  21770750.768   -17019438.279 7 -13193488.009 9
  23669864.549    -8233647.464 5  -6356059.668 5
 94  1 23 22 37 30.0020000  0  8 27 18 14 28 29 22 19 31
  23347690.463   -10223078.872 6  -7846060.733 6
  20942645.697   -15870103.019 7 -12258628.914 8
  25361833.127    25379415.750 2  19784556.340 1
  24172109.471    -6327441.089 5  -4882283.722 6
  22113195.174     1680912.256 7   1361737.188 8
  25551414.674    18962878.346 4  14804610.120 2
  21767381.010   -17037175.470 7 -13207309.188 8
  23658753.057    -8292046.785 5  -6401565.587 5
 94  1 23 22 38  0.0020000  0  8 27 18 14 28 29 22 19 31
  23336901.205   -10279777.217 6  -7890241.220 6
  20943628.955   -15864951.485 7 -12254614.732 8
  25384725.080    25499747.659 2  19878321.389 1
  24170950.502    -6333529.851 5  -4887028.209 6
  22125082.205     1743379.996 7   1410413.325 8
  25573099.205    19076842.928 4  14893413.612 4
  21764044.838   -17054683.745 7 -13220952.003 8
  23647707.533    -8350094.107 5  -6446797.217 5
 94  1 23 22 38 30.0020000  0  8 27 18 14 28 29 22 19 31
  23326135.182   -10336343.530 6  -7934318.842 6
  20944693.666   -15859362.729 7 -12250259.855 8
  25407621.400    25620061.284 2  19972072.205 1
  24169892.455    -6339084.390 5  -4891356.402 5
  22137042.541     1806222.531 7   1459381.501 8
  25594801.760    19190878.584 4  14982272.510 2
  21760755.018   -17071973.230 7 -13234424.321 8
  23636720.572    -8407811.080 5  -6491771.432 5
 94  1 23 22 39  0.0020000  0  8 27 18 14 28 29 22 19 31
  23315395.432   -10392796.967 6  -7978308.487 6
  20945837.385   -15853344.576 7 -12245570.383 7
  25430502.627    25740333.975 2  20065791.075 1
  24168934.979    -6344114.237 5  -4895275.767 5
  22149068.752     1869430.816 6   1508634.673 8
  25616507.697    19304960.800 4  15071167.708 1
  21757506.557   -17089036.781 7 -13247720.590 9
  23625801.619    -8465207.004 5  -6536495.457 5
 94  1 23 22 39 30.0020000  0  8 27 18 14 28 29 22 19 31
  23304670.447   -10449147.937 6  -8022218.295 6
  20947067.596   -15846884.185 7 -12240536.312 7
  25453384.080    25860541.361 2  20159459.084 1
  24168074.908    -6348635.441 5  -4898798.765 5
  22161169.416     1933017.164 6   1558182.442 8
  25638220.197    19419077.279 3  15160089.574 1
  21754303.564   -17105872.993 7 -13260839.711 8
  23614943.416    -8522265.573 5  -6580956.612 6
 94  1 23 22 40  0.0020000  0  8 27 18 14 28 29 22 19 31
  23293965.158   -10505404.263 6  -8066054.344 6
  20948381.752   -15839963.380 7 -12235143.481 8
  25476248.846    25980680.487 3  20253073.926 1
  24167312.619    -6352646.352 5  -4901924.130 5
  22173341.854     1996982.499 6   1608025.530 8
  25659947.463    19533226.617 3  15249037.071 1
  21751142.729   -17122499.137 7 -13273795.145 8
  23604150.908    -8578975.603 5  -6625146.183 5
 94  1 23 22 40 30.0020000  0  7 27 18 14 28 29 19 31
  23283275.736   -10561563.365 6
  20949787.838   -15832583.944 7 -12229393.273 8
  25499097.479    26100750.500 3  20346634.874 2
  24166648.447    -6356145.907 5  -4904651.045 5
  22185585.252     2061327.346 6   1658164.341 8
  21748014.963   -17138911.069 7 -13286583.657 9
  23593425.197    -8635343.079 5
 94  1 23 22 41  0.0020000  0  6 27 18 28 29 19 31
  23272611.916   -10617607.557 6
  20951277.697   -15824739.753 7 -12223280.917 7
  24166074.619    -6359138.079 5  -4906982.592 5
  22197903.580     2126052.707 6   1708599.651 8
  21744937.174   -17155111.238 7 -13299207.160 9
  23582767.510    -8691349.965 5
 94  1 23 22 41 30.0020000  0  6 27 18 28 29 19 31
  23261970.424   -10673544.182 6  -8197072.317 6
  20952859.658   -15816436.059 7 -12216810.511 7
  24165600.143    -6361645.188 5  -4908936.152 5
  22210289.275     2191141.903 6   1759318.474 8
  21741888.643   -17171125.061 7 -13311685.449 9
  23572177.252    -8747000.538 5  -6756074.513 5
 94  1 23 22 42  0.0020000  0  6 27 18 28 29 19 31
  23251349.025   -10729354.729 6  -8240561.010 6
  20954528.979   -15807668.124 7 -12209978.355 8
  24165217.197    -6363659.831 5  -4910505.985 5
  22222743.838     2256595.285 6   1810321.073 8
  21738877.057   -17186953.417 7 -13324019.228 9
  23561652.353    -8802298.626 5  -6799163.878 5
 94  1 23 22 42 30.0020000  0  6 27 18 28 29 19 31
  23240754.447   -10785027.136 6  -8283942.049 6
  20956283.260   -15798439.215 7 -12202787.000 7
  24164928.104    -6365181.678 5  -4911691.820 5
  22235269.518     2322415.952 6   1861609.874 7
  21735901.346   -17202594.211 7 -13336206.852 9
  23551200.322    -8857248.284 5  -6841981.743 5
 94  1 23 22 43  0.0020000  0  6 27 18 28 29 19 31
  23230188.643   -10840545.401 6  -8327202.976 6
  20958129.143   -15788738.390 7 -12195227.917 7
  24164739.838    -6366191.226 5  -4912478.455 5
  22247868.822     2388624.460 6   1913200.888 7
  21732959.229   -17218040.185 7 -13348242.670 9
  23540813.510    -8911824.445 5  -6884508.568 6
 94  1 23 22 43 30.0020000  0  6 27 18 28 29 19 31
  23219651.096   -10895919.989 6  -8370351.941 6
  20960064.119   -15778579.113 7 -12187311.607 8
  24164641.924    -6366681.527 5
  22260542.260     2455214.393 6   1965089.115 7
  21730057.518   -17233297.069 7 -13360131.136 9
  23530492.275    -8966056.414 5  -6926767.201 5
 94  1 23 22 44  0.0020000  0  6 27 18 28 29 19 31
  23209144.049   -10951140.484 6  -8413380.844 6
  20962085.135   -15767958.561 7 -12179035.856 7
  24164654.400    -6366622.343 5
  22273287.611     2522196.783 6   2017283.156 7
  21727188.596   -17248357.396 7 -13371866.457 9
  23520237.736    -9019940.879 6  -6968755.062 5
 94  1 23 22 44 30.0020000  0  6 27 18 28 29 19 31
  23198660.283   -11006224.208 6  -8456303.168 6
  20964194.393   -15756881.496 7 -12170404.385 7
  24164770.260    -6366014.201 5  -4912340.469 5
  22286106.111     2589560.524 6   2069774.353 7
  21724359.408   -17263232.552 7 -13383457.473 9
  23510054.916    -9073459.860 6  -7010458.150 5
 94  1 23 22 45  0.0020000  0  7 27 18  2 28 29 19 31
  23188203.729   -11061176.735 6  -8499123.259 6
  20966388.010   -15745350.292 7 -12161419.037 7
  25594380.002          -0.30613
  24164981.041    -6364863.060 5  -4911443.468 5
  22298996.025     2657301.481 6   2122559.479 7
  21721563.064   -17277926.361 7 -13394907.190 9
  23499943.572    -9126594.291 5  -7051861.576 6
 94  1 23 22 45 30.0020000  0  7 27 18  2 28 29 19 31
  23177768.510   -11116013.324 6  -8541853.020 6
  20968671.182   -15733358.982 7 -12152075.173 7
  25577342.674      -89525.966 3
  24165308.619    -6363183.209 5  -4910134.487 5
  22311955.768     2725404.355 6   2175626.623 7
  21718798.346   -17292447.394 7 -13406222.271 9
  23489905.439    -9179344.382 5  -7092965.513 5
 94  1 23 22 46  0.0020000  0  7 27 18  2 28 29 19 31
  23167358.807   -11170729.277 6  -8584488.773 6
  20971042.393   -15720879.303 7 -12142350.756 8
  25560330.447     -178937.983 3        -0.47913
  24165730.541    -6360972.261 5  -4908411.656 6
  22324989.963     2793896.867 6   2228997.381 7
  21716073.518   -17306782.755 7 -13417392.682 9
  23479945.197    -9231666.802 5  -7133736.210 6
 94  1 23 22 46 30.0020000  0  7 27 18  2 28 29 19 31
  23156966.736   -11225336.530 6  -8627039.835 6
  20973510.971   -15707917.983 7 -12132251.027 8
  25543338.877     -268228.877 3    -69577.446 3
  24166242.666    -6358251.234 5  -4906291.374 5
  22338099.525     2862775.440 6   2282668.962 7
  21713380.916   -17320913.724 7 -13428403.829 9
  23470072.986    -9283566.412 6  -7174177.439 5
 94  1 23 22 47  0.0020000  0  7 27 18  2 28 29 19 31
  23146591.955   -11279848.801 6  -8669516.894 6
  20976067.424   -15694484.795 7 -12121783.619 8
  25526371.877     -357398.454 3   -139059.876 3
  24166861.830    -6355022.478 5  -4903775.442 5
  22351277.549     2932033.491 6   2336636.253 7
  21710734.166   -17334830.462 7 -13439248.034 9
  23460272.025    -9335073.724 6  -7214312.981 6
 94  1 23 22 47 30.0020000  0  7 27 18  2 28 29 19 31
  23136239.166   -11334260.398 6  -8711915.501 6
  20978712.963   -15680573.899 7 -12110943.969 7
  25509426.314     -446435.770 2   -208439.297 1
  24167573.580    -6351271.351 5  -4900852.476 5
  22364528.494     3001669.505 6   2390898.044 7
  21708129.158   -17348523.540 7 -13449917.963 9
  23450538.861    -9386198.773 6  -7254150.654 5
 94  1 23 22 48  0.0020000  0  7 27 18  2 28 29 19 31
  23125908.213   -11388544.612 6  -8754214.850 6
  20981451.674   -15666181.778 7 -12099729.334 8
  25492514.744     -535320.271 3   -277699.589 1
  24168391.205    -6346971.809 5  -4897502.186 5
  22377855.353     3071704.717 6   2445470.909 7
  21705570.596   -17361970.978 7 -13460396.483 9
  23440890.627    -9436924.754 6  -7293677.356 6
 94  1 23 22 48 30.0020000  0  7 27 18  2 28 29 19 31
  23115602.119   -11442701.807 6  -8796415.234 6
  20984278.885   -15651336.373 7 -12088161.499 8
  25475629.830     -624054.349 3   -346842.776 3
  24169313.705    -6342134.650 5  -4893732.953 5
  22391252.088     3142106.745 6   2500329.594 7
  21703049.838   -17375202.033 7 -13470706.395 9
  23431307.744    -9487275.814 6  -7332911.907 6
 94  1 23 22 49  0.0020000  0  7 27 18  2 28 29 19 31
  23105324.541   -11496720.746 6  -8838507.893 6
  20987185.674   -15636043.001 7 -12076244.592 8
  25458764.385     -712650.744 2   -415878.627 3
  24170336.229    -6336757.709 5  -4889543.129 5
  22404716.666     3212860.018 6   2555461.983 7
  21700570.760   -17388252.976 7 -13480875.951 9
  23421796.752    -9537248.981 6  -7371851.996 6
 94  1 23 22 49 30.0020000  0  7 27 18  2 28 29 19 31
  23095073.096   -11550584.208 6  -8880479.388 6
  20990184.338   -15620308.615 7 -12063984.036 8
  25441934.221     -801111.448 3   -484808.764 2
  24171458.885    -6330839.849 5  -4884931.805 5
  22418247.768     3283971.913 6   2610873.818 7
  21698116.353   -17401131.217 7 -13490910.941 8
  23412358.814    -9586824.444 6  -7410482.174 6
 94  1 23 22 50  0.0020000  0  7 27 18  2 28 29 19 31
  23084855.150   -11604279.264 6  -8922319.677 6
  20993262.182   -15604121.644 7 -12051370.818 8
  25425128.111     -889435.464 3   -553632.450 1
  24172695.689    -6324373.218 5  -4879892.878 5
  22431852.424     3355460.080 6   2666578.844 7
  21695701.275   -17413825.095 7 -13500802.269 9
  23403010.033    -9635983.549 6  -7448787.924 6
 94  1 23 22 50 30.0020000  0  7 27 18  2 28 29 19 31
  23074668.064   -11657817.786 6  -8964037.989 6
  20996428.197   -15587481.228 7 -12038404.270 8
  25408341.119     -977633.890 3   -622358.322 1
  24174028.416    -6317368.553 5  -4874434.695 5
  22445524.354     3427308.476 6   2722564.571 7
  21693321.643   -17426338.749 7 -13510553.168 9
  23393730.994    -9684737.768 6  -7486778.182 6
 94  1 23 22 51  0.0020000  0  7 27 18  2 28 29 19 31
  23064507.447   -11711212.853 6  -9005644.513 6
  20999684.221   -15570371.938 7 -12025072.364 8
  25391580.447    -1065719.898 3   -690996.578 3
  24175460.033    -6309816.914 5  -4868550.307 5
  22459265.978     3499533.276 6   2778843.604 7
  21690979.143   -17438643.473 7 -13520141.262 9
  23384534.432    -9733077.237 6  -7524445.247 6
 94  1 23 22 51 30.0020000  0  7 27 18  2 28 29 19 31
  23054371.564   -11764483.029 6  -9047153.726 7
  21003033.369   -15552780.056 7 -12011364.411 8
  25374838.361    -1153695.708 3   -759548.979 2
  24177000.455    -6301729.935 5  -4862248.760 6
  22473085.533     3572141.417 6   2835421.336 7
  21688679.588   -17450725.838 7 -13529556.099 9
  23375410.064    -9781001.012 6  -7561788.400 5
 94  1 23 22 52  0.0020000  0  7 27 18  2 28 29 19 31
  23044253.729   -11817644.505 6  -9088578.226 7
  21006472.228   -15534697.773 7 -11997274.324 8
  25358119.854    -1241544.817 3   -828002.674 2
  24178640.361    -6293122.560 5  -4855541.712 6
  22486972.838     3645125.645 6   2892292.120 7
  21686425.236   -17462591.945 7 -13538802.410 9
  23366369.455    -9828523.177 6  -7598818.601 6
 94  1 23 22 52 30.0020000  0  7 27 18  2 28 29 19 31
  23034154.799   -11870708.443 6  -9129926.744 7
  21010008.994   -15516123.935 7 -11982801.213 8
  25341432.924    -1329256.003 3   -896348.929 2
  24180375.916    -6283993.736 5  -4848428.353 6
  22500934.486     3718489.612 6   2949458.807 7
  21684203.791   -17474243.416 7 -13547881.471 9
  23357403.650    -9875642.715 6  -7635535.081 6
 94  1 23 22 53  0.0020000  0  7 27 18  2 28 29 19 31
  23024077.072   -11923667.736 6  -9171193.703 6
  21013636.244   -15497055.298 7 -11967942.543 8
  25324764.729    -1416823.301 3   -964583.063 3
  24182217.189    -6274337.832 5  -4840904.275 5
  22514968.205     3792239.096 6   3006925.897 7
  21682029.494   -17485672.739 7 -13556787.443 9
  23348517.268    -9922343.402 6  -7671925.184 6
 94  1 23 22 53 30.0020000  0  7 27 18  2 28 29 19 31
  23014020.814   -11976516.320 6  -9212374.397 6
  21017358.916   -15477501.266 7 -11952705.642 8
  25308139.486    -1504224.040 3  -1032687.382 4
  24184157.713    -6264152.290 5  -4832967.486 5
  22529075.916     3866369.579 6   3064689.875 7
  21679892.354   -17496898.902 7 -13565535.095 9
  23339712.658    -9968613.978 6  -7707980.146 6
 94  1 23 22 54  0.0020000  0  7 27 18  2 28 29 19 31
  23003990.736   -12029231.439 6  -9253451.086 7
  21021172.893   -15457457.296 7 -11937086.974 7
  25291538.854    -1591435.416 3  -1100644.219 3
  24186202.947    -6253403.106 5  -4824591.489 5
  22543254.104     3940887.121 6   3122755.449 7
  21677795.619   -17507917.609 7 -13574121.103 9
  23330993.814   -10014436.820 6  -7743686.209 6
 94  1 23 22 54 30.0020000  0  7 27 18  2 28 29 19 31
  22993982.353   -12081834.052 6  -9294440.114 7
  21025069.525   -15436958.889 7 -11921114.197 8
  25274967.744    -1678508.203 3  -1168493.036 3
  24188348.291    -6242112.973 5  -4815793.970 5
  22557503.518     4015757.838 6   3181096.230 7
  21675734.494   -17518768.276 7 -13582576.161 9
  23322354.775   -10059824.036 6  -7779052.830 6
 94  1 23 22 55  0.0020000  0  7 27 18  2 28 29 19 31
  22983991.611   -12134322.492 6  -9335340.181 6
  21029058.447   -15416015.352 7 -11904794.567 8
  25258425.127    -1765441.809 3  -1236233.405 2
  24190600.322    -6230284.256 5  -4806576.778 5
  22571814.963     4090963.095 6   3239697.691 7
  21673696.822   -17529462.184 7 -13590909.076 9
  23313805.416   -10104758.916 6  -7814066.983 6
 94  1 23 22 55 30.0020000  0  7 27 18  2 28 29 19 31
  22974028.479   -12186685.263 6  -9376142.317 6
  21033127.518   -15394622.512 7 -11888124.829 7
  25241912.893    -1852230.292 3  -1303860.695 4
  24192951.229    -6217911.167 5  -4796935.398 6
  22586191.924     4166507.447 6   3298563.382 7
  21671690.752   -17540011.174 7 -13599129.067 9
  23305337.736   -10149244.944 6  -7848731.381 6
 94  1 23 22 56  0.0020000  0  7 27 18  2 28 29 19 31
  22964088.791   -12238907.096 6  -9416834.627 6
  21037286.541   -15372772.497 7 -11871098.854 8
  25225422.135    -1938876.198 3  -1371376.889 3
  24195408.424    -6204996.522 5  -4786872.031 5
  22600628.721     4242397.255 6   3357698.257 7
  21669714.611   -17550403.156 7 -13607226.709 9
  23296953.697   -10193293.992 6  -7883055.273 6
 94  1 23 22 56 30.0020000  0  7 27 18  2 28 29 19 31
  22954179.682   -12290976.167 6  -9457407.895 6
  21041534.307   -15350452.569 7 -11853706.716 8
  25208964.596    -2025373.412 3  -1438777.212 3
  24197968.533    -6191543.024 5  -4776388.778 5
  22615139.588     4318644.703 6   3417111.809 7
  21667769.854   -17560608.974 7 -13615179.286 9
  23288663.439   -10236891.983 6  -7917027.694 6
 94  1 23 22 57  0.0020000  0  7 27 18  2 28 29 19 31
  22944302.299   -12342894.845 6  -9497863.979 6
  21045873.494   -15327652.629 7 -11835940.541 8
  25192533.518    -2111720.120 3  -1506060.254 2
  24200636.064    -6177548.694 5  -4765484.096 5
  22629718.385     4395249.968 6   3476804.180 7
  21665866.588   -17570614.828 7 -13622976.052 9
  23280449.002   -10280048.188 6  -7950655.872 6
 94  1 23 22 57 30.0020000  0  7 27 18  2 28 29 19 31
  22934450.947   -12394655.313 6  -9538196.787 7
  21050307.025   -15304350.337 7 -11817782.917 8
  25176128.986    -2197914.676 3  -1573224.724 3
  24203399.338    -6163006.492 5  -4754152.520 5
  22644368.158     4472237.017 6   3536794.048 7
  21664002.838   -17580410.493 7 -13630609.029 9
  23272316.580   -10322778.036 6  -7983951.835 6
 94  1 23 22 58  0.0020000  0  7 27 18  2 28 29 19 31
  22924626.846   -12446278.696 6  -9578422.775 7
  21054837.439   -15280542.916 7 -11799231.689 8
  25159757.033    -2283960.638 3  -1640273.378 3
  24206268.596    -6147925.631 5  -4742401.208 6
  22659090.307     4549595.994 6   3597073.725 7
  21662180.104   -17589994.678 7 -13638077.221 9
  23264266.486   -10365073.265 6  -8016909.127 6
 94  1 23 22 58 30.0020000  0  7 27 18  2 28 29 19 31
  22914828.057   -12497769.213 6  -9618545.235 7
  21059468.814   -15256211.771 7 -11780272.369 8
  25143408.111    -2369855.728 3  -1707204.491 1
  24209248.916    -6132296.231 5  -4730222.454 5
  22673879.650     4627324.377 6   3657641.268 7
  21660396.705   -17599363.195 7 -13645377.352 9
  23256305.564   -10406918.014 6  -8049515.393 6
 94  1 23 22 59  0.0020000  0  7 27 18  2 28 29 19 31
  22905055.752   -12549129.084 6  -9658565.897 7
  21064197.932   -15231347.889 7 -11760897.927 8
  25127094.018    -2455589.446 3  -1774009.846 2
  24212325.072    -6116115.314 5  -4717613.953 6
  22688744.596     4705427.285 6   3718500.627 7
  21658652.252   -17608535.794 7 -13652524.826 9
  23248427.104   -10448310.766 6  -8081769.459 6
 94  1 23 22 59 30.0020000  0  7 27 18  2 28 29 19 31
  22895307.158   -12600356.623 6  -9698483.436 7
  21069029.197   -15205961.004 7 -11741115.954 8
  25110815.939    -2541145.089 4  -1840676.464 4
  24215504.869    -6099387.661 5  -4704579.434 5
  22703676.510     4783894.886 6   3779644.173 7
  21656943.322   -17617517.452 7 -13659523.516 9
  23240637.697   -10489247.710 6  -8113668.354 6
 94  1 23 23  0  0.0020000  0  7 27 18  2 28 29 19 31
  22885584.221   -12651455.183 6  -9738300.486 7
  21073953.893   -15180083.688 7 -11720951.819 8
  25094568.377    -2626525.823 4  -1907206.776 3
  24218792.103    -6082138.934 5  -4691138.882 6
  22718670.650     4862699.034 6   3841049.959 7
  21655266.463   -17626313.070 7 -13666377.246 8
  23232935.260   -10529726.944 6  -8145210.589 6
 94  1 23 23  0 30.0020000  0  7 27 18  2 28 29 19 31
  22875884.877   -12702422.224 6  -9778015.052 6
  21078969.596   -15153735.242 7 -11700420.569 8
  25078352.057    -2711736.886 4  -1973604.900 3
  24222163.455    -6064376.252 5  -4677297.827 5
  22733730.619     4941839.635 6   3902717.924 7
  21653628.650   -17634929.243 7 -13673091.139 9
  23225315.666   -10569754.890 6  -8176401.170 6
 94  1 23 23  1  0.0020000  0  7 27 18  2 28 29 19 31
  22866211.447   -12753263.145 6  -9817631.341 7
  21084065.393   -15126940.383 7 -11679541.474 8
  25062170.361    -2796778.167 4  -2039870.734 2
  24225649.205    -6046104.761 5  -4663060.322 6
  22748852.760     5021311.602 6   3964644.086 7
  21652021.111   -17643373.541 7 -13679671.113 9
  23217785.424   -10609327.520 6  -8207236.947 6
 94  1 23 23  1 30.0020000  0  7 27 18  2 28 29 19 31
  22856561.674   -12803965.093 6  -9857139.342 7
  21089250.033   -15099700.606 7 -11658315.688 8
  25046019.299    -2881641.756 3  -2105998.096 3
  24229220.408    -6027309.010 5  -4648414.290 5
  22764041.166     5101129.151 6   4026839.540 7
  21650452.932   -17651621.226 7 -13686097.871 9
  23210344.869   -10648432.780 6  -8237708.542 6
 94  1 23 23  2  0.0020000  0  7 27 18  2 28 29 19 31
  22846941.291   -12854533.413 6  -9896543.214 6
  21094520.877   -15072009.339 7 -11636738.090 8
  25029898.471    -2966349.423 3  -2172003.958 1
  24232901.369    -6007986.211 5  -4633357.552 5
  22779300.314     5181306.445 6   4089315.314 7
  21648920.439   -17659668.283 7 -13692368.296 9
  23202993.885   -10687062.428 6  -8267809.531 6
 94  1 23 23  2 30.0020000  0  7 27 18  2 28 29 19 31
  22837340.916   -12904981.895 6  -9935853.712 7
  21099878.400   -15043848.486 7 -11614794.580 8
  25013808.205    -3050902.950 3  -2237889.728 1
  24236678.916    -5988110.064 5  -4617869.649 6
  22794627.799     5261850.047 6   4152076.524 7
  21647429.135   -17667512.553 7 -13698480.711 9
  23195738.549   -10725212.113 6  -8297536.533 6
 94  1 23 23  3  0.0020000  0  7 27 18  2 28 29 19 31
  22827759.244   -12955327.028 6  -9975083.672 7
  21105326.025   -15015218.863 7 -11592485.801 8
  24997747.010    -3135301.741 3  -2303654.905 2
  24240563.518    -5967681.909 5  -4601951.600 5
  22810022.463     5342748.614 6   4215114.325 7
  21645976.268   -17675145.411 7 -13704428.392 9
  23188564.861   -10762887.662 6  -8326894.070 6
 94  1 23 23  3 30.0020000  0  7 27 18  2 28 29 19 31
  22818201.330   -13005563.626 6 -10014229.055 7
  21110863.799   -14986114.725 7 -11569807.277 8
  24981716.002    -3219544.147 3  -2369298.200 2
  24244565.908    -5946706.143 5  -4585606.836 6
  22825482.057     5424006.125 6   4278431.830 7
  21644564.924   -17682561.664 7 -13710207.285 9
  23181485.846   -10800087.981 6  -8355881.296 6
 94  1 23 23  4  0.0020000  0  7 27 18  2 28 29 19 31
  22808657.299   -13055697.583 6 -10053294.456 7
  21116495.080   -14956525.352 7 -11546750.624 8
  24965719.174    -3303630.120 4  -2434819.620 3
  24248650.705    -5925183.613 5  -4568836.027 6
  22841015.244     5505612.391 6   4342021.089 7
  21643194.416   -17689766.549 7 -13715821.492 9
  23174503.783   -10836802.454 6  -8384489.941 6
 94  1 23 23  4 30.0020000  0  7 27 18  2 28 29 19 31
  22799139.518   -13105711.081 6 -10092265.999 7
  21122218.486   -14926448.029 7 -11523313.767 8
  24949752.463    -3387528.785 4  -2500195.073 3
  24252857.338    -5903094.922 5  -4551624.051 6
  22856610.439     5587574.292 6   4405887.452 6
  21641863.354   -17696761.370 7 -13721271.992 9
  23167609.611   -10873025.865 6  -8412715.947 6
 94  1 23 23  5  0.0020000  0  7 27 18  2 28 29 19 31
  22789654.158   -13155566.264 6 -10131114.163 7
  21128037.908   -14895872.710 7 -11499488.850 8
  24933825.947    -3471223.400 4  -2565411.507 5
  24257171.252    -5880436.959 5  -4533968.499 6
  22872277.682     5669905.432 6   4470041.537 6
  21640572.564   -17703541.243 7 -13726555.003 9
  23160808.283   -10908746.183 6  -8440549.923 6
 94  1 23 23  5 30.0020000  0  7 27 18  2 28 29 19 31
  22780198.994   -13205262.736 6 -10169838.659 7
  21133948.658   -14864811.098 7 -11475285.015 8
  24917931.377    -3554744.274 4  -2630492.590 3
  24261584.221    -5857226.536 5  -4515882.442 6
  22888013.041     5752587.661 6   4534469.213 7
  21639316.728   -17710141.880 7 -13731698.352 9
  23154101.502   -10943987.229 6  -8468010.449 6
 94  1 23 23  6  0.0020000  0  7 27 18  2 28 29 19 31
  22770771.486   -13254805.503 6 -10208443.376 7
  21139955.518   -14833251.846 7 -11450693.409 8
  24902069.916    -3638086.366 4  -2695434.327 4
  24266112.689    -5833449.499 5  -4497354.892 6
  22903810.650     5835619.243 6   4599169.092 6
  21638093.213   -17716564.785 7 -13736703.206 9
  23147485.775   -10978757.902 6  -8495104.445 6
 94  1 23 23  6 30.0020000  0  7 27 18  2 28 29 19 31
  22761370.572   -13304191.085 6 -10246925.621 7
  21146052.924   -14801201.666 7 -11425719.257 8
  24886249.846    -3721244.190 4  -2760232.481 5
  24270744.447    -5809105.901 5  -4478385.855 6
  22919677.744     5918993.612 6   4664136.091 6
  21636903.439   -17722807.499 7 -13741567.660 9
  23140959.252   -11013069.892 6  -8521841.029 6
 94  1 23 23  7  0.0020000  0  7 27 18  2 28 29 19 31
  22752002.994   -13353427.729 6 -10285291.803 7
  21152246.635   -14768659.232 7 -11400361.530 8
  24870454.611    -3804222.108 4  -2824890.475 4
  24275481.268    -5784211.117 5  -4458987.327 6
  22935606.736     6002698.071 6   4729360.293 6
  21635750.783   -17728868.457 7 -13746290.477 9
  23134518.705   -11046921.250 6  -8548218.674 6
 94  1 23 23  7 30.0020000  0  7 27 18  2 28 29 19 31
  22742659.221   -13402529.857 6 -10323553.180 7
  21158533.603   -14735619.032 7 -11374615.938 8
  24854702.400    -3887007.485 4  -2889398.436 5
  24280322.979    -5758766.666 5  -4439160.476 6
  22951596.510     6086730.391 6   4794839.971 6
  21634635.369   -17734742.133 7 -13750867.368 9
  23128160.799   -11080299.010 6  -8574227.280 6
 94  1 23 23  8  0.0020000  0  7 27 18  2 28 29 19 31
  22733344.697   -13451473.603 6 -10361691.132 7
  21164918.916   -14702060.389 7 -11348466.365 8
  24838994.627    -3969561.342 3  -2953725.986 4
  24285271.072    -5732757.552 5  -4418893.643 6
  22967656.478     6171120.529 6   4860598.471 6
  21633561.275   -17740397.200 7 -13755273.910 9
  23121908.119   -11113158.408 6  -8599831.981 6
 94  1 23 23  8 30.0020000  0  7 27 18  2 28 29 19 31
  22724056.010   -13500282.302 6 -10399723.868 7
  21171396.424   -14668027.804 7 -11321947.477 8
  24823322.502    -4051919.135 4  -3017900.804 4
  24290320.643    -5706229.430 5  -4398222.378 6
  22983776.557     6255829.463 6   4926605.392 6
  21632517.439   -17745865.526 7 -13759534.939 9
  23115752.713   -11145513.785 6  -8625043.933 6
 94  1 23 23  9  0.0020000  0  7 27 18  2 28 29 19 31
  22714795.533   -13548949.950 6 -10437646.683 7
  21177964.525   -14633515.402 7 -11295054.708 8
  24807688.143    -4134081.186 5  -3081923.082 4
  24295468.963    -5679186.918 5  -4377150.306 5
  22999959.611     6340867.740 6   4992868.932 6
  21631510.689   -17751147.240 7 -13763650.563 9
  23109696.978   -11177353.051 6  -8649853.723 6
 94  1 23 23  9 30.0020000  0  7 27 18  2 28 29 19 31
  22705560.861   -13597484.822 6 -10475466.038 7
  21184622.947   -14598520.948 7 -11267786.322 8
  24792085.643    -4216062.968 5  -3145804.899 4
  24300713.353    -5651624.448 5  -4355673.057 6
  23016202.994     6426240.901 6   5059393.421 6
  21630544.478   -17756235.129 7 -13767615.152 9
  23103734.494   -11208670.409 6  -8674256.841 6
 94  1 23 23 10  0.0030000  0  7 27 18  2 28 29 19 31
  22696350.280   -13645877.412 6 -10513174.530 7
  21191375.030   -14563032.454 7 -11240132.964 8
  24776521.015    -4297869.271 5  -3209549.996 4
  24306065.601    -5623511.215 5  -4333766.654 5
  23032515.241     6511969.285 6   5126194.712 6
  21629618.288   -17761111.181 7 -13771414.668 9
  23097879.249   -11239454.738 6  -8698244.605 6
 94  1 23 23 10 30.0030000  0  7 27 18  2 28 29 19 31
  22687164.062   -13694163.658 6 -10550800.158 7
  21198216.132   -14527079.982 7 -11212118.068 8
  24760979.062    -4379524.126 5  -3273177.082 4
  24311510.976    -5594867.693 5  -4311447.027 6
  23048888.499     6598005.640 6   5193235.972 6
  21628724.468   -17765808.007 7 -13775074.536 9
  23092112.608   -11269740.017 6  -8721843.500 6
 94  1 23 23 11  0.0030000  0  8 27 18  2 28 29 16 19 31
  22677997.335   -13742339.501 6 -10588339.764 7
  21205150.210   -14490646.272 7 -11183728.180 8
  24745472.968    -4461016.328 5  -3336677.413 5
  24317067.577    -5565680.787 5  -4288704.000 6
  23065323.335     6684370.164 6   5260532.962 6
  25609806.991          -0.73413
  21627865.413   -17770317.222 7 -13778588.209 9
  23086444.686   -11299525.761 6  -8745053.149 6
 94  1 23 23 11 30.0030000  0  8 27 18  2 28 29 16 19 31
  22668849.186   -13790398.008 6 -10625787.934 7
  21212175.015   -14453728.319 7 -11154960.958 8
  24729997.921    -4542338.724 4  -3400045.434 5
  24322727.397    -5535943.912 5  -4265532.415 6
  23081820.772     6771067.697 6   5328089.426 6
  25598488.765      -59474.174 3        -0.28611
  21627044.132   -17774627.331 7 -13781946.731 9
  23080872.968   -11328803.210 6  -8767866.728 6
 94  1 23 23 12  0.0030000  0  8 27 18  2 28 29 16 19 31
  22659728.288   -13838333.467 6 -10663140.229 7
  21219292.155   -14416332.811 7 -11125821.614 8
  24714556.835    -4623477.185 4  -3463270.123 5
  24328487.757    -5505662.140 5  -4241936.224 6
  23098380.944     6858087.345 6   5395896.898 6
  25587249.093     -118534.316 3    -46021.097 1
  21626259.663   -17778744.916 7 -13785155.239 9
  23075398.351   -11357581.934 6  -8790291.685 6
 94  1 23 23 12 30.0030000  0  8 27 18  2 28 29 16 19 31
  22650628.749   -13886145.122 6 -10700396.055 7
  21226497.671   -14378460.284 7 -11096310.572 8
  24699158.280    -4704417.295 5  -3526340.227 5
  24334352.382    -5474859.331 5  -4217934.043 6
  23115002.108     6945419.613 6   5463947.967 6
  25576088.257     -177192.151 3    -91728.475 2
  21625516.444   -17782675.394 7 -13788217.937 9
  23070018.312   -11385867.834 6  -8812332.622 6
 94  1 23 23 13  0.0030000  0  8 27 18  2 28 29 16 19 31
  22641554.757   -13933828.773 6 -10737552.140 7
  21233794.632   -14340105.890 7 -11066424.050 8
  24683789.929    -4785161.003 5  -3589257.296 4
  24340308.983    -5443537.114 5  -4193527.122 6
  23131678.593     7033071.899 6   5532248.390 6
  25565003.382     -235445.157 4   -137120.331 1
  21624806.038   -17786401.846 7 -13791121.668 9
  23064728.772   -11413652.978 6  -8833983.367 6
 94  1 23 23 13 30.0030000  0  8 27 18  2 28 29 16 19 31
  22632506.733   -13981383.292 6 -10774607.597 7
  21241188.522   -14301262.284 7 -11036156.318 8
  24668463.124    -4865707.159 5  -3652020.448 5
  24346371.812    -5411682.263 5  -4168705.160 5
  23148419.147     7121045.411 6   5600799.126 6
  25553994.429     -293297.522 3   -182200.037 1
  21624132.882   -17789919.936 7 -13793863.037 9
  23059542.679   -11440923.841 6  -8855233.370 6
 94  1 23 23 14  0.0030000  0  8 27 18  2 28 29 16 19 31
  22623482.976   -14028815.181 6 -10811567.494 7
  21248674.171   -14261922.072 7 -11005501.621 8
  24653176.616    -4946041.298 5  -3714618.401 5
  24352536.218    -5379292.290 5  -4143466.229 6
  23165221.538     7209335.905 6   5669596.861 6
  25543063.077     -350749.561 3   -226967.830 1
  21623505.616   -17793237.949 7 -13796448.499 9
  23054448.124   -11467675.462 6  -8876078.764 6
 94  1 23 23 14 30.0030000  0  8 27 18  2 28 29 16 19 31
  22614480.202   -14076110.334 6 -10848420.849 7
  21256256.476   -14222074.834 7 -10974451.842 8
  24637931.952    -5026151.284 5  -3777041.655 4
  24358802.468    -5346359.707 5  -4117804.461 5
  23182084.991     7297958.959 6   5738653.736 6
  25532206.069     -407790.960 3   -271415.611 1
  21622913.749   -17796353.339 7 -13798876.072 9
  23049457.061   -11493893.939 6  -8896508.732 6
 94  1 23 23 15  0.0030000  0  8 27 18  2 28 29 16 19 31
  22605506.335   -14123264.442 6 -10885164.296 7
  21263935.960   -14181727.040 7 -10943012.018 8
  24622728.765    -5106046.444 5  -3839297.536 4
  24365176.983    -5312867.690 5  -4091706.784 5
  23199016.593     7386920.521 6   5807974.383 6
  25521431.468     -464410.052 3   -315534.322 2
  21622353.202   -17799276.902 7 -13801154.172 9
  23044574.241   -11519572.669 6  -8916518.113 6
 94  1 23 23 15 30.0030000  0  8 27 18  2 28 29 16 19 31
  22596561.991   -14170273.715 6 -10921794.880 7
  21271707.733   -14140883.230 7 -10911185.692 8
  24607566.851    -5185712.276 5  -3901374.716 5
  24371659.272    -5278817.212 5  -4065173.932 5
  23216007.741     7476222.346 6   5877560.170 6
  25510740.530     -520596.438 3   -359315.864 3
  21621828.905   -17802029.809 7 -13803299.301 9
  23039786.413   -11544720.156 6  -8936113.544 6
 94  1 23 23 16  0.0030000  0  8 27 18  2 28 29 16 19 31
  22587644.444   -14217140.161 6 -10958314.175 7
  21279571.272   -14099557.897 7 -10878984.152 8
  24592451.765    -5265147.514 5  -3963272.208 4
  24378235.952    -5244223.045 5  -4038217.440 5
  23233067.249     7565863.904 6   5947410.674 6
  25500135.413     -576342.868 3   -402754.584 3
  21621337.905   -17804623.309 7 -13805320.208 9
  23035100.218   -11569344.956 6  -8955301.675 6
 94  1 23 23 16 30.0030000  0  8 27 18  2 28 29 16 19 31
  22578756.147   -14263839.379 6 -10994703.160 7
  21287528.866   -14057745.210 7 -10846402.855 8
  24577377.632    -5344361.790 5  -4024997.524 5
  24384929.358    -5209072.283 5  -4010827.234 5
  23250190.171     7655855.807 6   6017534.182 6
  25489610.327     -631633.813 4   -445838.400 1
  21620875.460   -17807037.814 7 -13807201.637 9
  23030519.788   -11593427.248 6  -8974067.073 6
 94  1 23 23 17  0.0030000  0  8 27 18  2 28 29 16 19 31
  22569898.413   -14310383.812 6 -11030971.526 7
  21295575.655   -14015459.657 7 -10813453.088 8
  24562344.413    -5423362.547 5  -4086556.466 5
  24391722.218    -5173379.558 5  -3983014.705 5
  23267381.272     7746185.899 6   6087921.213 6
  25479178.179     -686464.471 3   -488563.562 2
  21620450.007   -17809276.158 7 -13808945.801 9
  23026038.155   -11616970.905 6  -8992412.760 6
 94  1 23 23 17 30.0030000  0  8 27 18  2 28 29 16 19 31
  22561071.765   -14356785.546 6 -11067128.694 8
  21303712.327   -13972699.439 7 -10780133.456 8
  24547350.562    -5502149.780 5  -4147949.021 4
  24398611.358    -5137164.730 5  -3954795.367 5
  23284633.319     7836842.243 6   6158562.465 6
  25468831.741     -740844.785 3   -530937.790 1
  21620064.233   -17811320.473 7 -13810538.772 9
  23021658.030   -11639979.374 6  -9010341.408 6
 94  1 23 23 18  0.0030000  0  8 27 18  2 28 29 16 19 31
  22552267.265   -14403044.549 6 -11103174.646 7
  21311939.093   -13929461.427 7 -10746441.511 8
  24532398.694    -5580728.393 5  -4209179.018 4
  24405601.366    -5100430.386 5  -3926171.194 5
  23301942.343     7927812.735 6   6229448.499 6
  25458565.749     -794785.661 4   -572969.589 1
  21619710.218   -17813155.125 7 -13811968.373 9
  23017386.655   -11662445.841 6  -9027847.729 6
 94  1 23 23 18 30.0030000  0  8 27 18  2 28 29 16 19 31
  22543494.116   -14449169.361 6 -11139116.033 7
  21320259.312   -13885735.959 7 -10712369.734 8
  24517486.366    -5659102.326 5  -4270249.542 5
  24412690.452    -5063174.835 5  -3897140.900 5
  23319309.108     8019074.955 6   6300561.867 6
  25448378.647     -848296.234 3   -614666.098 2
  21619404.702   -17814775.343 7 -13813230.886 9
  23013210.515   -11684375.127 6  -9044935.453 6
 94  1 23 23 19  0.0030000  0  8 27 18  2 28 29 16 19 31
  22534735.101   -14495180.402 6 -11174968.776 7
  21328670.538   -13841532.418 7 -10677925.434 8
  24502610.460    -5737268.223 5  -4331157.959 5
  24419883.983    -5025406.670 5  -3867711.154 5
  23336731.210     8110619.276 6   6371895.045 6
  25438279.624     -901390.619 3   -656038.327 2
  21619132.280   -17816205.699 7 -13814345.439 9
  23009136.726   -11705785.394 6  -9061618.749 7
 94  1 23 23 19 30.0030000  0  8 27 18  2 28 29 16 19 31
  22526006.179   -14541051.104 6 -11210712.162 7
  21337181.522   -13796814.116 7 -10643080.022 8
  24487776.976    -5815213.343 5  -4391894.367 5
  24427173.515    -4987076.859 5  -3837843.785 5
  23354209.304     8202469.619 6   6443466.681 6
  25428260.272     -954046.472 3   -697068.825 2
  21618900.163   -17817423.522 7 -13815294.396 9
  23005169.718   -11726642.455 6  -9077870.972 6
 94  1 23 23 20  0.0030000  0  8 27 18  2 28 29 16 19 31
  22517304.624   -14586771.905 6 -11246338.739 8
  21345785.765   -13751591.473 7 -10607841.613 8
  24472986.085    -5892948.543 5  -4452467.168 5
  24434569.897    -4948183.158 5  -3807537.001 5
  23371746.444     8294621.101 6   6515272.981 6
  25418323.577    -1006254.702 3   -737750.495 1
  21618707.374   -17818452.682 7 -13816096.335 9
  23001302.366   -11746949.906 6  -9093694.928 7
 94  1 23 23 20 30.0030000  0  8 27 18  2 28 29 16 19 31
  22508633.483   -14632338.045 6 -11281844.802 8
  21354487.890   -13705871.317 7 -10572215.541 8
  24458226.757    -5970494.738 5  -4512892.729 5
  24442077.249    -4908724.671 5  -3776790.117 5
  23389337.694     8387079.437 6   6587318.379 6
  25408477.952    -1058004.769 3   -778075.206 2
  21618542.554   -17819304.735 7 -13816760.278 9
  22997544.499   -11766704.537 6  -9109088.115 6
 94  1 23 23 21  0.0030000  0  8 27 18  2 28 29 16 19 31
  22499990.585   -14677761.300 6 -11317239.520 7
  21363280.093   -13659673.400 7 -10536217.180 8
  24443500.601    -6047872.937 5  -4573187.374 5
  24449695.522    -4868719.162 5  -3745616.980 5
  23406995.046     8479853.010 6   6659609.413 6
  25398714.858    -1109291.298 3   -818038.681 3
  21618415.124   -17819989.392 7 -13817293.767 9
  22993891.351   -11785907.099 6  -9124051.112 6
 94  1 23 23 21 30.0030000  0  8 27 18  2 28 29 16 19 31
  22491372.726   -14723046.167 6 -11352526.418 7
  21372159.132   -13613004.860 7 -10499852.105 8
  24428809.436    -6125089.740 5  -4633356.231 5
  24457409.718    -4828188.120 5  -3714034.331 4
  23424703.382     8572933.397 6   6732139.536 6
  25389040.280    -1160125.993 3   -857650.124 2
  21618317.327   -17820487.731 7 -13817682.088 9
  22990337.608   -11804571.057 6  -9138594.424 6
 94  1 23 23 22  0.0030000  0  8 27 18  2 28 29 16 19 31
  22482782.726   -14768179.199 6 -11387694.998 7
  21381129.452   -13565867.757 7 -10463121.913 8
  24414153.577    -6202116.369 5  -4693376.941 5
  24465221.233    -4787136.707 5  -3682046.209 5
  23442478.968     8666328.913 6   6804915.203 6
  25379455.835    -1210495.977 3   -896899.410 2
  21618258.327   -17820788.099 7
  22986893.780   -11822699.637 6  -9152720.564 6
 94  1 23 23 22 30.0030000  0  8 27 18  2 28 29 16 19 31
  22474224.171   -14813164.215 6 -11422748.239 7
  21390190.741   -13518248.789 7 -10426016.245 8
  24399531.140    -6278933.467 5  -4753234.378 5
  24473134.733    -4745555.407 5  -3649645.179 5
  23460312.476     8760046.930 6   6877942.176 6
  25369966.819    -1260397.086 3   -935783.364 2
  21618245.296   -17820872.538 7
  22983541.991   -11840275.334 6  -9166415.881 7
 94  1 23 23 23  0.0030000  0  8 27 18  2 28 29 16 19 31
  22465685.585   -14858022.365 6 -11457702.634 7
  21399339.647   -13470166.512 7 -10388549.551 8
  24384958.929    -6355530.408 5  -4812920.252 5
  24481143.788    -4703469.611 5  -3616851.042 5
  23478204.054     8854062.828 6   6951201.261 6
  25360552.093    -1309860.391 3   -974326.175 3
  21618270.444   -17820748.142 7
  22980300.116   -11857320.506 6  -9179697.804 7
 94  1 23 23 23 30.0030000  0  8 27 18  2 28 29 16 19 31
  22457177.687   -14902742.418 6 -11492549.413 7
  21408576.202   -13421632.419 7 -10350730.801 8
  24370433.382    -6431885.809 5  -4872417.929 5
  24489248.944    -4660877.677 5  -3583662.509 5
  23496146.929     8948361.178 6   7024680.440 6
  25351218.421    -1358902.074 3  -1012540.422 3
  21618328.710   -17820433.588 7
  22977153.577   -11873839.554 6  -9192569.764 6
 94  1 23 23 24  0.0030000  0  8 27 18  2 28 29 16 19 31
  22448694.968   -14947322.057 6 -11527286.780 8
  21417900.030   -13372632.369 7 -10312548.960 8
  24355944.077    -6507992.684 5  -4931721.950 5
  24497449.280    -4617771.236 5  -3550073.061 5
  23514147.515     9042941.743 6   7098379.529 6
  25341964.647    -1407504.203 3  -1050412.183 2
  21618419.741   -17819944.703 7 -13817258.940 9
  22974120.085   -11889804.788 6  -9205010.185 6
 94  1 23 23 24 30.0030000  0  8 27 18  2 28 29 16 19 31
  22440235.749   -14991770.863 6 -11561922.199 7
  21427316.335   -13323157.747 7 -10273997.330 8
  24341510.194    -6583856.798 5  -4990836.799 5
  24505745.460    -4574157.710 5  -3516088.493 5
  23532199.257     9137814.980 6   7172306.662 6
  25332798.819    -1455671.771 3  -1087945.318 2
  21618551.358   -17819270.966 7 -13816733.942 9
  22971187.241   -11905199.124 6  -9217005.744 7
 94  1 23 23 25  0.0030000  0  8 27 18  2 28 29 16 19 31
  22431804.702   -15036079.480 6 -11596448.372 7
  21436824.038   -13273200.396 7 -10235069.535 8
  24327121.757    -6659461.045 5  -5049749.165 5
  24514144.749    -4530024.442 5  -3481698.933 5
  23550308.757     9232992.217 6   7246470.687 6
  25323722.835    -1503379.769 3  -1125120.338 3
  21618713.569   -17818404.802 7 -13816059.010 9
  22968371.116   -11920009.105 6  -9228545.972 7
 94  1 23 23 25 30.0030000  0  8 27 18  2 28 29 16 19 31
  22423399.444   -15080248.661 6 -11630865.906 7
  21446423.358   -13222747.414 7 -10195755.548 8
  24312782.772    -6734816.019 5  -5108467.285 5
  24522645.835    -4485356.108 5  -3446892.441 5
  23568485.476     9328479.735 6   7320876.488 5
  25314738.265    -1550601.475 3  -1161916.423 3
  21618914.718   -17817355.639 7 -13815241.475 9
  22965666.921   -11934223.781 6  -9239622.321 6
 94  1 23 23 26  0.0030000  0  8 27 18  2 28 29 16 19 31
  22415016.671   -15124288.964 6 -11665183.016 7
  21456120.046   -13171790.461 7 -10156048.854 8
  24298484.382    -6809940.497 5  -5167005.808 5
  24531245.155    -4440156.908 5  -3411672.293 5
  23586713.835     9424273.715 6   7395521.090 6
  25305846.687    -1597324.879 3  -1198324.230 3
  21619154.397   -17816092.992 7 -13814257.595 9
  22963075.538   -11947844.352 6  -9250235.730 7
 94  1 23 23 26 30.0030000  0  8 27 18  2 28 29 16 19 31
  22406663.733   -15168179.676 6 -11699383.553 8
  21465912.655   -13120340.623 7 -10115958.088 8
  24284233.202    -6884836.031 5  -5225365.920 5
  24539947.991    -4394420.346 5  -3376033.413 5
  23605002.077     9520382.144 6   7470410.712 5
  25297051.038    -1643545.407 3  -1234340.207 2
  21619437.601   -17814609.714 7 -13813101.791 9
  22960595.382   -11960881.076 6  -9260394.198 7
 94  1 23 23 27  0.0030000  0  8 27 18  2 28 29 16 19 31
  22398344.780   -15211916.792 6 -11733464.395 8
  21475790.186   -13068414.249 7 -10075496.003 8
  24270022.679    -6959519.779 5  -5283561.013 5
  24548757.405    -4348157.602 5  -3339984.539 5
  23623343.319     9616773.289 6   7545520.639 5
  25288345.507    -1689270.119 3  -1269969.813 2
  21619753.171   -17812938.901 7 -13811799.856 9
  22958221.554   -11973365.726 6  -9270122.480 6
 94  1 23 23 27 30.0030000  0  8 27 18  2 28 29 16 19 31
  22390053.858   -15255484.522 6 -11767413.259 8
  21485765.616   -13015995.552 7 -10034650.283 8
  24255847.968    -7034002.963 5  -5341599.813 5
  24557659.374    -4301374.758 5  -3303530.375 5
  23641740.679     9713458.234 6   7620859.488 5
  25279736.374    -1734514.466 4  -1305225.093 2
  21620108.147   -17811068.352 7 -13810342.279 9
  22955948.913   -11985309.457 6  -9279429.260 7
 94  1 23 23 28  0.0030000  0  8 27 18  2 28 29 16 19 31
  22381793.413   -15298882.936 6 -11801230.180 8
  21495835.632   -12963087.063 7  -9993422.905 8
  24241714.983    -7108278.603 5  -5399476.888 5
  24566650.897    -4254083.766 5  -3266680.245 5
  23660197.210     9810436.698 6   7696427.069 5
  25271218.413    -1779295.427 4  -1340119.332 3
  21620506.538   -17808989.015 7 -13808722.014 9
  22953773.835   -11996713.651 6  -9288315.626 7
 94  1 23 23 28 30.0030000  0  8 27 18  2 28 29 16 19 31
  22373568.530   -15342120.209 7 -11834921.534 8
  21505994.327   -12909694.586 7  -9951818.396 8
  24227620.991    -7182338.659 5  -5457185.967 5
  24575749.749    -4206279.071 5  -3229429.815 5
  23678706.546     9907706.113 5   7772221.352 5
  25262785.491    -1823620.571 4  -1374658.362 1
  21620937.038   -17806732.015 7 -13806963.305 9
  22951707.788   -12007575.735 6  -9296779.564 6
 94  1 23 23 29  0.0030000  0  8 27 18  2 28 29 16 19 31
  22365364.929   -15385221.554 6 -11868506.984 8
  21516250.155   -12855807.212 7  -9909828.256 8
  24213565.343    -7256187.401 5  -5514730.409 5
  24584947.983    -4157952.382 5  -3191772.630 5
  23697266.686    10005251.972 5   7848231.051 5
  25254436.397    -1867489.275 5  -1408841.722 2
  21621399.304   -17804293.514 7 -13805063.169 9
  22949742.827   -12017897.247 6  -9304822.277 7
 94  1 23 23 29 30.0030000  0  8 27 18  2 28 29 16 19 31
  22357188.272   -15428194.113 7 -11901992.079 8
  21526599.491   -12801418.321 7  -9867447.326 8
  24199560.593    -7329807.530 5  -5572096.711 5
  24594245.382    -4109090.720 5  -3153698.592 5
  23715884.960    10103084.323 5   7924463.984 5
  25246179.452    -1910897.554 4  -1442666.306 3
  21621904.890   -17801640.699 7 -13802996.037 9
  22947885.015   -12027652.966 6  -9312424.112 7
 94  1 23 23 30  0.0030000  0  8 27 18  2 28 29 16 19 31
  22349033.741   -15471041.288 6
  21537040.210   -12746552.195 7  -9824694.518 8
  24185593.944    -7403182.775 5  -5629272.212 5
  24603649.476    -4059689.322 5  -3115203.975 5
  23734551.632    10201180.082 5   8000902.170 5
  25238006.382    -1953833.393 4
  21622449.265   -17798780.568 7 -13800767.357 9
  22946142.132   -12036825.643 6  -9319571.617 7
 94  1 23 23 30 30.0030000  0  8 27 18  2 28 29 16 19 31
  22340906.249   -15513751.637 7 -11968660.234 8
  21547569.890   -12691219.271 7  -9781577.972 8
  24171681.343    -7476311.909 5  -5686255.912 5
  24613149.522    -4009743.119 5  -3076284.838 5
  23753267.702    10299535.745 5   8077542.873 5
  25229928.132    -1996291.452 5  -1509206.913 1
  21623032.007   -17795716.865 7 -13798380.046 9
  22944506.608   -12045428.168 6  -9326274.862 7
 94  1 23 23 31  0.0030000  0  8 27 18  2 28 29 16 19 31
  22332808.452   -15556304.674 7 -12001818.420 8
  21558188.991   -12635415.448 7  -9738094.489 8
  24157812.421    -7549188.222 5  -5743042.611 5
  24622756.507    -3959265.899 5  -3036951.932 5
  23772038.007    10398161.687 5   8154394.191 5
  25221936.780    -2038271.750 5  -1541918.794 1
  21623657.694   -17792431.406 7 -13795819.939 9
  22942977.452   -12053452.231 6  -9332527.354 7
 94  1 23 23 31 30.0030000  0  8 27 18  2 28 29 16 19 31
  22324738.054   -15598703.384 7 -12034856.356 8
  21568891.077   -12579173.317 7  -9694269.471 8
  24143989.413    -7621816.096 5  -5799635.743 5
  24632452.960    -3908289.349 5  -2997229.935 5
  23790854.819    10497059.011 5   8231456.974 5
  25214036.499    -2079785.752 4  -1574267.370 1
  21624319.069   -17788948.053 7 -13793105.635 9
  22941560.163   -12060898.602 6  -9338329.690 7
 94  1 23 23 32  0.0030000  0  8 27 18  2 28 29 16 19 31
  22316705.061   -15640933.189 7 -12067762.678 8
  21579679.843   -12522486.022 7  -9650097.571 8
  24130219.710    -7694189.228 5  -5856030.361 5
  24642252.436    -3856815.679 5  -2957120.577 5
  23809729.210    10596237.900 5   8308739.163 5
  25206230.710    -2120809.309 5  -1606233.703 1
  21625016.030   -17785280.498 7 -13790247.796 9
  22940256.241   -12067762.186 6  -9343677.909 7
 94  1 23 23 32 30.0030000  0  8 27 18  2 28 29 16 19 31
  22308699.874   -15683002.137 7 -12100543.648 8
  21590550.218   -12465342.198 7  -9605569.933 8
  24116486.015    -7766326.826 5  -5912241.459 5
  24652142.772    -3804861.848 5  -2916637.077 6
  23828655.390    10695709.948 5   8386249.775 5
  25198520.062    -2161347.898 4  -1637822.190 1
  21625749.304   -17781435.808 7 -13787251.933 9
  22939057.366   -12074048.863 6  -9348576.588 7
 94  1 23 23 33  0.0030000  0  8 27 18  2 28 29 16 19 31
  22300719.382   -15724930.978 7 -12133215.462 8
  21601512.546   -12407750.498 7  -9560693.299 8
  24102807.413    -7838243.922 5  -5968280.722 5
  24662109.765    -3752443.136 5  -2875791.334 6
  23847641.772    10795467.218 5   8463982.647 5
  25190894.796    -2201405.531 4  -1669035.910 2
  21626512.960   -17777418.717 7 -13784121.732 9
  22937973.827   -12079750.829 6  -9353019.650 7
 94  1 23 23 33 30.0030000  0  8 27 18  2 28 29 16 19 31
  22292766.218   -15766720.945 7 -12165779.052 8
  21612560.687   -12349693.198 7  -9515453.867 8
  24089165.757    -7909930.917 5  -6024140.677 5
  24672184.241    -3699540.700 5  -2834568.663 6
  23866674.944    10895499.092 5   8541929.490 5
  25183366.616    -2240959.987 4  -1699857.513 2
  21627311.101   -17773227.530 7 -13780855.867 9
  22937001.718   -12084865.419 6  -9357005.017 7
 94  1 23 23 34  0.0030000  0  8 27 18  2 28 29 16 19 31
  22284842.702   -15808364.653 7 -12198228.676 8
  21623697.460   -12291160.329 7  -9469843.852 8
  24075567.093    -7981384.909 5  -6079819.077 5
  24682345.319    -3646149.479 5  -2792965.117 6
  23885760.890    10995783.707 5   8620073.290 5
  25175938.155    -2280005.511 4  -1730282.583 2
  21628145.030   -17768846.855 7 -13777442.354 9
  22936138.124   -12089398.174 6  -9360537.005 7
 94  1 23 23 34 30.0030000  0  8 27 18  2 28 29 16 19 31
  22276950.022   -15849848.295 7 -12230553.574 8
  21634928.663   -12232143.779 7  -9423856.944 8
  24062016.054    -8052597.423 5  -6135309.327 5
  24692596.780    -3592249.382 5  -2750965.030 6
  23904895.890    11096330.194 5   8698421.125 5
  25168604.655    -2318540.346 4  -1760309.714 2
  21629018.538   -17764256.443 7 -13773865.399 9
  22935388.319   -12093330.384 6  -9363601.038 7
 94  1 23 23 35  0.0030000  0  8 27 18  2 28 29 16 19 31
  22269082.218   -15891189.838 7 -12262767.748 8
  21646248.749   -12172662.074 7  -9377507.586 8
  24048508.647    -8123567.867 5  -6190610.954 5
  24702949.085    -3537847.761 5  -2708574.150 6
  23924070.694    11197112.240 5   8776952.517 5
  25161364.796    -2356581.343 4  -1789952.014 1
  21629929.296   -17759470.908 7 -13770136.407 9
  22934749.827   -12096683.313 6  -9366213.681 7
 94  1 23 23 35 30.0030000  0  8 27 18  2 28 29 16 19 31
  22261243.015   -15932381.708 7 -12294865.294 8
  21657656.804   -12112704.570 7  -9330787.468 8
  24035053.515    -8194279.592 5  -6245710.958 5
  24713402.616    -3482945.815 5  -2665793.412 6
  23943296.757    11298125.697 5   8855664.228 5
  25154217.616    -2394121.296 4  -1819203.932 1
  21630878.210   -17754485.282 7 -13766251.497 9
  22934223.991   -12099460.348 6  -9368377.574 7
 94  1 23 23 36  0.0030000  0  8 27 18  2 28 29 16 19 31
  22253435.366   -15973417.730 7 -12326841.403 8
  21669155.452   -12052283.574 7  -9283706.190 8
  24021644.358    -8264746.670 5  -6300620.337 5
  24723936.843    -3427553.902 5  -2622630.873 5
  23962563.530    11399384.507 5   8934567.132 5
  25147169.968    -2431177.051 5  -1848078.492 2
  21631866.030   -17749300.761 7 -13762211.604 9
  22933797.812   -12101661.108 6  -9370092.423 7
 94  1 23 23 36 30.0030000  0  8 27 18  2 28 29 16 19 31
  22245653.632   -16014310.378 7 -12358705.790 8
  21680740.515   -11991399.196 7  -9236263.841 8
  24008281.991    -8334976.605 5  -6355344.924 5
  24734569.851    -3371662.050 5  -2579078.767 5
  23981880.171    11500904.504 5   9013673.554 5
  25140204.546    -2467777.667 4  -1876598.414 2
  21632886.655   -17743925.706 7 -13758023.241 9
  22933494.944   -12103289.241 6  -9371361.071 7
 94  1 23 23 37  0.0030000  0  8 27 18  2 28 29 16 19 31
  22237899.351   -16055047.029 7 -12390448.631 8
  21692417.882   -11930038.806 7  -9188450.568 8
  23994964.858    -8404949.898 5  -6409869.518 5
  24745305.796    -3315255.014 5  -2535125.216 5
  24001253.437    11602699.025 5   9092993.891 5
  25133327.437    -2503901.861 4  -1904747.115 3
  21633951.163   -17738342.664 7 -13753672.810 9
  22933294.726   -12104327.651 6  -9372170.190 7
 94  1 23 23 37 30.0030000  0  8 27 18  2 28 29 16 19 31
  22230177.796   -16095624.568 7 -12422067.478 8
  21704183.374   -11868205.751 7  -9140268.985 8
  23981696.749    -8474682.303 5  -6464206.425 5
  24756138.312    -3258337.866 5  -2490774.178 5
  24020676.476    11704765.084 5   9172525.811 5
  25126549.679    -2539538.988 5  -1932516.264 2
  21635052.741   -17732551.110 7 -13749159.901 9
  22933207.327   -12104766.920 6
 94  1 23 23 38  0.0030000  0  8 27 18  2 28 29 16 19 31
  22222488.413   -16136028.808 7 -12453551.294 8
  21716040.132   -11805902.020 7  -9091720.648 8
  23968475.124    -8544167.225 5  -6518350.480 6
  24767072.874    -3200894.786 5  -2446013.316 5
  24040149.929    11807114.608 5   9252278.633 5
  25119858.491    -2574682.350 4  -1959900.679 2
  21636196.804   -17726541.070 7 -13744476.744 9
  22933248.757   -12104581.660 6
 94  1 23 23 38 30.0030000  0  8 27 18  2 28 29 16 19 31
  22214829.351   -16176287.335 7 -12484921.564 8
  21727984.140   -11743135.450 7  -9042811.650 8
  23955299.616    -8613399.417 6  -6572297.592 5
  24778096.983    -3142942.491 5  -2400855.650 5
  24059680.944    11909728.813 5   9332237.667 5
  25113266.733    -2609326.783 4  -1986896.290 3
  21637377.468   -17720324.862 7 -13739632.939 9
  22933401.085   -12103785.761 6  -9371747.834 7
 94  1 23 23 39  0.0030000  0  8 27 18  2 28 29 16 19 31
  22207192.819   -16216410.791 7 -12516186.580 8
  21740011.546   -11679930.525 7  -8993561.075 8
  23942170.030    -8682392.829 5  -6626058.653 5
  24789214.202    -3084527.524 4  -2355337.496 4
  24079248.491    12012570.762 5   9412374.184 5
  25106775.647    -2643447.787 4  -2013484.052 3
  21638594.218   -17713929.131 7 -13734649.242 9
  22933665.007   -12102402.638 6  -9370670.050 7
 94  1 23 23 39 30.0030000  0  8 27 18  2 28 29 16 19 31
  22199591.468   -16256358.378 7 -12547314.555 8
  21752127.437   -11616258.804 7  -8943946.760 8
  23929091.499    -8751117.043 5  -6679609.940 5
  24800418.421    -3025636.368 4  -2309448.269 4
  24098870.991    12115670.078 5   9492711.243 5
  25100382.679    -2677026.333 3  -2039649.115 2
  21639848.405   -17707334.050 7 -13729510.213 9
  22934042.202   -12100415.080 6  -9369121.280 7
 94  1 23 23 40  0.0030000  0  8 27 18  2 28 29 16 19 31
  22192020.554   -16296142.508 7 -12578315.167 8
  21764329.374   -11552133.665 7  -8893979.139 8
  23916064.257    -8819578.416 5  -6732956.430 5
  24811712.397    -2966276.517 4  -2263193.841 5
  24118536.640    12219018.507 5   9573242.415 5
  25094095.101    -2710089.471 3  -2065412.563 2
  21641141.022   -17700558.901 7 -13724230.869 9
  22934530.483   -12097849.258 6  -9367121.909 7
 94  1 23 23 40 30.0030000  0  8 27 18  2 28 29 16 19 31
  22184481.882   -16335761.675 7 -12609187.234 8
  21776620.788   -11487548.111 7  -8843652.754 8
  23903088.054    -8887778.133 6  -6786099.021 6
  24823098.929    -2906438.994 4  -2216567.177 4
  24138249.663    12322618.761 5   9653969.792 5
  25087894.897    -2742630.962 3  -2090769.531 3
  21642462.226   -17693609.613 7 -13718815.837 9
  22935127.897   -12094707.912 6  -9364674.079 7
 94  1 23 23 41  0.0030000  0  8 27 18  2 28 29 16 19 31
  22176976.210   -16375206.279 7 -12639923.283 8
  21788995.304   -11422519.310 7  -8792980.982 8
  23890152.554    -8955734.661 5  -6839052.124 6
  24834580.749    -2846117.289 4  -2169563.251 5
  24158006.405    12426449.498 5   9734876.790 5
  25081803.452    -2774672.580 3  -2115736.984 3
  21643818.507   -17686484.836 7 -13713264.055 9
  22935831.054   -12090998.982 6  -9361783.978 7
 94  1 23 23 41 30.0030000  0  8 27 18  2 28 29 16 19 31
  22169503.460   -16414474.664 7 -12670522.017 9
  21801457.960   -11357027.053 7  -8741948.071 8
  23877270.515    -9023440.631 5  -6891809.987 6
  24846155.741    -2785281.822 5  -2122158.998 5
  24177815.468    12530532.552 5   9815980.406 4
  25075798.061    -2806232.180 3  -2140328.855 4
  21645209.522   -17679167.057 7 -13707561.889 9
  22936649.405   -12086692.909 6  -9358428.571 7
 94  1 23 23 42  0.0030000  0  8 27 18  2 28 29 16 19 31
  22162061.671   -16453589.327 7 -12701000.952 9
  21814009.679   -11291069.382 7  -8690552.503 8
  23864432.741    -9090902.290 5  -6944377.471 6
  24857831.147    -2723922.144 5  -2074346.246 5
  24197667.929    12634862.768 5   9897276.598 5
  25069889.179    -2837301.748 3  -2164538.830 3
  21646640.577   -17671648.510 7 -13701703.277 9
  22937590.296   -12081784.353 6  -9354603.693 7
 94  1 23 23 42 30.0030000  0  8 27 18  2 28 29 16 19 31
  22154646.890   -16492546.240 7 -12731356.966 9
  21826649.366   -11224654.489 7  -8638800.660 8
  23851640.132    -9158120.704 5  -6996755.435 6
  24869604.319    -2662053.732 5  -2026137.080 5
  24217567.241    12739436.513 5   9978762.560 5
  25064064.296    -2867872.447 3  -2188360.116 5
  21648113.335   -17663917.676 7 -13695679.253 9
  22938634.179   -12076274.176 6  -9350310.012 7
 94  1 23 23 43  0.0030000  0  8 27 18  2 28 29 16 19 31
  22147264.874   -16531345.859 7 -12761590.414 9
  21839372.241   -11157784.701 7  -8586694.352 8
  23838895.929    -9225096.780 5  -7048944.548 6
  24881471.976    -2599694.427 5  -1977545.407 5
  24237515.210    12844257.851 5  10060441.447 5
  25058341.491    -2897946.233 3  -2211794.202 5
  21649624.968   -17655963.429 7 -13689481.144 9
  22939794.718   -12070175.809 6  -9345558.001 7
 94  1 23 23 43 30.0030000  0  8 27 18  2 28 29 16 19 31
  22139908.015   -16570006.781 7 -12791715.788 9
  21852183.601   -11090472.752 7  -8534243.506 8
  23826196.882    -9291844.014 6  -7100955.340 6
  24893428.577    -2536872.200 5  -1928593.005 5
  24257504.757    12949325.769 5  10142312.477 4
  25052714.390    -2927522.037 3  -2234840.229 4
  21651180.093   -17647797.635 7 -13683118.180 9
  22941065.226   -12063497.008 6  -9340353.703 7
 94  1 23 23 44  0.0030000  0  8 27 18  2 28 29 16 19 31
  22132580.554   -16608511.165 7 -12821719.182 9
  21865074.312   -11022726.204 7  -8481454.001 8
  23813536.554    -9358353.497 6  -7152780.886 6
  24905469.976    -2473599.612 5  -1879289.667 5
  24277549.335    13054633.429 5  10224370.316 4
  25047184.272    -2956583.846 3  -2257485.745 4
  21652778.726   -17639406.351 7 -13676579.516 9
  22942442.976   -12056252.368 6  -9334708.490 7
 94  1 23 23 44 30.0030000  0  8 27 18  2 28 29 16 19 31
  22125283.851   -16646844.812 7 -12851589.539 9
  21878048.280   -10954542.833 7  -8428324.133 8
  23800928.976    -9424614.561 6  -7204412.853 6
  24917593.616    -2409893.534 5  -1829648.551 5
  24297631.561    13160177.196 5  10306612.140 4
  25041757.062    -2985125.832 4  -2279726.213 4
  21654416.351   -17630787.096 7 -13669863.208 9
  22943933.429   -12048435.178 6  -9328617.136 7
 94  1 23 23 45  0.0030000  0  8 27 18  2 28 29 16 19 31
  22118021.561   -16685016.225 7 -12881333.462 9
  21891107.858   -10885913.524 7  -8374846.756 8
  23788367.226    -9490626.065 6  -7255850.363 6
  24929797.851    -2345751.366 5  -1779667.623 4
  24317757.366    13265938.889 5  10389023.770 3
  25036422.843    -3013147.821 4  -2301561.479 3
  21656097.562   -17621947.401 7 -13662975.128 9
  22945530.351   -12040041.768 6  -9322076.771 7
 94  1 23 23 45 30.0030000  0  8 27 18  2 28 29 16 19 31
  22110790.577   -16723017.399 7 -12910944.739 9
  21904254.007   -10816825.036 7  -8321011.584 8
  23775857.147    -9556371.238 6  -7307080.335 6
  24942093.015    -2281163.577 5  -1729339.466 4
  24337925.421    13371914.918 5  10471602.419 4
  25031191.187    -3040645.202 4  -2322987.966 5
  21657821.601   -17612890.941 7
  22947240.733   -12031049.598 6
 94  1 23 23 46  0.0030000  0  8 27 18  2 28 29 16 19 31
  22103589.913   -16760854.020 7 -12940427.786 9
  21917489.468   -10747277.824 7  -8266818.975 8
  23763399.437    -9621832.983 5  -7358089.454 6
  24954468.686    -2216128.427 5  -1678662.703 2
  24358130.663    13478094.675 5  10554339.820 4
  25026053.483    -3067623.101 5  -2344009.662 4
  21659580.780   -17603634.402 7 -13648705.248 9
  22949066.179   -12021466.931 6  -9307602.791 7
 94  1 23 23 46 30.0030000  0  8 27 18  2 28 29 16 19 31
  22096418.772   -16798532.298 7 -12969787.445 9
  21930809.991   -10677276.906 7  -8212272.827 8
  23750997.812    -9687008.130 5  -7408875.265 6
  24966928.991    -2150626.949 5  -1627622.571 4
  24378369.194    13584471.972 5  10637231.134 4
  25021020.413    -3094079.533 5  -2364625.022 5
  21661381.757   -17594189.549 7 -13641345.611 9
  22950999.593   -12011277.651 6  -9299663.052 7
 94  1 23 23 47  0.0030000  0  8 27 18  2 28 29 16 19 31
  22089280.554   -16836039.330 7 -12999013.666 9
  21944217.452   -10606822.611 7  -8157373.394 8
  23738651.140    -9751893.534 6  -7459435.289 6
  24979492.718    -2084623.688 5  -1576191.433 3
  24398656.085    13691058.138 5  10720285.198 4
  25016086.811    -3120020.944 5  -2384839.063 4
  21663213.358   -17584555.522 7 -13633838.565 9
  22953059.460   -12000476.650 6  -9291246.669 7
 94  1 23 23 47 30.0030000  0  8 27 18  2 28 29 16 19 31
  22082179.015   -16873376.322 7 -13028107.395 9
  21957707.624   -10535934.102 7  -8102135.617 8
  23726358.686    -9816485.380 6  -7509766.573 6
  24992144.866    -2018121.913 5  -1524371.836 3
  24418976.983    13797860.791 5  10803507.979 4
  25011248.608    -3145447.998 5  -2404652.303 4
  21665080.515   -17574733.154 7 -13626184.762 9
  22955231.944   -11989063.580 6  -9282353.332 7
 94  1 23 23 48  0.0030000  0  8 27 18  2 28 29 16 19 31
  22075102.397   -16910553.479 7 -13057076.573 9
  21971275.944   -10464628.389 7  -8046572.746 8
  23714119.507    -9880804.736 6  -7559885.525 6
  25004889.811    -1951126.680 5  -1472167.743 3
  24439340.960    13904867.651 5  10886889.857 4
  25006502.647    -3170369.226 5  -2424071.420 4
  21666989.007   -17564728.143 7 -13618388.629 9
  22957514.093   -11977048.938 6  -9272991.250 7
 94  1 23 23 48 30.0030000  0  8 27 18  2 28 29 16 19 31
  22068060.155   -16947561.784 7 -13085914.171 9
  21984923.843   -10392902.895 7  -7990682.772 8
  23701929.233    -9944869.934 6  -7609806.432 6
  25017735.218    -1883641.084 5  -1419581.525 4
  24459741.632    14012080.802 5  10970432.483 4
  25001859.335    -3194784.953 5  -2443096.605 4
  21668926.476   -17554532.207 7 -13610443.736 9
  22959922.601   -11964415.566 6  -9263147.040 7
 94  1 23 23 49  0.0030000  0  8 27 18  2 28 29 16 19 31
  22061052.093   -16984396.505 7 -13114616.527 9
  21998655.249   -10320747.238 7  -7934457.605 8
  23689782.046   -10008684.068 6  -7659531.701 6
  25030669.905    -1815694.000 5  -1366635.746 4
  24480184.061    14119518.000 5  11054149.709 4
  24997306.632    -3218693.864 5  -2461726.871 3
  21670900.140   -17544148.419 7 -13602352.457 9
  22962442.397   -11951175.370 6  -9252829.986 7
 94  1 23 23 49 30.0030000  0  8 27 18  2 28 29 16 19 31
  22054075.515   -17021045.670 7 -13143174.280 9
  22012473.296   -10248135.053 7  -7877876.698 8
  23677694.780   -10072231.955 6  -7709049.505 6
  25043679.952    -1747303.030 5  -1313344.050 5
  24500680.569    14227191.709 5  11138051.219 4
  24992860.905    -3242067.358 5  -2479939.954 3
  21672919.788   -17533548.811 7 -13594093.008 9
  22965080.522   -11937310.001 6  -9242025.770 7
 94  1 23 23 50  0.0030000  0  8 27 18  2 28 29 16 19 31
  22047139.046   -17057503.649 7 -13171583.057 9
  22026379.601   -10175058.979 7  -7820934.326 8
  23665645.733   -10135523.931 6  -7758367.887 6
  25056776.913    -1678475.101 5  -1259711.862 5
  24521215.741    14335111.306 5  11222144.314 4
  24988515.147    -3264909.637 5  -2497739.083 3
  21674981.421   -17522726.318 7 -13585659.885 8
  22967835.296   -11922822.741 6  -9230736.972 7
 94  1 23 23 50 30.0030000  0  8 27 18  2 28 29 16 19 31
  22040235.874   -17093787.020 7 -13199855.783 9
  22040367.632   -10101551.270 7  -7763655.610 8
  23653647.811   -10198580.940 6  -7807503.193 6
  25069947.640    -1609251.563 5  -1205771.418 5
  24541788.093    14443256.283 4  11306413.051 4
  24984267.968    -3287243.197 5  -2515141.794 4
  21677077.101   -17511697.981 7 -13577066.370 9
  22970703.640   -11907756.551 6  -9218997.054 7
 94  1 23 23 51  0.0030000  0  8 27 18  2 28 29 16 19 31
  22033366.147   -17129877.152 7 -13227977.933 9
  22054438.249   -10027600.017 7  -7706031.284 8
  23641698.436   -10261387.674 6  -7856443.472 6
  25083203.593    -1539612.467 5  -1151507.161 5
  24562419.983    14551642.194 4  11390869.513 5
  24980111.429    -3309057.452 5  -2532139.879 2
  21679220.796   -17500436.007 7 -13568290.785 9
  22973682.929   -11892106.708 6  -9206802.339 7
 94  1 23 23 51 30.0030000  0  8 27 18  2 28 29 16 19 31
  22026533.382   -17165791.606 7 -13255963.203 9
  22068590.968    -9953232.718 7  -7648082.760 8
  23629789.929   -10323949.178 6  -7905192.668 6
  25096534.108    -1469546.910 5  -1096910.605 5
  24583089.772    14660243.484 5  11475493.805 3
  24976057.804    -3330360.474 5  -2548739.611 2
  21681409.499   -17488941.862 7 -13559334.294 8
  22976772.390   -11875869.118 6  -9194149.650 7
 94  1 23 23 52  0.0030000  0  8 27 18  2 28 29 16 19 31
  22019731.749   -17201535.271 7 -13283815.379 9
  22082820.233    -9878458.796 7  -7589817.390 8
  23617935.077   -10386260.137 6  -7953746.635 6
  25109951.311    -1399041.585 5  -1041971.370 5
  24603792.093    14769055.380 5  11560282.202 4
  24972100.132    -3351155.351 5  -2564943.380 3
  21683638.968   -17477229.433 7 -13550207.718 9
  22979970.390   -11859051.430 6  -9181044.924 7
 94  1 23 23 52 30.0030000  0  8 27 18  2 28 29 16 19 31
  22012962.022   -17237101.831 7 -13311529.549 9
  22097129.093    -9803263.274 7  -7531223.504 8
  23606130.632   -10448293.088 6  -8002083.976 6
  25123448.085    -1328075.403 5   -986673.028 6
  24624537.499    14878063.531 5  11645223.539 4
  24968244.835    -3371418.738 5  -2580732.975 1
  21685907.694   -17465297.349 7 -13540909.976 9
  22983289.499   -11841621.010 6  -9167462.747 7
 94  1 23 23 53  0.0030000  0  8 27 18  2 28 29 16 19 31
  22006223.554   -17272520.525 7 -13339128.512 9
  22111517.944    -9727650.512 7  -7472304.487 8
  23594377.288   -10510047.710 6  -8050204.426 6
  25137051.991    -1256642.469 5   -931010.966 5
  24645317.155    14987258.861 5  11730310.732 3
  24964488.179    -3391156.816 5  -2596113.281 1
  21688217.491   -17453163.362 7 -13531454.907 9
  22986720.827   -11823571.203 6  -9153397.932 7
 94  1 23 23 53 30.0030000  0  8 27 18  2 28 29 16 19 31
  21999506.507   -17307808.444 7 -13366625.566 9
  22125986.522    -9651618.082 7  -7413058.464 8
  23582682.804   -10571511.972 6  -8098098.628 6
  25150727.921    -1184754.778 4   -874994.565 5
  24666122.718    15096632.084 4  11815536.525 4
  24960837.390    -3410367.344 5  -2611082.481 2
  21690560.468   -17440840.013 7 -13521852.283 8
  22990272.499   -11804909.709 6  -9138856.472 7
 94  1 23 23 54  0.0030000  0  8 27 18  2 28 29 16 19 31
  21992818.733   -17342959.694 7 -13394016.128 9
  22140536.491    -9575158.080 7  -7353479.261 8
  23571039.265   -10632697.582 6  -8145775.695 6
  25164492.382    -1112418.175 3   -818628.383 5
  24686976.007    15206180.440 5  11900898.806 4
  24957278.093    -3429058.027 5  -2625646.613 2
  21692943.460   -17428331.772 7 -13512105.590 9
  22993941.319   -11785647.903 6  -9123847.242 7
 94  1 23 23 54 30.0030000  0  8 27 18  2 28 29 16 19 31
  21986159.358   -17377958.194 7 -13421287.666 9
  22155169.022    -9498271.548 7  -7293567.702 8
  23559447.835   -10693608.652 6  -8193238.833 6
  25178344.226    -1039623.951 3   -761905.603 5
  24707856.202    15315910.235 4  11986402.448 4
  24953819.952    -3447227.576 5  -2639804.659 1
  21695357.804   -17415635.716 7 -13502212.543 9
  22997718.155   -11765794.794 6  -9108377.250 7
 94  1 23 23 55  0.0030000  0  8 27 18  2 28 29 16 19 31
  21979533.319   -17412774.294 7 -13448417.070 9
  22169880.460    -9420947.459 7  -7233315.184 8
  23547909.140   -10754239.304 6  -8240483.458 6
  25192286.710     -966369.085 3   -704823.906 5
  24728772.413    15425841.386 5  12072063.002 4
  24950462.858    -3464874.209 5  -2653555.297 2
  21697812.452   -17402734.514 7 -13492159.649 9
  23001604.687   -11745363.586 6  -9092456.802 7
 94  1 23 23 55 30.0030000  0  7 27 18  2 29 16 19 31
  21972948.194   -17447382.171 7 -13475384.216 9
  22184680.671    -9343180.605 7  -7172717.653 8
  23536424.288   -10814604.161 6  -8287520.979 6
  24749735.890    15535970.468 5  12157877.781 4
  24947205.827    -3481993.622 5  -2666895.043 2
  21700305.796   -17389626.100 7 -13481945.281 9
  23005606.772   -11724348.185 6  -9076081.131 7
 94  1 23 23 56  0.0030000  0  7 27 18  2 29 16 19 31
  21966407.538   -17481749.111 7 -13502163.630 9
  22199564.679    -9264969.915 7  -7111774.288 8
  23524987.827   -10874699.491 6  -8334348.472 6
  24770729.890    15646311.966 5  12243858.076 3
  24944046.022    -3498567.925 5  -2679810.067 2
  21702842.976   -17376300.431 7 -13471561.624 8
  23009717.936   -11702732.330 6  -9059237.572 7
 94  1 23 23 56 30.0030000  0  8 27 18  2 28 29 16 19 31
  21959907.562   -17515908.119 7 -13528781.014 9
  22214526.937    -9186341.124 7  -7050505.125 8
  23513597.874   -10934538.159 6  -8380975.973 6
  25234617.671          -0.83913
  24791761.991    15756839.137 5  12329983.081 3
  24940992.108    -3514620.324 5  -2692318.411 1
  21705416.210   -17362773.251 7 -13461020.951 8
  23013941.280   -11680537.380 6  -9041942.774 7
 94  1 23 23 57  0.0030000  0  8 27 18  2 28 29 16 19 31
  21953443.601   -17549876.298 7 -13555249.698 9
  22229567.468    -9107295.709 7  -6988911.312 8
  23502262.249   -10994115.266 6  -8427399.662 6
  25248892.577       74988.949 4        -0.00514
  24812832.546    15867548.345 5  12416249.898 2
  24938036.226    -3530152.692 4  -2704421.534 2
  21708031.937   -17349031.959 7 -13450313.433 8
  23018278.249   -11657738.877 6  -9024177.682 7
 94  1 23 23 57 30.0030000  0  8 27 18  2 28 29 16 19 31
  21947013.093   -17583666.008 7 -13581579.315 9
  22244686.936    -9027842.236 7  -6926999.539 8
  23490976.546   -11053422.413 6  -8473612.983 6
  25263237.296      150383.627 4     58749.099 2
  24833937.132    15978456.066 5  12502671.425 2
  24935181.702    -3545167.142 4  -2716121.100 2
  21710688.476   -17335070.005 7 -13439433.973 8
  23022736.561   -11634324.351 6  -9005932.574 7
 94  1 23 23 58  0.0030000  0  8 27 18  2 28 29 16 19 31
  21940617.546   -17617274.418 7 -13607767.660 9
  22259885.429    -8947976.263 7  -6864766.333 8
  23479747.960   -11112429.552 6  -8519592.533 6
  25277661.546      226185.447 5    117815.456 2
  24855077.655    16089562.226 4  12589247.567 2
  24932427.687    -3559658.053 5  -2727412.683 1
  21713392.897   -17320863.219 7 -13428363.733 9
  23027307.468   -11610291.744 6  -8987205.846 7
 94  1 23 23 58 30.0030000  0  8 27 18  2 28 29 16 19 31
  21934256.843   -17650712.446 7 -13633823.246 9
  22275161.390    -8867702.538 7  -6802215.401 8
  23468576.858   -11171139.837 6  -8565340.767 6
  25292168.561      302408.449 5    177210.018 2
  24876256.304    16200851.626 4  12675966.494 1
  24929761.671    -3573629.304 4  -2738299.333 2
  21716142.038   -17306406.489 7 -13417098.733 9
  23032002.515   -11585624.579 6  -8967984.648 7
 94  1 23 23 59  0.0030000  0  8 27 18  2 28 29 16 19 31
  21927927.819   -17683958.079 7 -13659728.911 9
  22290515.304    -8787020.360 7  -6739346.190 8
  23457461.022   -11229554.363 6  -8610858.553 6
  25306764.444      379080.880 5    236954.791 1
  24897462.569    16312325.837 4  12762829.409 3
  24927206.679    -3587068.325 4  -2748771.269 1
  21718939.343   -17291711.337 7 -13405647.950 9
  23036819.694   -11560317.006 6  -8948264.440 7
 94  1 23 23 59 30.0030000  0  8 27 18  2 28 29 16 19 31
  21921642.647   -17716994.825 7 -13685471.803 9
  22305945.765    -8705926.822 7  -6676156.447 8
  23446397.210   -11287686.782 6  -8656156.513 6
  25321434.335      456202.948 5    297049.931 2
  24918713.101    16423973.656 4  12849827.631 1
  24924749.366    -3599961.120 4  -2758817.586 3
  21721777.944   -17276790.333 7 -13394021.178 9
  23041754.835   -11534382.223 6  -8928055.485 7
 94  1 24  0  0  0.0030000  0  8 27 18  2 28 29 16 19 31
  21915396.647   -17749814.400 7 -13711045.466 9
  22321458.897    -8624408.650 7  -6612635.811 8
  23435384.390   -11345551.708 6  -8701246.028 6
  25336197.937      533754.992 5    357480.118 2
  24939989.249    16535769.860 4  12936941.452 4
  24922410.593    -3612288.021 4  -2768422.890 2
  21724661.515   -17261656.026 7 -13382228.198 9
  23046805.632   -11507822.989 6  -8907359.951 7
 94  1 24  0  0 30.0030000  0  8 27 18  2 28 29 16 19 31
  21909187.569   -17782439.926 7 -13736467.930 9
  22337048.554    -8542481.242 7  -6548796.294 8
  23424422.999   -11403167.766 6  -8746141.633 6
  25351024.421      611714.395 5    418227.747 2
  24961287.093    16647709.969 3  13024167.409 3
  24920171.452    -3624066.261 4  -2777600.719 3
  21727572.374   -17246348.217 7 -13370300.022 9
  23051976.593   -11480667.032 6  -8886199.434 7
 94  1 24  0  1  0.0030000  0  8 27 18  2 28 29 16 19 31
  21903018.054   -17814857.684 7 -13761728.498 9
  22352719.460    -8460132.238 7  -6484628.263 7
  23413511.335   -11460514.606 6  -8790827.450 6
  25365942.686      690064.423 5    479279.731 2
  24982623.382    16759825.359 3  13111529.951 3
  24918034.679    -3635280.630 3  -2786339.124 2
  21730517.913   -17230865.776 7 -13358235.770 9
  23057253.679   -11452937.867 6  -8864592.266 7
 94  1 24  0  1 30.0030000  0  8 27 18  2 28 29 16 19 31
  21896881.608   -17847103.051 7 -13786854.735 9
  22368466.436    -8377385.903 7  -6420150.622 8
  23402645.093   -11517608.366 6  -8835316.066 6
  25380918.101      768774.567 5    540612.329 2
  25003985.132    16872094.893 3  13199012.601 2
  24916002.054    -3645953.799 3  -2794655.843 2
  21733498.171   -17215213.912 7 -13346039.501 9
  23062632.624   -11424665.478 6  -8842561.804 7
 94  1 24  0  2  0.0030000  0  8 27 18  2 28 29 16 19 31
  21890777.561   -17879184.901 7 -13811853.543 9
  22384287.843    -8294240.855 7  -6355362.296 8
  23391835.022   -11574422.225 6  -8879586.576 6
  25395964.343      847856.635 5    602234.724 3
  25025396.171    16984534.770 4  13286627.983 3
  24914070.897    -3656096.414 4  -2802559.157 2
  21736510.733   -17199378.076 7 -13333699.880 8
  23068112.780   -11395843.658 6  -8820103.211 7
 94  1 24  0  2 30.0030000  0  8 27 18  2 28 29 16 19 31
  21884700.030   -17911117.577 7 -13836736.122 9
  22400181.687    -8210713.195 7  -6290275.831 8
  23381075.186   -11630955.245 6  -8923638.255 6
  25411090.280      927322.401 5    664156.122 2
  25046817.327    17097155.332 3  13374384.178 2
  24912237.374    -3665727.445 4  -2810063.803 3
  21739563.772   -17183339.245 7 -13321202.079 9
  23073704.460   -11366463.889 6  -8797209.856 7
 94  1 24  0  3  0.0030000  0  8 27 18  2 28 29 16 19 31
  21878657.288   -17942881.822 7 -13861487.458 9
  22416149.944    -8126802.167 7  -6224890.633 8
  23370370.944   -11687214.705 6  -8967476.760 6
  25426282.046     1007187.144 5    726388.391 3
  25068285.483    17209949.664 4  13462275.758 3
  24910505.241    -3674828.239 4  -2817155.323 2
  21742658.421   -17167071.598 7 -13308525.971 9
  23079408.952   -11336500.241 6  -8773861.536 7
 94  1 24  0  3 30.0030000  0  8 27 18  2 28 29 16 19 31
  21872642.280   -17974488.101 7 -13886115.701 9
  22432188.304    -8042514.692 7  -6159212.105 7
  23359712.296   -11743221.305 6  -9011118.236 6
  25441560.749     1087458.897 5    788937.803 5
  25089776.937    17322882.784 3  13550275.481 3
  24908871.640    -3683431.611 4  -2823859.195 2
  21745799.312   -17150580.774 7 -13295675.975 9
  23085221.405   -11305942.769 6  -8750050.487 7
 94  1 24  0  4  0.0030000  0  8 27 18  2 28 29 16 19 31
  21866665.616   -18005901.792 7 -13910593.877 9
  22448306.671    -7957822.175 7  -6093217.960 8
  23349106.562   -11798941.385 6  -9054536.451 6
  25456919.991     1168152.518 4    851815.956 4
  25111290.296    17435980.410 3  13638403.383 2
  24907329.382    -3691530.172 4  -2830169.730 3
  21748982.593   -17133838.586 7 -13282630.104 9
  23091159.069   -11274747.288 6  -8725742.292 7
 94  1 24  0  4 30.0030000  0  8 27 18  2 28 29 16 19 31
  21860725.218   -18037119.795 7 -13934919.565 9
  22464494.960    -7872745.311 7  -6026924.321 8
  23338557.171   -11854386.340 6  -9097740.288 6
  25472345.061     1249248.539 3    915007.647 5
  25132843.186    17549221.895 3  13726643.410 4
  24905884.999    -3699128.688 4  -2836090.616 5
  21752213.671   -17116864.001 7 -13269403.142 9
  23097212.921   -11242933.414 6  -8700952.244 7
 94  1 24  0  5  0.0030000  0  8 27 18  2 28 29 16 19 31
  21854822.601   -18068123.327 7 -13959078.138 9
  22480759.694    -7787279.959 7  -5960327.964 7
  23328066.429   -11909535.642 6  -9140713.742 6
  25487855.936     1330744.745 3    978511.157 5
  25154420.249    17662612.664 3  13814999.737 2
  24904532.007    -3706228.108 5  -2841622.586 3
  21755485.765   -17099669.617 7 -13256004.906 9
  23103382.538   -11210514.719 6  -8675690.905 7
 94  1 24  0  5 30.0030000  0  8 27 18  2 28 29 16 19 31
  21848963.765   -18098916.045 7 -13983072.436 9
  22497097.069    -7701413.838 7  -5893419.325 8
  23317628.757   -11964366.989 6  -9183439.434 6
  25503438.874     1412634.913 3   1042321.669 5
  25176035.976    17776164.643 4  13903481.672 2
  24903277.569    -3712828.427 5  -2846765.650 4
  21758802.147   -17082239.688 7 -13242423.139 8
  23109662.733   -11177496.785 6  -8649962.616 7
 94  1 24  0  6  0.0030000  0  8 27 18  2 28 29 16 19 31
  21843145.108   -18129498.234 7 -14006902.685 9
  22513514.093    -7615149.644 7  -5826200.498 7
  23307257.788   -12018879.204 6  -9225916.448 6
  25519094.210     1494912.961 3   1106434.412 5
  25197670.124    17889897.668 3  13992104.714 3
  24902120.788    -3718895.814 4  -2851493.447 2
  21762162.226   -17064572.600 7 -13228656.565 8
  23116058.632   -11143889.245 6  -8623774.901 7
 94  1 24  0  6 30.0030000  0  8 27 18  2 28 29 16 19 31
  21837368.186   -18159862.832 7 -14030563.379 9
  22530005.382    -7528484.388 7  -5758669.153 8
  23296940.444   -12073087.216 6  -9268156.419 6
  25534826.710     1577598.683 3   1170864.847 5
  25219347.507    18003821.112 3  14080876.113 2
  24901075.187    -3724399.858 5  -2855782.267 4
  21765568.687   -17046676.935 7 -13214711.879 9
  23122566.530   -11109694.960 6  -8597129.974 7
 94  1 24  0  7  0.0030000  0  8 27 18  2 28 29 16 19 31
  21831625.694   -18190033.263 7 -14054072.771 9
  22546570.186    -7441437.681 7  -5690840.573 7
  23286675.921   -12127032.982 6  -9310192.047 6
  25550636.554     1660667.346 3   1235593.628 5
  25241063.319    18117906.336 3  14169773.573 1
  24900130.241    -3729359.705 5  -2859647.035 4
  21769014.147   -17028568.997 7 -13200601.779 9
  23129185.835   -11074930.689 6  -8570040.902 7
 94  1 24  0  7 30.0030000  0  8 27 18  2 28 29 16 19 31
  21825922.671   -18220004.634 7 -14077427.060 9
  22563210.085    -7353990.147 7  -5622699.658 7
  23276456.460   -12180731.186 6  -9352034.769 6
  25566520.819     1744121.621 3   1300622.934 5
  25262802.155    18232141.338 4  14258787.751 2
  24899294.140    -3733747.036 5  -2863065.699 4
  21772502.741   -17010236.527 7 -13186316.720 9
  23135911.601   -11039578.745 6  -8542493.902 7
 94  1 24  0  8  0.0030000  0  8 27 18  2 28 29 16 19 31
  21820254.726   -18249775.400 7 -14100625.034 9
  22579925.991    -7266159.341 7  -5554260.095 7
  23266284.655   -12234193.648 6  -9393693.791 6
  25582477.663     1827961.485 3   1365952.689 5
  25284560.890    18346511.706 4  14347907.393 2
  24898570.772    -3737569.981 4  -2866044.577 4
  21776031.483   -16991706.080 7 -13171877.394 8
  23142750.710   -11003637.152 6  -8514487.429 7
 94  1 24  0  8 30.0030000  0  8 27 18  2 28 29 16 19 31
  21814630.796   -18279336.196 7 -14123659.387 9
  22596709.397    -7177948.092 7  -5485524.087 7
  23256156.827   -12287406.057 6  -9435157.974 6
  25598501.413     1912182.645 3   1431579.554 5
  25306350.335    18460998.876 3  14437118.081 2
  24897947.030    -3740836.578 5  -2868589.937 3
  21779594.843   -16972961.780 7 -13157271.427 8
  23149707.632   -10967091.061 6  -8486009.926 6
 94  1 24  0  9  0.0030000  0  8 27 18  2 28 29 16 19 31
  21809045.194   -18308701.578 7 -14146541.478 9
  22613567.640    -7089370.704 7  -5416502.762 7
  23246082.179   -12340356.989 6  -9476418.385 7
  25614594.624     1996769.428 3   1497491.320 4
  25328149.702    18575585.199 3  14526405.984 2
  24897424.327    -3743567.640 5  -2870717.991 5
  21783203.413   -16953997.730 7 -13142494.224 8
  23156771.632   -10929957.763 6  -8457074.856 7
 94  1 24  0  9 30.0030000  0  8 27 18  2 28 29 16 19 31
  21803489.202   -18337882.471 7 -14169279.806 9
  22630489.390    -7000433.211 6  -5347200.843 7
  23236057.663   -12393027.205 6  -9517460.072 6
  25630761.655     2081723.776 3   1563689.526 5
  25349977.124    18690274.722 3  14615774.335 1
  24897005.147    -3745789.477 5  -2872449.262 4
  21786855.726   -16934810.595 7 -13127543.188 8
  23163948.132   -10892241.334 6  -8427685.393 6
 94  1 24  0 10  0.0030000  0  8 27 18  2 28 29 16 19 31
  21797971.733   -18366883.324 7 -14191877.846 9
  22647477.921    -6911163.313 7  -5277639.909 7
  23226090.780   -12445407.885 6  -9558276.141 6
  25647000.569     2167042.686 4   1630171.764 4
  25371825.999    18805072.156 3  14705226.757 2
  24896672.327    -3747533.393 5  -2873808.109 5
  21790547.890   -16915401.303 7 -13112419.042 9
  23171235.601   -10853951.866 6  -8397849.413 6
 94  1 24  0 10 30.0030000  0  8 27 18  2 28 29 16 19 31
  21792493.577   -18395674.229 7 -14214312.287 9
  22664534.101    -6821532.937 6  -5207798.074 7
  23216184.522   -12497474.037 6  -9598847.118 7
  25663307.952     2252754.670 4   1696960.340 4
  25393694.804    18920008.074 3  14794787.077 1
  24896434.679    -3748786.402 5  -2874784.453 4
  21794294.210   -16895728.385 7 -13097089.479 8
  23178629.929   -10815071.400 6  -8367552.908 7
 94  1 24  0 11  0.0030000  0  8 27 18  2 28 29 16 19 31
  21787052.186   -18424266.363 7 -14236591.843 9
  22681658.733    -6731538.663 6  -5137672.689 7
  23206333.491   -12549238.182 6  -9639182.762 6
  25679696.710     2338858.097 4   1764053.930 4
  25415600.226    19035088.680 3  14884460.207 1
  24896284.351    -3749562.463 5  -2875389.119 4
  21798085.476   -16875803.552 7 -13081563.613 9
  23186139.772   -10775615.455 6  -8336807.982 7
 94  1 24  0 11 30.0030000  0  8 27 18  2 28 29 16 19 31
  21781652.968   -18452632.392 7 -14258695.223 9
  22698858.569    -6641157.533 6  -5067245.852 7
  23196539.296   -12600700.825 6  -9679283.469 6
  25696154.343     2425361.972 4   1831459.545 4
  25437522.858    19150316.121 3  14974247.705 1
  24896233.499    -3749832.830 5
  21801924.171   -16855624.691 7 -13065839.806 9
  23193763.554   -10735561.844 6  -8305597.331 7
 94  1 24  0 12  0.0030000  0  7 27 18  2 29 16 19 31
  21776297.444   -18480782.397 7 -14280630.266 9
  22716128.382    -6550403.801 6  -4996528.683 7
  23186800.304   -12651881.495 6  -9719164.455 6
  25459472.686    19265676.422 3  15064138.745 1
  24896283.733    -3749574.485 5
  21805808.843   -16835218.213 7 -13049938.638 9
  23201495.866   -10694925.453 6  -8273932.577 7
 94  1 24  0 12 30.0030000  0  7 27 18  2 29 16 19 31
  21770980.038   -18508714.576 7 -14302395.575 9
  22733473.147    -6459265.960 6  -4925512.206 7
  23177114.546   -12702780.818 6  -9758826.211 7
  25481439.593    19381169.765 2  15154133.474 1
  24896440.046    -3748759.738 5  -2874763.520 4
  21809732.991   -16814591.064 7 -13033865.518 8
  23209338.319   -10653710.432 6  -8241816.939 6
 94  1 24  0 13  0.0030000  0  7 27 18  2 29 16 19 31
  21765707.788   -18536429.221 7 -14323991.391 9
  22750890.054    -6367735.264 6  -4854189.616 7
  23167487.210   -12753387.318 6  -9798259.794 6
  25503461.335    19496786.981 2  15244224.664 1
  24896704.874    -3747360.542 5  -2873673.217 3
  21813697.077   -16793754.196 7 -13017628.975 9
  23217292.171   -10611913.963 6  -8209248.228 7
 94  1 24  0 13 30.0030000  0  7 27 18  2 29 16 19 31
  21760476.038   -18563929.317 7 -14345420.007 9
  22768377.733    -6275835.641 6  -4782579.536 7
  23157906.890   -12803715.652 6  -9837476.622 6
  25525462.444    19612524.192 1  15334409.370 1
  24897079.374    -3745385.610 5  -2872134.279 4
  21817701.624   -16772720.110 7 -13001238.766 9
  23225357.522   -10569531.673 6  -8176223.037 6
 94  1 24  0 14  0.0030000  0  7 27 18  2 29 16 19 31
  21755279.679   -18591231.991 7 -14366694.797 9
  22785932.397    -6183580.942 6  -4710692.787 7
  23148379.015   -12853774.836 6  -9876483.729 6
  25547524.085    19728383.144 2  15424688.940 1
  24897556.749    -3742873.270 5  -2870176.568 5
  21821741.811   -16751489.258 7 -12984695.228 9
  23233531.147   -10526580.326 6  -8142754.417 6
 94  1 24  0 14 30.0030000  0  7 27 18  2 29 16 19 31
  21750121.538   -18618332.311 7 -14387811.903 9
  22803557.780    -6090959.976 6  -4638520.631 7
  23138907.241   -12903563.234 6  -9915279.837 7
  25569590.843    19844361.560 3  15515061.626 1
  24898134.140    -3739848.167 5  -2867819.312 5
  21825821.554   -16730049.535 7 -12967988.935 8
  23241811.897   -10483053.673 6  -8108837.516 6
 94  1 24  0 15  0.0030000  0  7 27 18  2 29 16 19 31
  21745006.335   -18645228.830 7 -14408770.215 9
  22821253.194    -5997969.731 6  -4566060.725 7
  23129485.765   -12953074.238 6  -9953859.783 7
  25591686.991    19960452.103 3  15605521.695 2
  24898806.179    -3736318.923 5  -2865069.240 4
  21829942.991   -16708382.105 7 -12951105.204 9
  23250209.952   -10438936.007 6  -8074460.073 6
 94  1 24  0 15 30.0030000  0  7 27 18  2 29 16 19 31
  21739925.796   -18671920.646 7 -14429569.012 9
  22839015.952    -5904631.194 6  -4493329.420 7
  23120110.351   -13002322.375 6  -9992234.907 7
  25613797.772    20076654.988 3  15696069.311 2
  24899567.913    -3732313.168 5  -2861947.847 3
  21834109.124   -16686488.492 7 -12934045.232 9
  23258715.585   -10394239.938 6  -8039631.959 7
 94  1 24  0 16  0.0030000  0  7 27 18  2 29 16 19 31
  21734885.280   -18698406.946 7 -14450207.664 9
  22856845.046    -5810940.435 6  -4420323.658 7
  23110799.569   -13051271.624 6 -10030377.119 7
  25635933.679    20192957.502 3  15786694.523 1
  24900422.741    -3727818.034 5  -2858445.105 5
  21838320.421   -16664362.134 7 -12916803.900 9
  23267328.968   -10348980.214 6  -8004364.618 7
 94  1 24  0 16 30.0030000  0  7 27 18  2 29 16 19 31
  21729885.913   -18724675.926 7 -14470676.979 9
  22874737.155    -5716910.727 6  -4347053.779 7
  23101542.351   -13099909.864 6 -10068276.988 7
  25658076.405    20309341.857 3  15877383.577 2
  24901374.585    -3722810.101 5  -2854542.771 4
  21842575.687   -16642004.903 7 -12899382.670 9
  23276047.812   -10303151.593 6  -7968653.988 7
 94  1 24  0 17  0.0030000  0  6 27 18  2 16 19 31
  21724930.819   -18750713.677 7 -14490966.115 9
  22892691.624    -5622557.871 6  -4273532.107 7
  23092345.171   -13148238.286 6 -10105935.448 7
  24902424.780    -3717280.787 5  -2850234.192 4
  21846873.577   -16619416.150 7 -12881781.029 8
  23284876.452   -10256747.735 6  -7932495.125 6
 94  1 24  0 17 30.0030000  0  6 27 18  2 16 19 31
  21720020.452   -18776521.797 7 -14511076.316 9
  22910706.413    -5527892.532 6  -4199766.930 7
  23083206.538   -13196261.075 6 -10143355.746 7
  24903575.218    -3711238.262 5  -2845525.692 5
  21851216.421   -16596604.024 7 -12864005.323 9
  23293815.866   -10209772.225 6  -7895890.815 6
 94  1 24  0 18  0.0030000  0  6 27 18  2 16 19 31
  21715150.741   -18802101.616 7 -14531008.622 9
  22928784.562    -5432893.378 6  -4125741.637 7
  23074129.085   -13243976.150 6 -10180536.273 7
  24904833.671    -3704664.347 5  -2840403.137 5
  21855601.866   -16573554.578 7 -12846044.705 8
  23302867.218   -10162217.890 6  -7858835.474 6
 94  1 24  0 18 30.0030000  0  7 27 18  2  7 16 19 31
  21710327.108   -18827465.338 7 -14550772.536 9
  22946923.554    -5337570.404 6  -4051464.018 7
  23065096.499   -13291434.536 6 -10217516.787 7
  25755730.710          -0.77413
  24906178.905    -3697577.118 5  -2834880.609 5
  21860028.702   -16550287.031 7 -12827914.138 8
  23312021.522   -10114096.137 6  -7821337.994 6
 94  1 24  0 19  0.0030000  0  7 27 18  2  7 16 19 31
  21705538.890   -18852625.057 7 -14570377.485 9
  22965127.647    -5241917.558 6  -3976929.356 7
  23056110.101   -13338643.534 6 -10254302.967 7
  25736768.093      -99662.923 3
  24907621.554    -3689985.110 5  -2828964.722 5
  21864495.796   -16526799.342 7 -12809612.028 9
  23321287.640   -10065416.678 6  -7783405.926 6
 94  1 24  0 19 30.0030000  0  7 27 18  2  7 16 19 31
  21700786.280   -18877587.612 7 -14589828.805 9
  22983391.124    -5145933.543 6  -3902136.650 7
  23047177.093   -13385601.715 6 -10290893.711 7
  25717790.632     -199367.555 3
  24909164.694    -3681883.240 5  -2822651.549 4
  21869006.757   -16503098.055 7 -12791143.477 9
  23330650.530   -10016210.134 6  -7745063.149 7
 94  1 24  0 20  0.0030000  0  7 27 18  2  7 16 19 31
  21696078.069   -18902331.315 7 -14609109.597 9
  23001721.351    -5049604.077 6  -3827074.751 7
  23038292.061   -13432293.558 6 -10327276.914 7
  25698816.851     -299104.766 3        -0.35212
  24910806.616    -3673249.516 5  -2815923.948 5
  21873561.022   -16479165.639 7 -12772494.826 9
  23340116.726    -9966470.832 6  -7706305.234 6
 94  1 24  0 20 30.0030000  0  7 27 18  2  7 16 19 31
  21691413.077   -18926842.572 7 -14628209.248 9
  23020115.327    -4952944.503 6  -3751755.632 7
  23029458.593   -13478700.323 6 -10363437.988 7
  25679828.944     -398879.243 3    -77746.641 3
  24912551.780    -3664089.397 5  -2808786.180 3
  21878161.772   -16454994.933 7 -12753660.501 9
  23349683.936    -9916190.681 6  -7667125.881 7
 94  1 24  0 21  0.0030000  0  7 27 18  2  7 16 19 31
  21686798.507   -18951108.459 7 -14647117.705 9
  23038573.046    -4855951.525 6  -3676176.708 7
  23020686.335   -13524799.304 6 -10399359.226 7
  25660834.491     -498684.368 3   -155516.761 2
  24914393.671    -3654397.829 5  -2801234.289 4
  21882811.319   -16430564.661 7 -12734623.914 8
  23359354.991    -9865364.099 6  -7627520.736 6
 94  1 24  0 21 30.0030000  0  7 27 18  2  7 16 19 31
  21682225.421   -18975129.369 7 -14665835.276 9
  23057092.944    -4758630.179 6  -3600341.919 7
  23011970.968   -13570596.432 6 -10435045.260 7
  25641840.085     -598514.033 3   -233306.070 2
  24916335.819    -3644184.726 5  -2793276.008 4
  21887507.718   -16405879.358 7 -12715388.596 8
  23369128.327    -9813985.944 6  -7587485.794 6
 94  1 24  0 22  0.0030000  0  7 27 18  2  7 16 19 31
  21677700.304   -18998908.246 7 -14684364.251 9
  23075673.210    -4660980.766 6  -3524251.491 7
  23003313.960   -13616100.932 6 -10470503.266 7
  25622839.718     -698351.894 4   -311101.719 2
  24918381.351    -3633460.835 5  -2784919.700 4
  21892254.491   -16380935.846 7 -12695952.077 9
  23379018.890    -9762035.903 6  -7547005.217 6
 94  1 24  0 22 30.0030000  0  7 27 18  2  7 16 19 31
  21673223.015   -19022443.485 7 -14702703.369 9
  23094318.710    -4563004.963 6  -3447906.735 7
  22994708.765   -13661325.387 6 -10505743.051 7
  25603839.960     -798186.555 4   -388894.936 3
  24920516.226    -3622229.588 5  -2776168.064 4
  21897046.585   -16355744.288 7 -12676322.278 9
  23389017.007    -9709504.776 6  -7506071.848 6
 94  1 24  0 23  0.0030000  0  7 27 18  2  7 16 19 31
  21668790.483   -19045733.658 7 -14720851.530 9
  23113025.132    -4464694.311 6  -3371301.061 7
  22986157.022   -13706272.846 6 -10540767.000 7
  25584846.562     -898000.517 3   -466671.956 3
  24922755.733    -3610483.853 5  -2767015.523 3
  21901884.210   -16330318.010 7 -12656509.581 9
  23399122.296    -9656392.210 6  -7464685.400 6
 94  1 24  0 23 30.0030000  0  7 27 18  2  7 16 19 31
  21664397.483   -19068809.336 7 -14738832.560 9
  23131794.038    -4366073.903 6  -3294454.014 7
  22977649.468   -13750972.610 6 -10575597.936 7
  25565852.296     -997809.059 3   -544444.739 2
  24925079.796    -3598244.219 5  -2757478.141 5
  21906760.358   -16304702.324 7 -12636549.290 9
  23409335.249    -9602726.332 6  -7422867.812 6
 94  1 24  0 24  0.0030000  0  7 27 18  2  7 16 19 31
  21660049.944   -19091670.468 7 -14756646.402 9
  23150617.733    -4267147.725 6  -3217368.705 6
  22969193.890   -13795415.705 6 -10610228.873 7
  25546864.593    -1097613.523 4   -622214.360 2
  24927502.437    -3585502.373 5  -2747549.398 2
  21911671.335   -16278901.726 7 -12616444.914 9
  23419650.694    -9548509.909 6  -7380621.225 6
 94  1 24  0 24 30.0030000  0  7 27 18  2  7 16 19 31
  21655737.007   -19114316.270 7 -14774292.463 9
  23169500.085    -4167916.716 6  -3140045.864 7
  22960788.335   -13839583.784 6 -10644645.515 7
  25527869.296    -1197426.377 4   -699990.612 2
  24930023.976    -3572264.164 5  -2737233.897 4
  21916617.327   -16252912.588 7 -12596193.621 9
  23430072.327    -9493755.911 6  -7337955.752 6
 94  1 24  0 25  0.0030000  0  7 27 18  2  7 16 19 31
  21651466.843   -19136769.070 7 -14791788.129 9
  23188441.538    -4068390.248 6  -3062492.792 7
  22952434.983   -13883469.799 6 -10678842.365 7
  25508873.749    -1297251.921 3   -777776.727 4
  24932636.679    -3558541.631 5  -2726540.976 5
  21921597.608   -16226732.771 7 -12575793.746 8
  23440588.538    -9438487.035 6  -7294889.075 6
 94  1 24  0 25 30.0030000  0  7 27 18  2  7 16 19 31
  21647229.749   -19159029.753 7 -14809134.095 9
  23207437.757    -3968564.312 6  -2984706.378 6
  22944137.226   -13927074.868 6 -10712820.301 7
  25489869.327    -1397100.136 3   -855580.468 4
  24935335.765    -3544336.284 5  -2715471.869 4
  21926622.390   -16200333.605 7 -12555222.954 8
  23451202.335    -9382700.473 6  -7251419.013 6
 94  1 24  0 26  0.0030000  0  7 27 18  2  7 16 19 31
  21643036.554   -19181073.656 7 -14826311.138 9
  23226492.054    -3868428.961 6  -2906678.855 6
  22935896.124   -13970382.448 6 -10746566.420 7
  25470871.804    -1496965.681 4   -933397.727 4
  24938139.124    -3529641.478 5  -2704021.341 4
  21931694.640   -16173676.230 7 -12534450.955 9
  23461919.265    -9326385.595 6  -7207537.266 6
 94  1 24  0 26 30.0030000  0  7 27 18  2  7 16 19 31
  21638886.077   -19202876.636 7 -14843300.449 9
  23245608.327    -3767969.003 6  -2828398.390 6
  22927710.804   -14013389.990 6 -10780078.748 7
  25451863.819    -1596829.281 4  -1011213.483 2
  24941027.140    -3514443.842 5  -2692178.984 4
  21936823.694   -16146730.122 7 -12513453.974 8
  23472737.530    -9269537.107 6  -7163239.719 6
 94  1 24  0 27  0.0030000  0  7 27 18  2  7 16 19 31
  21634785.147   -19224429.345 7 -14860094.743 9
  23264786.897    -3667187.860 6  -2749867.651 6
  22919583.483   -14056111.902 6 -10813368.491 7
  25432857.483    -1696672.584 3  -1089013.495 4
  24944017.960    -3498722.033 5  -2679928.224 5
  21942007.210   -16119487.632 7 -12492226.042 8
  23483660.499    -9212133.577 6  -7118509.687 6
 94  1 24  0 27 30.0030000  0  7 27 18  2  7 16 19 31
  21630736.765   -19245706.100 7 -14876674.009 9
  23284023.601    -3566102.329 6  -2671099.724 6
  22911504.304   -14098561.236 6 -10846445.852 7
  25413864.726    -1796502.861 3  -1166803.281 4
  24947108.358    -3482480.478 5  -2667272.446 4
  21947245.944   -16091949.866 7 -12470768.032 8
  23494688.726    -9154169.297 6  -7073342.703 6
 94  1 24  0 28  0.0030000  0  7 27 18  2  7 16 19 31
  21626738.874   -19266718.083 7 -14893046.960 9
  23303314.132    -3464731.499 6  -2592109.490 6
  22903475.585   -14140743.844 6 -10879315.382 7
  25394875.780    -1896316.906 4  -1244580.457 4
  24950300.554    -3465729.442 5  -2654219.666 4
  21952537.007   -16064145.445 7 -12449102.235 8
  23505827.093    -9095654.510 6  -7027746.745 6
 94  1 24  0 28 30.0030000  0  7 27 18  2  7 16 19 31
  21622790.007   -19287463.138 7 -14909211.914 9
  23322656.858    -3363074.893 6  -2512896.582 6
  22895499.647   -14182655.513 6 -10911973.778 7
  25375887.483    -1996099.209 4  -1322332.854 4
  24953584.515    -3448458.632 5  -2640761.861 5
  21957879.233   -16036077.656 7 -12427231.212 8
  23517068.616    -9036573.337 6  -6981709.456 6
 94  1 24  0 29  0.0030000  0  7 27 18  2  7 16 19 31
  21618888.038   -19307969.781 7 -14925191.101 9
  23342052.851    -3261152.451 6  -2433476.515 6
  22887575.999   -14224302.036 6 -10944425.569 7
  25356896.741    -2095863.052 3  -1400070.884 2
  24956961.562    -3430691.897 5  -2626917.646 5
  21963263.452   -16007783.070 7 -12405183.473 8
  23528414.335    -8976940.974 6  -6935242.664 6
 94  1 24  0 29 30.0030000  0  7 27 18  2  7 16 19 31
  21615031.960   -19328241.870 7 -14940987.512 9
  23361504.624    -3158943.597 6  -2353833.277 6
  22879707.140   -14265656.435 6 -10976649.728 7
  25337922.093    -2195604.610 4  -1477791.575 2
  24960435.132    -3412436.413 5  -2612692.572 5
  21968688.913   -15979268.213 7 -12382964.086 8
  23539865.647    -8916776.858 6  -6888361.524 6
 94  1 24  0 30  0.0030000  0  7 27 18  2  7 16 19 31
  21611210.093   -19348311.648 7 -14956626.277 9
  23381009.476    -3056446.004 6  -2273965.045 6
  22871889.796   -14306720.386 6 -11008647.571 7
  25318942.890    -2295325.081 4  -1555495.804 2
  24964007.476    -3393691.143 5  -2598085.870 5
  21974153.179   -15950545.383 7 -12360582.652 8
  23551413.616    -8856101.082 6  -6841081.692 6
 94  1 24  0 30 30.0030000  0  7 27 18  2  7 16 19 31
  21607432.397   -19368163.448 7 -14972095.190 9
  23400568.468    -2953643.685 6  -2193859.360 6
  22864135.749   -14347488.554 6 -11040414.930 7
  25299971.241    -2395020.113 4  -1633180.187 3
  24967668.983    -3374452.691 5  -2583094.847 5
  21979660.710   -15921605.622 7 -12338032.175 8
  23563056.202    -8794906.328 6  -6793397.456 6
 94  1 24  0 31  0.0030000  0  7 27 18  2  7 16 19 31
  21603700.983   -19387788.022 7 -14987387.048 9
  23420192.929    -2850525.899 6  -2113507.860 6
  22856433.991   -14387953.736 6 -11071946.191 7
  25281007.522    -2494675.017 4  -1710833.303 4
  24971419.022    -3354722.472 5  -2567720.616 4
  21985209.882   -15892445.742 7 -12315310.177 8
  23574796.796    -8733203.827 6  -6745317.579 6
 94  1 24  0 31 30.0030000  0  7 27 18  2  7 16 19 31
  21600009.452   -19407177.053 7 -15002495.368 9
  23439873.780    -2747102.668 6  -2032918.357 6
  22848790.710   -14428135.782 6 -11103256.832 7
  25262051.421    -2594291.016 4  -1788456.086 3
  24975267.983    -3334509.254 5  -2551970.022 4
  21990801.351   -15863056.862 7 -12292409.744 8
  23586634.022    -8670997.354 6  -6696844.994 6
 94  1 24  0 32  0.0030000  0  7 27 18  2  7 16 19 31
  21596366.718   -19426329.681 7 -15017419.471 9
  23459605.233    -2643403.768 6  -1952114.043 6
  22841186.390   -14468069.665 6 -11134374.102 7
  25243106.952    -2693870.869 5  -1866050.670 2
  24979206.280    -3313821.658 5  -2535849.802 5
  21996437.186   -15833443.633 7 -12269334.494 8
  23598566.460    -8608300.864 6  -6647990.580 6
 94  1 24  0 32 30.0030000  0  7 27 18  2  7 16 19 31
  21592768.476   -19445223.936 7 -15032142.245 9
  23479393.788    -2539421.809 6  -1871089.157 6
  22833642.187   -14507735.247 6 -11165282.302 7
  25224165.671    -2793397.532 5  -1943603.844 3
  24983230.413    -3292663.215 5  -2519362.669 4
  22002118.226   -15803600.830 7 -12246080.351 8
  23610591.163    -8545102.688 6  -6598745.235 6
 94  1 24  0 33  0.0030000  0  7 27 18  2  7 16 19 31
  21589224.772   -19463860.945 7 -15046664.576 9
  23499232.897    -2435172.420 6  -1789855.886 6
  22826143.601   -14547123.141 6 -11195974.122 7
  25205237.093    -2892862.937 5  -2021109.258 4
  24987349.741    -3271031.027 5  -2502506.416 4
  22007841.015   -15773519.439 7 -12222640.297 8
  23622714.030    -8481405.815 6  -6549111.298 6
 94  1 24  0 33 30.0030000  0  7 27 18  2  7 16 19 31
  21585728.452   -19482223.670 7 -15060973.169 9
  23519121.991    -2330642.447 6  -1708403.990 6
  22818710.569   -14586202.963 6 -11226425.886 7
  25186320.390    -2992259.792 4  -2098561.252 4
  24991556.233    -3248904.531 5  -2485264.969 5
  22013616.397   -15743180.333 7 -12198999.426 8
  23634935.546    -8417181.780 6  -6499066.594 6
 94  1 24  0 34  0.0030000  0  7 27 18  2  7 16 19 31
  21582283.093   -19500328.261 7 -15075080.617 9
  23539066.351    -2225836.121 6  -1626736.742 6
  22811332.554   -14624962.212 6 -11256627.859 7
  25167415.905    -3091595.772 4  -2175965.744 3
  24995858.397    -3226284.967 5  -2467639.312 4
  22019436.554   -15712593.553 7 -12175165.565 8
  23647254.491    -8352437.443 6  -6448616.456 6
 94  1 24  0 34 30.0030000  0  7 27 18  2  7 16 19 31
  21578884.749   -19518194.244 7 -15089002.146 9
  23559058.999    -2120772.063 6  -1544868.664 6
  22804014.952   -14663408.438 6 -11286585.915 7
  25148525.522    -3190892.236 5  -2253339.487 3
  25000257.772    -3203192.137 5  -2449644.876 5
  22025301.022   -15681771.428 7 -12151148.311 8
  23659675.663    -8287171.526 6  -6397759.894 6
 94  1 24  0 35  0.0030000  0  7 27 18  2  7 16 19 31
  21575529.718   -19535806.512 7 -15102725.973 9
  23579103.647    -2015440.710 6  -1462792.311 6
  22796758.632   -14701554.121 6 -11316309.785 7
  25129635.733    -3290150.108 5  -2330683.176 3
  25004741.741    -3179606.988 5  -2431266.809 5
  22031217.374   -15650684.922 7 -12126925.055 8
  23672196.374    -8221369.130 6  -6346485.297 6
 94  1 24  0 35 30.0030000  0  7 27 18  2  7 16 19 31
  21572232.163   -19553151.379 7 -15116241.428 9
  23599200.843    -1909823.750 6  -1380493.404 6
  22789551.952   -14739413.802 6 -11345810.792 7
  25110756.319    -3389364.536 5  -2407993.014 3
  25009328.476    -3155519.955 5  -2412497.687 3
  22037182.046   -15619331.457 7 -12102493.775 8
  23684821.710    -8155039.252 6  -6294799.658 6
 94  1 24  0 36  0.0030000  0  7 27 18  2  7 16 19 31
  21568984.124   -19570221.628 7 -15129542.898 9
  23619351.319    -1803938.923 6  -1297985.765 6
  22782396.210   -14777017.145 6 -11375112.059 7
  25091885.101    -3488532.945 4  -2485266.982 5
  25014007.499    -3130937.089 5  -2393342.180 4
  22043199.827   -15587710.853 7 -12077854.332 8
  23697539.624    -8088197.252 6  -6242714.975 6
 94  1 24  0 36 30.0030000  0  7 27 18  2  7 16 19 31
  21565789.007   -19587001.464 7 -15142618.074 9
  23639550.499    -1697798.141 6  -1215278.694 6
  22775288.429   -14814378.017 6 -11404224.392 7
  25073020.366    -3587657.094 5  -2562506.442 5
  25018777.936    -3105859.030 5  -2373800.807 4
  22049267.530   -15555820.735 7 -12053004.882 8
  23710355.726    -8020850.907 6  -6190237.290 6
 94  1 24  0 37  0.0030000  0  7 27 18  2  7 16 19 31
  21562651.937   -19603495.429 7 -15155470.499 9
  23659800.233    -1591395.291 6  -1132367.410 6
  22768224.108   -14851490.961 6 -11433143.523 7
  25054169.241    -3686728.365 5  -2639704.731 5
  25023641.897    -3080290.230 5  -2353877.045 4
  22055387.140   -15523667.281 7 -12027950.234 8
  23723261.991    -7953024.846 6  -6137385.807 6
 94  1 24  0 37 30.0030000  0  7 27 18  2  7 16 19 31
  21559565.671   -19619709.366 7 -15168104.715 9
  23680094.101    -1484739.846 6  -1049259.293 6
  22761214.421   -14888336.367 6 -11461854.199 7
  25035333.624    -3785726.039 5  -2716845.691 4
  25028600.460    -3054238.342 5  -2333576.869 5
  22061552.304   -15491270.983 7 -12002706.362 8
  23736256.671    -7884724.339 6  -6084164.620 6
 94  1 24  0 38  0.0030000  0  7 27 18  2  7 16 19 31
  21556532.538   -19635648.595 7 -15180524.878 9
  23700435.179    -1377839.902 6   -965960.666 6
  22754258.882   -14924891.255 6 -11490338.493 7
  25016506.593    -3884644.485 5  -2793924.917 4
  25033650.577    -3027706.632 5  -2312902.798 4
  22067763.397   -15458629.445 7 -11977271.388 8
  23749348.968    -7815934.770 6  -6030562.352 6
 94  1 24  0 38 30.0030000  0  7 27 18  2  7 16 19 31
  21553546.538   -19651343.615 7 -15192754.743 9
  23720824.233    -1270688.189 6   -882465.847 6
  22747359.116   -14961137.978 6 -11518582.655 7
  24997699.397    -3983482.622 5  -2870941.532 5
  25038783.718    -3000704.637 5  -2291862.249 5
  22074020.686   -15425752.210 7 -11951652.754 8
  23762531.249    -7746658.277 6  -5976580.662 6
 94  1 24  0 39  0.0030000  0  7 27 18  2  7 16 19 31
  21550605.061   -19666799.007 7 -15204797.888 9
  23741268.124    -1163276.910 6   -798768.772 6
  22740525.132   -14997062.791 6 -11546575.979 7
  24978908.569    -4082224.687 5  -2947883.290 5
  25044018.132    -2973237.252 5  -2270459.075 4
  22080320.616   -15392638.153 7 -11925849.590 8
  23775806.905    -7676881.182 6  -5922208.896 6
 94  1 24  0 39 30.0030000  0  7 27 18  2  7 16 19 31
  21547710.187   -19682003.797 7 -15216645.756 9
  23761750.960    -1055620.841 6   -714880.954 6
  22733748.952   -15032673.656 6 -11574324.670 7
  24960134.851    -4180873.303 5  -3024752.237 5
  25049327.390    -2945309.004 5  -2248696.798 5
  22086669.733   -15359280.800 7 -11899856.840 8
  23789187.960    -7606587.814 6  -5867434.845 6
 94  1 24  0 40  0.0030000  0  7 27 18  2  7 16 19 31
  21544866.163   -19696956.804 7 -15228297.438 9
  23782284.991     -947721.065 6   -630803.245 6
  22727027.194   -15067983.703 6 -11601838.952 8
  24941378.460    -4279440.636 5  -3101557.843 5
  25054731.515    -2916927.778 5  -2226581.542 5
  22093064.007   -15325670.332 7 -11873666.862 8
  23802657.710    -7535784.841 6  -5812263.689 6
 94  1 24  0 40 30.0030000  0  7 27 18  2  7 16 19 31
  21542070.546   -19711647.291 7 -15239744.553 9
  23802860.999     -839585.933 6   -546542.119 6
  22720361.780   -15103007.882 6 -11629130.489 7
  24922641.507    -4377914.504 5  -3178290.633 5
  25060215.741    -2888101.716 5  -2204119.661 5
  22099511.085   -15291793.373 7 -11847269.227 8
  23816231.655    -7464468.851 6  -5756692.788 6
 94  1 24  0 41  0.0030000  0  7 27 18  2  7 16 19 31
  21539331.913   -19726045.624 7 -15250964.023 9
  23823480.866     -731229.517 6   -462108.574 6
  22713749.765   -15137767.802 6 -11656216.106 8
  24903919.804    -4476291.393 5  -3254947.855 5
  25065784.233    -2858832.156 5  -2181312.181 5
  22106012.054   -15257637.655 7 -11820654.372 8
  23829899.351    -7392640.152 6  -5700722.366 6
 94  1 24  0 41 30.0030000  0  7 27 18  2  7 16 19 31
  21536644.093   -19740150.616 7 -15261954.910 9
  23844142.077     -622654.242 6   -377504.501 6
  22707181.851   -15172283.599 6 -11683111.496 7
  24885218.312    -4574575.744 5  -3331532.942 5
  25071437.030    -2829114.531 5  -2158155.585 5
  22112567.765   -15223197.015 7 -11793817.511 8
  23843661.835    -7320314.381 6  -5644364.618 6
 94  1 24  0 42  0.0030000  0  7 27 18  2  7 16 19 31
  21534015.054   -19753982.177 7 -15272732.732 9
  23864843.874     -513868.775 6   -292736.634 6
  22700657.179   -15206566.281 6 -11709825.245 7
  24866531.397    -4672771.835 5  -3408049.237 5
  25077182.390    -2798943.112 5  -2134645.377 5
  22119170.874   -15188479.212 7 -11766764.674 8
  23857514.882    -7247510.454 6  -5587634.280 6
 94  1 24  0 42 30.0030000  0  7 27 18  2  7 16 19 31
  21531434.952   -19767540.348 7 -15283297.521 9
  23885587.655     -404874.812 6   -207806.308 6
  22694177.640   -15240608.055 6 -11736351.265 7
  24847862.405    -4770876.976 5  -3484494.693 5
  25083013.585    -2768308.802 5  -2110774.476 5
  22125830.421   -15153489.592 7 -11739500.028 8
  23871460.108    -7174228.503 6  -5530531.466 6
 94  1 24  0 43  0.0030000  0  7 27 18  2  7 16 19 31
  21528904.538   -19780832.999 7 -15293655.417 9
  23906371.655     -295646.182 6   -122693.128 6
  22687750.562   -15274390.962 6 -11762675.573 7
  24829211.124    -4868891.224 5  -3560869.341 5
  25088932.796    -2737200.316 5  -2086534.095 5
  22132535.312   -15118247.608 7 -11712038.734 8
  23885492.632    -7100483.274 6  -5473067.658 6
 94  1 24  0 43 30.0030000  0  7 27 18  2  7 16 19 31
  21526422.187   -19793877.839 7 -15303820.204 9
  23927204.952     -186173.366 6    -37389.664 6
  22681375.686   -15307892.519 6 -11788780.646 7
  24810575.382    -4966812.465 5  -3637171.513 5
  25094939.327    -2705605.087 5  -2061914.432 5
  22139287.257   -15082771.953 7 -11684395.366 8
  23899614.913    -7026272.405 6  -5415241.013 6
 94  1 24  0 44  0.0030000  0  7 27 18  2  7 16 19 31
  21523987.655   -19806683.741 7 -15313798.812 9
  23948079.843      -76471.955 6     48091.928 5
  22675049.905   -15341118.216 6 -11814670.772 7
  24791955.452    -5064655.946 5  -3713413.031 5
  25101045.694    -2673546.315 5  -2036933.546 5
  22146074.054   -15047095.328 7 -11656595.399 8
  23913824.491    -6951624.645 6  -5357073.939 6
 94  1 24  0 44 30.0030000  0  7 27 18  2  7 16 19 31
  21521598.483   -19819230.962 7 -15323575.845 9
  23968999.077       33473.058 6    133763.324 5
  22668781.515   -15374065.317 6 -11840343.806 7
  24773353.437    -5162416.777 5  -3789590.193 5
  25107233.124    -2641037.982 5  -2011602.373 5
  22152901.718   -15011222.225 7 -11628642.327 8
  23928110.101    -6876537.440 6  -5298564.429 6
 94  1 24  0 45  0.0030000  0  7 27 18  2  7 16 19 31
  21519262.866   -19831505.419 7 -15333140.342 9
  23989967.757      143661.464 6    219624.373 5
  22662567.593   -15406737.110 6 -11865802.316 7
  24754769.796    -5260078.610 5  -3865690.230 5
  25113504.062    -2608080.981 5  -1985921.586 5
  22159767.905   -14975138.738 7 -11600525.322 8
  23942484.311    -6801006.213 6  -5239708.910 6
 94  1 24  0 45 30.0030000  0  7 27 18  2  7 16 19 31
  21516985.827   -19843466.254 7 -15342460.461 9
  24010983.093      254087.763 6    305670.823 5
  22656404.272   -15439119.926 7 -11891035.650 7
  24736208.913    -5357618.542 5  -3941695.284 5
  25119864.835    -2574655.141 5  -1959875.462 5
  22166683.319   -14938801.143 7 -11572210.305 8
  23956944.663    -6725009.203 6  -5180490.463 6
 94  1 24  0 46  0.0030000  0  7 27 18  2  7 16 19 31
  21514771.679   -19855110.947 7 -15351534.223 9
  24032040.366      364745.623 6    391897.687 5
  22650293.116   -15471224.766 7 -11916052.373 7
  24717666.233    -5455051.358 5  -4017616.820 5
  25126307.866    -2540786.444 5  -1933484.257 5
  22173650.913   -14902190.813 7 -11543682.769 8
  23971490.116    -6648557.361 6  -5120917.605 6
 94  1 24  0 46 30.0030000  0  7 27 18  2  7 16 19 31
  21512609.702   -19866470.448 7 -15360385.766 9
  24053133.718      475603.341 6    478280.282 5
  22644235.593   -15503059.281 7 -11940858.466 7
  24699145.296    -5552386.822 5  -4093462.518 5
  25132830.780    -2506497.516 5  -1906765.618 5
  22180669.593   -14865303.620 7 -11514939.495 8
  23986128.624    -6571645.503 6  -5060986.292 6
 94  1 24  0 47  0.0030000  0  7 27 18  2  7 16 19 31
  21510498.655   -19877546.054 7 -15369016.089 9
  24074266.726      586656.598 6    564815.243 5
  22638235.085   -15534603.628 7 -11965438.444 7
  24680645.483    -5649610.891 5  -4169221.433 5
  25139443.749    -2471769.813 5  -1879705.047 5
  22187745.312   -14828120.308 7 -11485965.480 8
  24000857.312    -6494258.508 6  -5000684.744 6
 94  1 24  0 47 30.0030000  0  7 27 18  2  7 16 19 31
  21508444.608   -19888348.771 7 -15377433.770 9
  24095437.460      697912.015 6    651507.741 5
  22632285.382   -15565859.443 7 -11989793.595 7
  24662159.991    -5746737.155 5  -4244904.098 5
  25146128.218    -2436617.827 5  -1852313.895 5
  22194873.343   -14790662.338 7 -11456777.441 8
  24015670.538    -6416408.965 6  -4940022.783 6
 94  1 24  0 48  0.0030000  0  7 27 18  2  7 16 19 31
  21506441.968   -19898884.393 7 -15385643.339 9
  24116651.913      809382.428 6    738367.775 5
  22626392.296   -15596829.031 7 -12013925.708 7
  24643699.835    -5843750.749 5  -4320498.972 5
  25152902.554    -2401046.023 5  -1824595.607 5
  22202051.882   -14752936.321 7 -11427380.542 8
  24030573.116    -6338086.340 6  -4878992.167 6
 94  1 24  0 48 30.0030000  0  7 27 18  2  7 16 19 31
  21504487.163   -19909143.509 7 -15393637.434 9
  24137901.421      921060.429 6    825389.548 5
  22620553.788   -15627515.474 7 -12037837.196 7
  24625266.179    -5940626.064 5  -4395986.096 5
  25159751.265    -2365034.999 5  -1796535.071 4
  22209281.593   -14714950.194 7 -11397780.952 8
  24045568.171    -6259286.371 6  -4817589.586 6
 94  1 24  0 49  0.0030000  0  7 27 18  2  7 16 19 31
  21502580.726   -19919155.560 7 -15401439.030 9
  24159188.952     1032920.253 6    912553.013 5
  22614758.483   -15657966.122 7 -12061564.943 7
  24606851.202    -6037394.352 5  -4471389.819 5
  25166681.296    -2328617.285 5  -1768157.632 5
  22216550.866   -14676753.364 7 -11368017.181 8
  24060644.507    -6180070.417 6  -4755862.858 6
 94  1 24  0 49 30.0030000  0  7 27 18  2  7 16 19 31
  21500733.569   -19928881.425 7 -15409017.615 9
  24180515.444     1145003.930 5    999890.905 5
  22609010.843   -15688154.737 7 -12085088.506 7
  24588464.788    -6134009.303 5  -4546674.035 5
  25173697.499    -2291761.091 5  -1739438.525 4
  22223866.921   -14638301.290 7 -11338054.519 8
  24075802.319    -6100412.153 6  -4693791.489 6
 94  1 24  0 50  0.0030000  0  7 27 18  2  7 16 19 31
  21498934.694   -19938333.490 7 -15416382.841 9
  24201885.483     1257287.145 6   1087384.284 5
  22603318.663   -15718085.956 7 -12108411.505 7
  24570109.491    -6230466.435 5  -4621835.334 5
  25180792.374    -2254458.655 5  -1710371.709 5
  22231236.140   -14599569.645 7 -11307874.010 8
  24091046.038    -6020306.726 6  -4631371.667 6
 94  1 24  0 50 30.0030000  0  7 27 18  2  7 16 19 31
  21497182.530   -19947523.476 7 -15423543.857 9
  24223285.835     1369744.840 6   1175013.617 5
  22597670.819   -15747761.672 7 -12131535.410 8
  24551781.819    -6326787.222 5  -4696890.342 5
  25187974.413    -2216731.952 5  -1680974.266 5
  22238659.272   -14560571.636 7 -11277485.949 8
  24106369.038    -5939777.766 6  -4568621.825 6
 94  1 24  0 51  0.0040000  0  7 27 18  2  7 16 19 31
  21495488.074   -19956438.945 7 -15430490.961 9
  24244722.160     1482396.771 5   1262794.312 5
  22592073.230   -15777174.343 7 -12154454.344 7
  24533475.340    -6422978.950 5  -4771844.771 5
  25195236.098    -2178584.611 5  -1651249.091 4
  22246131.121   -14521300.564 7 -11246885.102 8
  24121774.441    -5858823.532 6  -4505540.610 6
 94  1 24  0 51 30.0040000  0  7 27 18  2  7 16 19 31
  21493854.012   -19965041.678 7 -15437194.375 9
  24266195.363     1595245.286 5   1350728.179 5
  22586531.871   -15806290.478 7 -12177142.216 7
  24515197.543    -6519025.262 5  -4846685.927 5
  25202575.020    -2139991.987 5  -1621176.926 5
  22253660.035   -14481730.135 7 -11216050.996 8
  24137265.340    -5777404.811 6  -4442097.457 6
 94  1 24  0 52  0.0040000  0  7 27 18  2  7 16 19 31
  21492272.410   -19973329.764 7 -15443652.608 9
  24287704.269     1708267.828 5   1438797.651 5
  22581048.957   -15835114.442 7 -12199602.414 8
  24496943.566    -6614950.612 5  -4921432.824 5
  25210005.473    -2100969.836 5  -1590770.069 2
  22261241.012   -14441896.745 7 -11185011.992 8
  24152848.621    -5695528.530 6  -4378297.760 6
